[[{"header":{"parameterUnit":"m.s-1","parameterCategory":1,"la1":30.6,"la2":29.2853,"lo1":-89.7004,"lo2":-87.6739,"dy":0.0162,"dx":0.0183,"nx":112,"ny":82,"refTime":"2023-09-12T18:00:00:Z","depth":0,"parameterNumber":2,"parameterNumberName":"U-component_of_WINDS"},"data":[0.0,0.0,0.0,0.0,0.0,0.0,0.0,0.0,0.0,0.0,0.0,0.0,0.0,0.0,0.0,0.0,0.0,0.0,0.0,0.0,0.0,0.0,0.0,0.0,0.0,0.0,0.0,0.0,0.0,0.0,0.0,0.0,0.0,0.0,0.0,0.0,0.0,0.0,0.0,0.0,0.0,0.0,0.0,0.0,0.0,0.0,0.0,0.0,0.0,0.0,0.0,0.0,0.0,0.0,0.0,0.0,0.0,0.0,0.0,0.0,0.0,0.0,0.0,0.0,0.0,0.0,0.0,0.0,0.0,0.0,0.0,0.0,0.0,0.0,0.0,0.0,0.0,0.0,0.0,0.0,0.0,0.0,0.0,0.0,0.0,0.0,0.0,0.0,0.0,0.0,-2.2702,-2.4886,-2.6228,-2.673,-2.6117,-2.4199,-2.2232,-2.0309,0.0,0.0,0.0,0.0,0.0,0.0,0.0,0.0,0.0,0.0,0.0,0.0,0.0,0.0,0.0,0.0,0.0,0.0,0.0,0.0,0.0,0.0,0.0,0.0,0.0,0.0,0.0,0.0,0.0,0.0,0.0,0.0,0.0,0.0,0.0,0.0,0.0,0.0,0.0,0.0,0.0,0.0,0.0,0.0,0.0,0.0,0.0,0.0,0.0,0.0,0.0,0.0,0.0,0.0,0.0,0.0,0.0,0.0,0.0,0.0,0.0,0.0,0.0,0.0,0.0,0.0,0.0,0.0,0.0,0.0,0.0,0.0,0.0,0.0,0.0,0.0,0.0,0.0,0.0,0.0,0.0,0.0,0.0,0.0,0.0,0.0,0.0,0.0,0.0,0.0,0.0,0.0,0.0,0.0,0.0,0.0,0.0,0.0,0.0,0.0,0.0,0.0,0.0,0.0,-2.3107,-2.5425,-2.6678,-2.692,-2.593,-2.4561,-2.285,-2.075,0.0,0.0,0.0,0.0,0.0,0.0,0.0,0.0,0.0,0.0,0.0,0.0,0.0,0.0,0.0,0.0,0.0,0.0,0.0,0.0,0.0,0.0,0.0,0.0,0.0,0.0,0.0,0.0,0.0,0.0,0.0,0.0,0.0,0.0,0.0,0.0,0.0,0.0,0.0,0.0,0.0,0.0,0.0,0.0,0.0,0.0,0.0,0.0,0.0,0.0,0.0,0.0,0.0,0.0,0.0,0.0,0.0,0.0,0.0,0.0,0.0,0.0,0.0,0.0,0.0,0.0,0.0,0.0,0.0,0.0,0.0,0.0,0.0,0.0,0.0,0.0,0.0,0.0,0.0,0.0,0.0,0.0,0.0,0.0,0.0,0.0,0.0,0.0,0.0,0.0,0.0,0.0,0.0,0.0,0.0,0.0,0.0,0.0,0.0,0.0,0.0,0.0,0.0,-2.3438,-2.4879,-2.591,-2.6612,-2.6644,-2.5712,-2.4382,-2.2589,-2.0305,-1.8475,0.0,0.0,0.0,0.0,0.0,0.0,0.0,0.0,0.0,0.0,0.0,0.0,0.0,0.0,0.0,0.0,0.0,0.0,0.0,0.0,0.0,0.0,0.0,0.0,0.0,0.0,0.0,0.0,0.0,0.0,0.0,0.0,0.0,0.0,0.0,0.0,0.0,0.0,0.0,0.0,0.0,0.0,0.0,0.0,0.0,0.0,0.0,0.0,0.0,0.0,0.0,0.0,0.0,0.0,0.0,0.0,0.0,0.0,0.0,0.0,0.0,0.0,0.0,0.0,0.0,0.0,0.0,0.0,0.0,0.0,0.0,0.0,0.0,0.0,0.0,0.0,0.0,0.0,0.0,0.0,0.0,0.0,0.0,0.0,0.0,0.0,0.0,0.0,0.0,0.0,0.0,0.0,0.0,0.0,0.0,0.0,0.0,0.0,0.0,0.0,0.0,0.0,-2.4538,-2.6081,-2.6007,-2.6343,-2.6245,-2.5418,-2.4214,-2.2437,-1.9979,-1.8963,0.0,0.0,0.0,0.0,0.0,0.0,0.0,0.0,0.0,0.0,0.0,0.0,0.0,0.0,0.0,0.0,0.0,0.0,0.0,0.0,0.0,0.0,0.0,0.0,0.0,0.0,0.0,0.0,0.0,0.0,0.0,0.0,0.0,0.0,0.0,0.0,0.0,0.0,0.0,0.0,0.0,0.0,0.0,0.0,0.0,0.0,0.0,0.0,0.0,0.0,0.0,0.0,0.0,0.0,0.0,0.0,0.0,0.0,0.0,0.0,0.0,0.0,0.0,0.0,0.0,0.0,0.0,0.0,0.0,0.0,0.0,0.0,0.0,0.0,0.0,0.0,0.0,0.0,0.0,0.0,0.0,0.0,0.0,0.0,0.0,0.0,0.0,0.0,0.0,0.0,0.0,0.0,0.0,0.0,0.0,0.0,0.0,0.0,0.0,0.0,0.0,0.0,-2.4245,-2.5518,-2.5373,-2.5877,-2.5857,-2.4934,-2.4346,-2.2936,-2.0328,-1.94,0.0,0.0,0.0,0.0,0.0,0.0,0.0,0.0,0.0,0.0,0.0,0.0,0.0,0.0,0.0,0.0,0.0,0.0,0.0,0.0,0.0,0.0,0.0,0.0,0.0,0.0,0.0,0.0,0.0,0.0,0.0,0.0,0.0,0.0,0.0,0.0,0.0,0.0,0.0,0.0,0.0,0.0,0.0,0.0,0.0,0.0,0.0,0.0,0.0,0.0,0.0,0.0,0.0,0.0,0.0,0.0,0.0,0.0,0.0,0.0,0.0,0.0,0.0,0.0,0.0,0.0,0.0,0.0,0.0,0.0,0.0,0.0,0.0,0.0,0.0,0.0,0.0,0.0,0.0,0.0,0.0,0.0,0.0,0.0,0.0,0.0,0.0,0.0,0.0,0.0,0.0,0.0,0.0,0.0,0.0,0.0,0.0,0.0,0.0,0.0,0.0,0.0,-2.3747,-2.4898,0.0,-2.5505,-2.5479,-2.5087,-2.4267,-2.29,-2.0762,0.0,0.0,0.0,0.0,0.0,0.0,0.0,0.0,0.0,0.0,0.0,0.0,0.0,0.0,0.0,0.0,0.0,0.0,0.0,0.0,0.0,0.0,0.0,0.0,0.0,0.0,0.0,0.0,0.0,0.0,0.0,0.0,0.0,0.0,0.0,0.0,0.0,0.0,0.0,0.0,0.0,0.0,0.0,0.0,0.0,0.0,0.0,0.0,0.0,0.0,0.0,0.0,0.0,0.0,0.0,0.0,0.0,0.0,0.0,0.0,0.0,0.0,0.0,0.0,0.0,0.0,0.0,0.0,0.0,0.0,0.0,0.0,0.0,0.0,0.0,0.0,0.0,0.0,0.0,0.0,0.0,0.0,0.0,0.0,0.0,0.0,0.0,0.0,0.0,0.0,0.0,0.0,0.0,0.0,0.0,0.0,0.0,0.0,0.0,0.0,0.0,0.0,-2.2212,-2.3286,-2.4241,0.0,-2.4973,-2.4967,-2.4897,-2.3915,-2.2607,-2.0998,0.0,0.0,0.0,0.0,0.0,0.0,0.0,0.0,0.0,0.0,0.0,0.0,0.0,0.0,0.0,0.0,0.0,0.0,0.0,0.0,0.0,0.0,0.0,0.0,0.0,0.0,0.0,0.0,0.0,0.0,0.0,0.0,0.0,0.0,0.0,0.0,0.0,0.0,0.0,0.0,0.0,0.0,0.0,0.0,0.0,0.0,0.0,0.0,0.0,0.0,0.0,0.0,0.0,0.0,0.0,0.0,0.0,0.0,0.0,0.0,0.0,0.0,0.0,0.0,0.0,0.0,0.0,0.0,0.0,0.0,0.0,0.0,0.0,0.0,0.0,0.0,0.0,0.0,0.0,0.0,0.0,0.0,0.0,0.0,0.0,0.0,0.0,0.0,0.0,0.0,0.0,0.0,0.0,0.0,0.0,0.0,0.0,0.0,0.0,0.0,0.0,0.0,-2.2212,-2.2871,-2.3548,-2.4204,-2.4281,-2.4276,-2.4187,-2.3287,-2.2183,0.0,0.0,0.0,0.0,0.0,0.0,0.0,0.0,0.0,0.0,0.0,0.0,0.0,0.0,0.0,0.0,0.0,0.0,0.0,0.0,0.0,0.0,0.0,0.0,0.0,0.0,0.0,0.0,0.0,0.0,0.0,0.0,0.0,0.0,0.0,0.0,0.0,0.0,0.0,0.0,0.0,0.0,0.0,0.0,0.0,0.0,0.0,0.0,0.0,0.0,0.0,0.0,0.0,0.0,0.0,0.0,0.0,0.0,0.0,0.0,0.0,0.0,0.0,0.0,0.0,0.0,0.0,0.0,0.0,0.0,0.0,0.0,0.0,0.0,0.0,0.0,0.0,0.0,0.0,0.0,0.0,0.0,0.0,0.0,0.0,0.0,0.0,0.0,0.0,0.0,0.0,0.0,0.0,0.0,0.0,0.0,0.0,0.0,0.0,0.0,0.0,0.0,0.0,-2.1504,-2.2106,-2.2707,-2.3381,-2.3824,-2.4088,-2.4061,-2.3152,-2.2111,-2.1108,0.0,0.0,0.0,0.0,0.0,0.0,0.0,0.0,0.0,0.0,0.0,0.0,0.0,0.0,0.0,0.0,0.0,0.0,0.0,0.0,0.0,0.0,0.0,0.0,0.0,0.0,0.0,0.0,0.0,0.0,0.0,0.0,0.0,0.0,0.0,0.0,0.0,0.0,0.0,0.0,0.0,0.0,0.0,0.0,0.0,0.0,0.0,0.0,0.0,0.0,0.0,0.0,0.0,0.0,0.0,0.0,0.0,0.0,0.0,0.0,0.0,0.0,0.0,0.0,0.0,0.0,0.0,0.0,0.0,0.0,0.0,0.0,0.0,0.0,0.0,0.0,0.0,0.0,0.0,0.0,0.0,0.0,0.0,0.0,0.0,0.0,0.0,0.0,0.0,0.0,0.0,0.0,0.0,0.0,0.0,0.0,0.0,0.0,0.0,0.0,0.0,0.0,-2.1084,-2.1457,-2.201,-2.2899,-2.3268,-2.3426,-2.3363,-2.2462,-2.1501,-2.0526,0.0,0.0,0.0,0.0,0.0,0.0,0.0,0.0,0.0,0.0,0.0,0.0,0.0,0.0,0.0,0.0,0.0,0.0,0.0,0.0,0.0,0.0,0.0,0.0,0.0,0.0,0.0,0.0,0.0,0.0,0.0,0.0,0.0,0.0,0.0,0.0,0.0,0.0,0.0,0.0,0.0,0.0,0.0,0.0,0.0,0.0,0.0,0.0,0.0,0.0,0.0,0.0,0.0,0.0,0.0,0.0,0.0,0.0,0.0,0.0,0.0,0.0,0.0,0.0,0.0,0.0,0.0,0.0,0.0,0.0,0.0,0.0,0.0,0.0,0.0,0.0,0.0,0.0,0.0,0.0,0.0,0.0,0.0,0.0,0.0,0.0,0.0,0.0,0.0,0.0,0.0,0.0,0.0,0.0,0.0,0.0,0.0,0.0,0.0,0.0,0.0,0.0,-2.0807,-2.0909,-2.1367,-2.2465,-2.2503,-2.2387,-2.2256,-2.1403,-2.0464,-1.9555,0.0,0.0,0.0,0.0,0.0,0.0,0.0,0.0,0.0,0.0,0.0,0.0,0.0,0.0,0.0,0.0,0.0,0.0,0.0,0.0,0.0,0.0,0.0,0.0,0.0,0.0,0.0,0.0,0.0,0.0,0.0,0.0,0.0,0.0,0.0,0.0,0.0,0.0,0.0,0.0,0.0,0.0,0.0,0.0,0.0,0.0,0.0,0.0,0.0,0.0,0.0,0.0,0.0,0.0,0.0,0.0,0.0,0.0,0.0,0.0,-3.2967,0.0,0.0,0.0,0.0,0.0,0.0,0.0,0.0,0.0,0.0,0.0,0.0,0.0,0.0,0.0,0.0,0.0,0.0,0.0,0.0,0.0,0.0,0.0,0.0,0.0,0.0,0.0,0.0,0.0,0.0,0.0,0.0,0.0,0.0,0.0,0.0,0.0,0.0,0.0,0.0,0.0,-2.0029,-2.0326,-2.0663,-2.0974,-2.1151,-2.1254,-2.1212,-2.036,-1.9735,-1.9506,-1.8567,0.0,0.0,0.0,0.0,0.0,0.0,0.0,0.0,0.0,0.0,0.0,0.0,0.0,0.0,0.0,0.0,0.0,0.0,0.0,0.0,0.0,0.0,0.0,0.0,0.0,0.0,0.0,0.0,0.0,0.0,0.0,0.0,0.0,0.0,0.0,0.0,0.0,0.0,0.0,0.0,0.0,0.0,0.0,0.0,0.0,0.0,0.0,0.0,0.0,0.0,0.0,0.0,0.0,0.0,0.0,0.0,0.0,0.0,0.0,0.0,-3.3071,0.0,0.0,0.0,0.0,0.0,0.0,0.0,0.0,0.0,0.0,0.0,0.0,0.0,0.0,0.0,0.0,0.0,0.0,0.0,0.0,0.0,0.0,0.0,0.0,0.0,0.0,0.0,0.0,0.0,0.0,0.0,0.0,0.0,0.0,0.0,0.0,0.0,0.0,0.0,0.0,-1.9545,-1.9689,-1.9884,-2.0177,-2.012,-2.0095,-2.013,-1.9564,-1.9127,-1.8889,-1.8374,0.0,0.0,0.0,0.0,0.0,0.0,0.0,0.0,0.0,0.0,0.0,0.0,0.0,0.0,0.0,0.0,0.0,0.0,0.0,0.0,0.0,0.0,0.0,0.0,0.0,0.0,0.0,0.0,0.0,0.0,0.0,0.0,0.0,0.0,0.0,0.0,0.0,0.0,0.0,0.0,0.0,0.0,0.0,0.0,0.0,0.0,0.0,0.0,0.0,0.0,0.0,0.0,0.0,-3.662,-3.7064,-3.7047,-3.6365,-3.607,-3.6023,-3.4786,-3.4057,-3.367,0.0,0.0,0.0,0.0,0.0,0.0,0.0,0.0,0.0,0.0,0.0,0.0,0.0,0.0,0.0,0.0,0.0,0.0,0.0,0.0,0.0,0.0,0.0,0.0,0.0,-2.5549,-2.498,0.0,0.0,0.0,0.0,0.0,0.0,0.0,0.0,0.0,0.0,0.0,0.0,-1.9195,-1.9082,-1.9152,-1.9577,-1.922,-1.9003,-1.9017,-1.8796,-1.8495,-1.813,-1.8103,-1.8149,0.0,0.0,0.0,0.0,0.0,0.0,0.0,0.0,0.0,0.0,0.0,0.0,0.0,0.0,0.0,0.0,0.0,0.0,0.0,0.0,0.0,0.0,0.0,0.0,0.0,0.0,0.0,0.0,0.0,0.0,0.0,0.0,-3.2092,-3.2159,0.0,0.0,0.0,0.0,0.0,0.0,0.0,0.0,0.0,0.0,0.0,0.0,0.0,-3.508,-3.5818,-3.6503,-3.6901,-3.6977,-3.7682,-3.8082,-3.819,-3.7957,-3.7905,-3.7983,-3.7232,0.0,-3.3351,-3.3246,0.0,0.0,0.0,0.0,0.0,0.0,0.0,0.0,0.0,0.0,0.0,0.0,0.0,0.0,0.0,0.0,0.0,0.0,0.0,0.0,0.0,0.0,-2.5756,-2.5698,-2.558,-2.5422,0.0,-2.4069,-2.29,-2.205,-2.1512,0.0,0.0,0.0,0.0,0.0,0.0,0.0,-1.8874,-1.8697,-1.857,-1.8529,-1.8259,-1.8031,-1.7923,-1.7773,-1.7712,-1.776,-1.776,-1.7848,-1.8028,-1.7989,0.0,0.0,0.0,0.0,0.0,0.0,0.0,0.0,0.0,0.0,0.0,0.0,0.0,0.0,0.0,0.0,0.0,0.0,0.0,0.0,0.0,0.0,0.0,0.0,0.0,0.0,0.0,0.0,0.0,-3.1739,-3.1987,-3.1981,-3.1909,-3.1764,0.0,0.0,0.0,0.0,0.0,0.0,0.0,0.0,0.0,-3.6285,-3.6627,-3.7142,-3.7843,-3.8955,-3.9313,-3.8952,-3.9744,-3.9929,-3.9549,-3.9091,-3.8903,-3.8916,-3.8174,-3.6702,-3.48,-3.4532,-3.3455,-3.1975,0.0,0.0,0.0,0.0,-3.0434,-3.08,-3.0836,-3.1096,0.0,0.0,0.0,0.0,0.0,0.0,0.0,0.0,0.0,0.0,0.0,0.0,0.0,-2.5052,-2.5048,-2.4882,-2.437,-2.3803,-2.3188,0.0,-2.1329,-2.0357,-1.9659,0.0,0.0,0.0,0.0,-1.8489,-1.8514,-1.8338,-1.8214,-1.8141,-1.7774,-1.7502,-1.7528,-1.7295,-1.7261,-1.7522,-1.7461,-1.7509,-1.772,-1.7639,-1.757,0.0,0.0,0.0,0.0,0.0,0.0,0.0,0.0,0.0,0.0,0.0,0.0,0.0,0.0,0.0,0.0,0.0,0.0,0.0,0.0,0.0,0.0,0.0,0.0,0.0,0.0,0.0,0.0,-3.1959,-3.2155,-3.2403,-3.2347,-3.2217,0.0,0.0,0.0,0.0,0.0,0.0,-3.5513,-3.5784,-3.6585,-3.8071,-3.8709,-3.934,-4.005,-4.0926,-4.107,-4.0544,-4.1001,-4.0932,-4.0377,-3.9832,-3.9593,-3.9559,-3.8979,-3.7888,-3.6433,-3.5765,-3.4519,-3.3002,-3.2801,-3.2259,-3.1584,-3.1444,-3.1348,-3.1281,-3.1204,-3.1106,-3.0975,-3.0675,0.0,-2.8436,-2.7389,0.0,0.0,0.0,0.0,-2.4128,-2.4485,-2.463,-2.4634,-2.4492,-2.4472,-2.4265,-2.3568,-2.3211,-2.2863,0.0,-2.1078,-1.9972,-1.9369,0.0,0.0,0.0,0.0,-1.8141,-1.8141,-1.8022,-1.7902,-1.7841,-1.7468,-1.7233,-1.7267,-1.6981,-1.6884,-1.7089,-1.701,-1.7031,-1.7193,-1.7152,-1.7081,-1.6989,0.0,0.0,0.0,0.0,0.0,0.0,0.0,0.0,0.0,0.0,0.0,0.0,0.0,0.0,0.0,0.0,0.0,0.0,0.0,0.0,0.0,0.0,0.0,0.0,0.0,0.0,0.0,0.0,0.0,-3.3685,-3.3679,0.0,0.0,0.0,0.0,-3.4732,-3.4846,-3.5557,-3.7104,-3.7724,-3.8754,-4.0297,-4.0916,-4.1588,-4.2319,-4.1603,-4.1187,-4.1136,-4.0485,-4.0172,-4.0121,-4.0087,-4.007,-4.007,-4.0153,-3.9304,-3.7709,-3.6485,-3.4947,-3.3359,-3.3355,-3.3062,-3.2636,-3.2691,-3.222,-3.1591,-3.1648,-3.1157,-3.051,-3.0372,-2.8944,-2.7079,-2.5946,-2.5129,0.0,0.0,-2.4487,-2.4472,-2.4498,-2.4421,-2.4281,-2.4162,-2.4141,-2.391,-2.3122,-2.232,-2.1696,0.0,-2.0887,-2.022,-1.9127,0.0,-1.8189,-1.8042,-1.7868,-1.774,-1.774,-1.772,-1.7638,-1.7446,-1.7295,-1.7128,-1.6939,-1.6684,-1.6466,-1.6355,-1.6284,-1.6284,-1.6355,-1.6355,-1.6389,-1.6436,-1.6297,0.0,0.0,0.0,0.0,0.0,0.0,0.0,0.0,0.0,0.0,0.0,0.0,0.0,0.0,0.0,0.0,0.0,0.0,0.0,0.0,0.0,0.0,0.0,0.0,0.0,0.0,0.0,0.0,-3.4139,-3.4592,0.0,-3.4756,-3.4866,-3.5242,-3.5983,-3.6672,-3.7741,-3.9286,-4.0007,-4.0771,-4.1638,-4.1858,-4.1996,-4.1997,-4.1691,-4.1241,-4.0692,-4.0425,-4.0024,-3.954,-3.9651,-3.9452,-3.9025,-3.9051,-3.8162,-3.6642,-3.6107,-3.5027,-3.3695,-3.3595,-3.2974,-3.219,-3.2111,-3.1869,-3.1531,-3.1076,-3.0774,-3.0443,-2.9746,-2.8385,-2.6902,-2.6327,-2.5387,-2.4503,-2.4354,-2.4276,-2.4198,-2.3988,-2.3888,-2.3803,-2.3631,-2.321,-2.2664,-2.1851,-2.1046,-2.0289,-1.9579,-1.9459,-1.9253,-1.862,-1.8234,-1.7963,-1.7828,-1.7638,-1.7508,-1.7508,-1.7329,-1.7162,-1.7099,-1.6842,-1.6629,-1.6448,-1.6132,-1.5944,-1.5979,-1.5824,-1.5824,-1.5979,-1.6054,-1.612,-1.6141,-1.6001,-1.5859,0.0,0.0,0.0,0.0,0.0,0.0,0.0,0.0,0.0,0.0,0.0,0.0,0.0,0.0,0.0,0.0,0.0,0.0,0.0,0.0,0.0,0.0,0.0,0.0,0.0,0.0,-3.4365,-3.562,-3.6215,-3.6589,-3.6803,-3.6939,-3.7313,-3.8055,-3.8725,-3.9695,-4.0951,-4.1452,-4.1813,-4.2105,-4.2061,-4.1854,-4.1538,-4.1233,-4.0784,-4.0238,-3.9963,-3.9583,-3.9071,-3.9202,-3.8858,-3.8171,-3.8171,-3.725,-3.577,-3.5595,-3.4824,-3.3775,-3.376,-3.3218,-3.2425,-3.2335,-3.2086,-3.1661,-3.0641,-3.0171,-2.9908,-2.9162,-2.7926,-2.6682,-2.6468,-2.5401,-2.4234,-2.4088,-2.3815,-2.3471,-2.3259,-2.2931,-2.2661,-2.2526,-2.2068,-2.1439,-2.0664,-1.9992,-1.9266,-1.841,-1.8383,-1.8442,-1.8147,-1.7855,-1.7625,-1.7481,-1.7287,-1.7141,-1.7099,-1.6833,-1.6663,-1.6663,-1.6349,-1.6088,-1.6013,-1.5647,-1.5468,-1.5558,-1.5401,-1.5401,-1.5614,-1.5726,-1.5758,-1.5758,-1.5491,-1.5311,-1.5187,0.0,0.0,0.0,0.0,0.0,0.0,0.0,0.0,0.0,0.0,0.0,0.0,0.0,0.0,0.0,0.0,0.0,0.0,0.0,0.0,0.0,0.0,0.0,-3.3555,-3.4585,-3.5985,-3.8254,-3.8539,-3.8839,-3.9592,-3.978,-4.016,-4.0875,-4.0925,-4.1278,-4.2051,-4.1931,-4.1821,-4.1683,-4.1538,-4.1319,-4.1127,-4.025,-3.982,-3.9804,-3.9061,-3.8733,-3.8733,-3.8717,-3.8319,-3.7625,-3.7609,-3.6712,-3.531,-3.5053,-3.4354,-3.3503,-3.3899,-3.3822,-3.3477,-3.3445,-3.2881,-3.1905,-3.0411,-2.9422,-2.8803,-2.8598,-2.7543,-2.6325,-2.6183,-2.5052,-2.3782,-2.3745,-2.3088,-2.2366,-2.2351,-2.1614,-2.0885,-2.0864,-2.0704,-2.033,-1.9619,-1.9183,-1.8686,-1.7848,-1.7828,-1.7888,-1.772,-1.7413,-1.7157,-1.7002,-1.6825,0.0,-1.65,-1.6297,-1.6178,-1.6178,-1.5802,-1.5568,-1.5568,-1.5255,-1.5085,-1.5085,-1.496,-1.5006,-1.5267,-1.5289,-1.5289,-1.5267,-1.4766,-1.4432,-1.435,0.0,0.0,0.0,0.0,0.0,0.0,0.0,0.0,0.0,0.0,0.0,0.0,0.0,0.0,0.0,0.0,0.0,0.0,0.0,0.0,0.0,0.0,-3.3019,-3.4143,-3.5134,-3.658,-3.8797,-3.9555,-4.0143,-4.0857,-4.1067,-4.1265,-4.1449,-4.1476,-4.1587,-4.1805,-4.1549,-4.1279,-4.1066,-4.0353,-3.9729,-3.9244,-3.848,-3.7966,-3.7714,-3.7524,-3.7429,-3.7413,-3.7083,-3.6492,-3.5792,-3.5388,-3.4627,-3.3657,-3.3625,-3.3334,-3.2877,-3.324,-3.316,-3.2788,-3.2289,-3.1291,-3.0107,-2.967,-2.8724,-2.7626,-2.7485,-2.6451,-2.522,-2.5018,-2.4253,-2.3303,-2.2664,-2.2228,-2.1808,-2.1133,-2.0663,-2.0366,-2.0216,-1.9654,-1.9083,-1.8827,-1.821,-1.7612,-1.7246,-1.7115,-1.7094,-1.7178,-1.7073,-1.6939,-1.6803,-1.6565,0.0,-1.6163,-1.579,-1.5501,-1.5401,-1.513,-1.4949,-1.4949,-1.4823,-1.4788,-1.4891,-1.4662,-1.4605,-1.4788,-1.4788,-1.4742,-1.4651,-1.4316,-1.3931,0.0,0.0,0.0,0.0,0.0,0.0,0.0,0.0,0.0,0.0,0.0,0.0,0.0,0.0,0.0,0.0,0.0,0.0,0.0,0.0,0.0,0.0,-3.2765,-3.4276,-3.5768,-3.6529,-3.7632,-3.9531,-4.0144,-4.0647,-4.1342,-4.1498,-4.1543,-4.1486,-4.1498,-4.1442,-4.1328,-4.0754,-4.027,-3.9936,-3.8977,-3.8241,-3.776,-3.7277,-3.6952,-3.6708,-3.6708,-3.6599,-3.6304,-3.6021,-3.5379,0.0,-3.4119,-3.3498,-3.2749,-3.2742,-3.2451,0.0,0.0,0.0,0.0,0.0,-3.0201,-2.9114,-2.8834,-2.7917,-2.6808,-2.6473,-2.5497,-2.4401,-2.4279,-2.3595,-2.2684,-2.1916,-2.1325,-2.0731,-1.995,-1.939,-1.9007,-1.888,-1.8369,-1.7917,-1.7874,-1.7357,-1.6871,-1.6799,-1.6586,0.0,-1.6491,-1.6556,-1.6556,-1.6426,-1.6141,-1.5866,-1.5657,-1.5255,-1.4971,-1.4811,-1.457,-1.4432,-1.4489,-1.4407,0.0,0.0,0.0,-1.4244,-1.4267,-1.4163,0.0,0.0,0.0,-1.3266,-1.2963,0.0,0.0,0.0,-1.3386,-1.3605,0.0,0.0,0.0,0.0,0.0,0.0,0.0,0.0,0.0,0.0,0.0,0.0,0.0,0.0,0.0,0.0,-3.3744,-3.5281,-3.76,-3.8121,-3.8788,-4.0216,-4.0409,-4.0647,-4.1314,-4.138,-4.1324,-4.1152,-4.1042,-4.0865,-4.059,0.0,0.0,0.0,0.0,-3.6922,-3.6585,-3.6476,-3.6352,-3.6275,-3.6275,-3.5922,-3.5262,-3.5201,-3.451,-3.3374,-3.3326,-3.2942,-3.2315,-3.2219,-3.172,-3.1075,-3.1316,-3.1297,-3.101,-3.0295,-2.9375,-2.8402,-2.7811,0.0,0.0,-2.5438,-2.4552,-2.3693,-2.3574,-2.2822,-2.1862,-2.1176,-2.0293,-1.9402,-1.8756,-1.7965,-1.7344,-1.7323,-1.7115,-1.6939,-1.6939,-1.6671,-1.6436,-1.6423,-1.6163,-1.5913,-1.5748,-1.5947,-1.6078,-1.5935,-1.5613,-1.5334,-1.5062,-1.4731,-1.4454,-1.4361,0.0,0.0,-1.4129,-1.4033,-1.401,-1.4152,-1.3975,-1.3821,-1.3678,-1.342,-1.33,-1.3276,-1.2793,-1.2535,-1.251,-1.2113,-1.2268,-1.294,-1.2858,-1.3228,0.0,0.0,0.0,0.0,0.0,0.0,0.0,0.0,0.0,0.0,0.0,0.0,0.0,0.0,0.0,-3.3003,-3.4275,-3.5473,-3.7178,-3.8057,-3.8991,-4.0238,-4.0409,-4.0619,-4.1172,-4.1238,-4.114,-4.0896,-4.0063,-3.946,-3.9131,-3.8014,-3.723,-3.694,-3.6585,-3.6227,-3.5911,-3.5847,-3.5527,-3.4888,0.0,0.0,-3.3879,-3.3322,-3.293,-3.266,-3.2293,-3.2048,-3.1912,-3.1981,-3.1268,-3.0095,-3.024,-2.9905,-2.9262,-2.8996,-2.7979,-2.6668,-2.6435,-2.5414,-2.4196,-2.3889,-2.3217,-2.2395,-2.1648,-2.1158,0.0,-1.9393,-1.8814,-1.8379,-1.7555,-1.7185,-1.696,-1.6867,-1.6663,-1.6522,-1.6522,-1.6306,-1.6054,-1.5957,-1.5758,-1.5513,-1.5289,-1.5501,-1.5613,-1.5334,-1.504,-1.4789,-1.4558,-1.4197,-1.3939,-1.3915,-1.3692,-1.361,-1.3858,-1.3739,-1.3739,-1.3858,-1.3443,-1.3108,-1.292,-1.2764,-1.2618,-1.251,-1.2289,-1.215,-1.2051,-1.1988,-1.2228,-1.2665,-1.2748,-1.3077,0.0,0.0,0.0,0.0,0.0,0.0,0.0,0.0,0.0,0.0,0.0,-2.7106,0.0,0.0,-3.1291,-3.3403,-3.4761,-3.5963,-3.7169,-3.7773,-3.8456,-3.9396,-3.9556,-3.9687,-3.9865,-3.9813,-3.9613,-3.9237,-3.8635,-3.8132,-3.7711,-3.7047,-3.6554,-3.6273,-3.6053,-3.5799,-3.5444,-3.5115,-3.4722,-3.425,-3.4001,-3.3571,-3.2885,-3.2602,-3.2303,-3.1974,-3.1674,-3.1539,-3.1495,-3.068,-2.9663,-2.8621,-2.8281,-2.8103,-2.7965,-2.7806,-2.6861,-2.5629,-2.516,-2.418,-2.3066,-2.2636,-2.1906,-2.1109,-2.0646,-2.0117,-1.9482,-1.8486,-1.8083,-1.7778,-1.7051,-1.6748,-1.6641,-1.6577,-1.6383,-1.6175,-1.611,-1.5856,-1.5613,-1.5468,-1.5176,-1.4903,-1.4686,-1.4686,-1.4709,-1.4743,-1.4455,-1.4199,-1.4012,-1.3763,-1.3563,-1.3515,-1.3386,-1.3338,-1.3491,-1.3382,-1.3286,-1.3248,-1.2817,-1.2427,-1.22,-1.2002,-1.1902,-1.1902,-1.1778,-1.1703,-1.1703,-1.1757,-1.2003,-1.2398,-1.2558,-1.2864,0.0,0.0,0.0,0.0,0.0,0.0,0.0,0.0,-2.5982,-2.6614,-2.7363,-2.821,-2.9135,-3.0921,-3.2606,-3.3643,-3.4965,-3.6155,-3.6991,-3.7154,-3.7398,-3.7963,-3.8402,-3.8595,-3.8483,-3.8286,-3.7956,-3.746,-3.7252,-3.6967,-3.6492,-3.632,-3.6115,-3.5814,-3.5518,-3.525,-3.4955,-3.4305,-3.3856,-3.361,-3.3234,-3.2703,-3.2079,-3.2184,-3.1916,-3.1351,-3.1057,-3.0851,-3.0601,-2.897,-2.7936,-2.7209,-2.639,-2.6336,-2.6695,-2.6535,-2.5802,-2.4749,-2.39,-2.3025,-2.2149,-2.1572,-2.0777,-2.0046,-1.9893,-1.9235,-1.8409,-1.7784,-1.7466,-1.7223,-1.6725,-1.6448,-1.6328,-1.6284,-1.6066,-1.5812,-1.5669,-1.5367,-1.5074,-1.4915,-1.4535,-1.421,-1.4059,-1.3907,-1.3878,-1.415,-1.3905,-1.3644,-1.3539,-1.342,-1.33,-1.3218,-1.3194,-1.318,-1.3132,-1.3021,-1.2837,-1.2603,-1.22,-1.1852,-1.1594,-1.1343,-1.1267,-1.1377,-1.1276,-1.1276,-1.1377,-1.1572,-1.1835,-1.2184,-1.2398,-1.2642,-2.3068,-2.3305,-2.3658,-2.4306,-2.4993,-2.5589,0.0,0.0,-2.7932,-2.793,-2.8557,-2.9372,-3.0163,-3.1125,-3.2261,-3.3665,-3.4516,-3.5278,-3.5979,-3.5815,-3.5747,-3.6002,-3.73,-3.8144,-3.8001,-3.7783,-3.7431,-3.6845,-3.6492,-3.6086,-3.5561,-3.5412,-3.5246,-3.5034,-3.4472,-3.4177,-3.4144,-3.3465,-3.2845,-3.2208,-3.2179,-3.1825,-3.122,-3.125,-3.1117,-3.0822,-2.9972,-2.9247,-2.8555,-2.7456,-2.6821,-2.644,-2.5633,-2.5175,-2.4981,-2.502,-2.4476,-2.3554,-2.2567,-2.1683,-2.0938,-2.0636,-2.0132,-1.9525,-1.8834,-1.8111,-1.7418,-1.6751,-1.6483,-1.6339,-1.6278,-1.6166,-1.6022,-1.5903,-1.5613,-1.5311,-1.5062,-1.4731,-1.4443,-1.4165,-1.3894,-1.3644,-1.3505,-1.3619,-1.3676,-1.3529,-1.3362,-1.3266,-1.3242,-1.3176,-1.3162,-1.3194,-1.3152,-1.3051,-1.2944,-1.2798,-1.2578,-1.22,-1.1803,-1.1452,-1.1175,-1.1023,-1.0947,-1.0972,-1.0947,-1.0947,-1.0972,-1.1637,-1.1967,-1.2025,-1.2395,-1.252,-2.3135,-2.3385,-2.3746,-2.4485,-2.5121,-2.5708,-2.6184,-2.6931,-2.7645,-2.7974,-2.8294,-2.8904,-3.0033,-3.0876,-3.1812,0.0,-3.3929,-3.4483,-3.4752,-3.4827,-3.4653,-3.4073,-3.5184,-3.62,-3.6681,-3.6477,-3.6273,-3.6118,-3.5831,-3.5477,-3.5136,-3.5067,-3.4838,-3.4389,-3.4142,-3.3768,-3.3304,-3.2629,-3.2097,-3.1727,-3.1438,-3.1174,-3.091,-3.0558,-2.9959,-2.9145,-2.8595,-2.7806,-2.6856,-2.6289,-2.5714,-2.5104,-2.4369,-2.4002,-2.3891,-2.4081,-2.3609,-2.2738,-2.1891,-2.1043,-2.0321,-2.0207,-1.9445,-1.849,-1.8158,-1.7311,-1.6416,-1.614,-1.6013,-1.5947,-1.5869,-1.578,-1.5669,-1.5446,-1.5119,-1.4766,-1.4547,-1.4199,-1.3871,-1.3695,-1.3478,-1.3282,-1.3234,-1.3422,-1.3523,-1.3377,-1.3372,-1.3372,-1.3372,-1.315,-1.3002,-1.3031,-1.292,-1.2808,-1.2676,-1.2406,-1.2051,-1.1653,-1.1396,-1.1085,-1.0658,-1.0739,-1.0747,-1.0675,-1.0744,-1.082,-1.0896,-1.1442,-1.1708,-1.1732,-1.1986,-1.1934,-2.3216,-2.3635,-2.4066,-2.4822,-2.5437,-2.5977,-2.6376,-2.6861,-2.7272,-2.7552,-2.7729,-2.8123,-2.9139,-3.0031,-3.0998,-3.2112,-3.3155,-3.3789,-3.3566,-3.3792,-3.3585,-3.2377,-3.291,-3.3672,-3.4537,-3.4848,-3.5095,-3.526,-3.4981,-3.4791,-3.4754,-3.4593,-3.4332,-3.3862,-3.3495,-3.302,-3.2455,-3.1784,-3.1387,-3.125,-3.086,-3.057,-3.0381,-2.9595,-2.8612,-2.7497,-2.7162,-2.6407,-2.5356,-2.496,-2.4421,-2.3744,-2.3054,-2.279,-2.2736,-2.2737,-2.2465,-2.1981,-2.1172,-2.0462,-1.9888,-1.9746,-1.8796,-1.7617,-1.7497,-1.6608,-1.5592,-1.5513,-1.5501,-1.5479,-1.5378,-1.5277,-1.5153,-1.4903,-1.4547,-1.4199,-1.3954,-1.3658,-1.3358,-1.3228,-1.3055,-1.2969,-1.3086,-1.3348,-1.3565,-1.3576,-1.3647,-1.3688,-1.3572,-1.3301,-1.3059,-1.2918,-1.28,-1.2628,-1.2317,-1.1952,-1.1588,-1.1268,-1.1074,-1.0835,-1.0508,-1.0586,-1.0601,-1.0491,-1.0484,-1.0539,-1.0641,-1.1142,-1.1349,-1.1308,-1.1556,-1.1365,-2.3366,-2.411,-2.483,-2.5574,-2.6174,-2.6688,-2.7081,-2.7428,-2.749,-2.6792,-2.6991,-2.7338,-2.7381,-2.8512,-2.9665,-3.0387,-3.2188,-3.3253,-3.2453,-3.2576,-3.2284,-3.0997,-3.06,-3.0682,0.0,-3.3005,-3.4091,-3.4237,-3.3944,-3.393,-3.437,-3.3867,-3.3518,-3.3536,-3.2237,-3.1569,-3.1555,-3.0946,-3.0627,-3.0627,-3.0417,-2.9995,-2.942,-2.8147,-2.7091,-2.6234,-2.5767,-2.502,-2.4105,-2.3355,-2.2907,-2.2598,-2.1844,-2.1475,-2.1272,-2.0588,-2.0731,-2.1172,-2.0193,-1.9746,-1.9565,-1.9146,-1.8214,-1.7144,-1.6751,-1.5936,-1.5085,-1.4801,-1.4721,-1.4721,-1.4721,-1.4582,-1.4396,-1.4269,-1.3918,-1.3539,-1.329,-1.3069,-1.2881,-1.2749,-1.2603,-1.2628,-1.3026,-1.3434,-1.3815,-1.4213,-1.4279,-1.4138,-1.3741,-1.3675,-1.3478,-1.295,-1.2913,-1.2565,-1.178,-1.1469,-1.1251,-1.1126,-1.0871,-1.0782,-1.0963,-1.0675,-1.05,-1.0492,-1.0192,-1.0025,-1.0025,-1.075,-1.1014,-1.083,-1.1162,-1.0965,-2.3903,-2.4477,-2.5025,-2.606,-2.6069,-2.5916,-2.6295,-2.6054,-2.5607,-2.5282,-2.532,-2.5552,-2.5952,-2.6874,-2.7892,-2.8973,-3.0387,-3.1281,-3.1003,-3.1428,-3.1288,-2.997,-3.028,0.0,0.0,0.0,0.0,-3.302,-3.3115,-3.3231,-3.3394,-3.3193,-3.2924,-3.2507,-3.1674,-3.1027,-3.058,-3.0364,-3.0264,-3.0249,-2.9563,-2.8753,-2.7837,-2.6785,-2.5673,-2.4572,-2.3884,-2.3335,-2.2856,-2.2065,-2.1725,-2.1675,-2.0946,-2.0557,-2.0361,-1.9672,-1.9492,-1.9601,-1.9364,-1.9028,-1.8623,-1.8017,-1.7126,-1.6182,-1.5697,-1.4973,-1.4351,-1.4247,-1.4247,-1.4224,-1.4129,-1.4035,-1.3928,-1.36,-1.3362,-1.3146,-1.2924,-1.274,-1.2627,-1.2578,-1.2529,-1.2628,-1.3036,-1.3417,-1.3874,-1.437,-1.4373,-1.411,-1.3587,-1.3504,-1.3367,-1.3004,-1.2762,-1.236,-1.1678,-1.1183,-1.0817,-1.0574,-1.0476,-1.0477,-1.053,-1.0569,-1.0498,-1.0379,-1.0121,-0.9947,-0.9877,-1.0176,-1.0263,-1.0135,-1.0067,-0.9887,-2.4127,-2.481,-2.5325,-2.5823,-2.5692,-2.5409,-2.545,-2.4778,-2.4104,-2.3816,-2.354,-2.3544,-2.4141,-2.4923,-2.5931,-2.7408,-2.8929,-2.9891,-2.98,-3.0621,-3.0707,-2.9341,-2.9751,-2.9986,0.0,0.0,0.0,-3.1985,-3.2389,-3.2668,-3.2897,-3.2697,-3.2397,-3.2029,-3.1186,-3.0525,-3.008,-3.008,-2.9919,-2.9525,-2.8378,-2.732,-2.6386,-2.5453,-2.4386,-2.3244,-2.268,-2.2196,-2.1811,-2.1078,-2.0788,-2.0754,-2.0037,-1.9655,-1.9444,-1.8893,-1.8521,-1.8348,-1.8416,-1.816,-1.7706,-1.6916,-1.6173,-1.5498,-1.5056,-1.4507,-1.4017,-1.3921,-1.3782,-1.361,-1.3512,-1.344,-1.3334,-1.3084,-1.2914,-1.2793,-1.2652,-1.2643,-1.2648,-1.2648,-1.272,-1.2903,-1.3216,-1.3571,-1.3902,-1.4218,-1.418,-1.3973,-1.3595,-1.3474,-1.3251,-1.2772,-1.2465,-1.2041,-1.1338,-1.0872,-1.0594,-1.0484,-1.0415,-1.0455,-1.0569,-1.048,-1.035,-1.0239,-0.9889,-0.9662,-0.9513,-0.9688,-0.9659,-0.9463,-0.9367,-0.9146,-2.4133,-2.5149,-2.5714,-2.4994,-2.5085,-2.5166,-2.4533,-2.3723,-2.2945,-2.2413,-2.1736,-2.1434,-2.2053,-2.2805,-2.3936,-2.5728,-2.7755,-2.904,-2.889,-3.015,-3.0549,0.0,0.0,0.0,0.0,0.0,0.0,-3.1214,0.0,-3.2192,-3.2749,-3.2282,-3.1968,-3.1925,-3.0708,-3.0036,-3.0007,-2.9964,-2.9407,-2.8346,-2.6842,-2.5785,-2.5094,-2.419,-2.3198,-2.2272,-2.211,-2.1667,-2.0994,-2.0388,-2.0074,-1.9891,-1.9206,-1.8801,-1.8506,-1.8186,-1.7793,-1.7412,-1.7289,-1.713,-1.6785,-1.5898,-1.5397,-1.5096,-1.4825,-1.4414,-1.4003,-1.3735,-1.3318,-1.2958,-1.2905,-1.2793,-1.2715,-1.2715,-1.2626,-1.2537,-1.2537,-1.2713,-1.2882,-1.2882,-1.3119,-1.3359,-1.3544,-1.3803,-1.392,-1.3769,-1.3739,-1.3739,-1.3769,-1.358,-1.3134,-1.2282,-1.2073,-1.1645,-1.0768,-1.058,-1.0559,-1.0749,-1.065,-1.0737,-1.1076,-1.0434,-1.0106,-1.0106,-0.9499,-0.9106,-0.8982,-0.9268,-0.9225,-0.8851,-0.8957,-0.8692,-2.499,-2.5531,-2.5517,-2.5166,-2.477,-2.4137,-2.2977,-2.2152,-2.1475,-2.0882,-2.0687,-2.0829,-2.1561,-2.2306,-2.3307,-2.4801,-2.6553,0.0,-2.8311,-2.9695,0.0,-3.0126,0.0,-3.0898,-3.0898,-3.0866,0.0,0.0,-3.1552,-3.1476,-3.1138,-3.1434,-3.1392,-3.0898,-3.0041,-2.9361,-2.8898,-2.8088,-2.7332,-2.6697,-2.5658,-2.4862,-2.4287,-2.3498,-2.2658,-2.1758,-2.1308,-2.0815,-2.0223,-1.9459,-1.9203,-1.9194,-1.8556,-1.8159,-1.7886,-1.7446,-1.6867,-1.6228,-1.5643,-1.5706,-1.5855,-1.4779,-1.4424,-1.4284,-1.3812,-1.3533,-1.3343,-1.3266,-1.2943,-1.2627,-1.2603,-1.2807,-1.296,-1.2884,-1.2937,-1.2992,-1.2886,-1.286,-1.2824,-1.2824,-1.3036,-1.3204,-1.311,-1.3292,-1.3338,-1.2911,-1.282,-1.2911,-1.3164,-1.3056,-1.2771,-1.2181,-1.1867,-1.1456,-1.0826,-1.0567,-1.0423,-1.0433,-1.0295,-1.0431,-1.0856,-1.0285,-0.9962,-0.9962,-0.9363,-0.8877,-0.856,-0.8378,-0.8219,-0.7997,-0.767,-0.7515,-2.5199,-2.5584,-2.5529,-2.4492,-2.3931,-2.3232,-2.1756,-2.0996,-2.0462,-1.9928,-1.9691,-1.9873,-2.0838,-2.1364,-2.2241,0.0,0.0,0.0,-2.7882,-2.9442,-3.0498,0.0,-3.1092,0.0,-3.1485,-3.1485,-3.134,0.0,-3.1298,-3.1331,-3.0965,-3.1021,-3.0862,-3.0447,-2.9394,-2.8457,-2.7574,-2.6536,-2.576,-2.5318,-2.4407,-2.3682,-2.3189,-2.2537,-2.1806,-2.0983,0.0,-2.002,-1.9432,-1.8917,-1.8652,-1.8467,-1.8007,-1.7489,-1.689,-1.6494,-1.5842,-1.5073,-1.4373,-1.432,-1.4436,-1.3751,-1.371,-1.3869,-1.3559,-1.3546,-1.3608,-1.3555,-1.3175,-1.2779,-1.2728,-1.279,-1.2849,-1.2796,-1.2788,-1.2757,-1.2619,-1.2694,-1.2765,-1.2872,-1.2881,-1.2855,-1.2728,-1.2682,-1.2505,-1.2112,-1.2019,-1.1988,-1.2019,-1.2166,-1.2104,-1.1716,-1.1404,-1.1114,-1.0753,-1.0554,-1.0431,-1.0307,-1.0215,-1.0256,-1.0453,-0.9837,-0.9499,-0.9499,-0.8791,-0.8289,-0.7996,-0.7835,-0.765,-0.7379,-0.7204,-0.7086,-2.5138,-2.555,-2.5608,-2.3676,-2.3098,-2.256,-2.0853,-2.0202,-1.9826,-1.9273,-1.8873,-1.8975,-2.0196,-2.0492,-2.1316,-2.3635,0.0,-2.6202,-2.7496,-2.9246,-3.0461,-3.0531,-3.1222,-3.1657,-3.1657,-3.1587,-3.124,-3.055,-3.1002,-3.1264,-3.118,-3.0648,-3.0159,-2.9831,-2.8505,-2.7268,-2.6113,-2.5183,-2.4503,-2.4001,-2.3181,-2.2506,-2.2003,-2.1518,-2.0878,-2.0103,-1.9805,0.0,-1.8691,-1.8545,-1.819,-1.7725,-1.7396,-1.6672,-1.5777,-1.542,-1.4774,-1.3984,-1.3442,-1.3135,-1.2953,-1.2933,-1.3256,-1.3675,-1.3731,-1.3959,-1.4166,-1.4081,-1.3589,-1.3086,-1.294,-1.2756,-1.2605,-1.255,-1.2425,-1.2279,-1.2166,-1.2377,-1.2624,-1.2761,-1.2558,-1.2328,-1.2297,-1.1957,-1.1584,-1.1358,-1.124,-1.1052,-1.0737,-1.1153,-1.1341,-1.1028,-1.0807,-1.0649,-1.053,-1.053,-1.0434,-1.0244,-1.0244,-1.0149,-0.9919,-0.9296,-0.8917,-0.8851,-0.8072,-0.757,-0.7359,-0.7433,-0.727,-0.6906,-0.7081,-0.699,-2.5909,-2.5898,-2.5668,-2.4528,-2.3606,-2.2534,-2.0734,-2.008,0.0,-1.8589,-1.8794,-1.9425,-2.0324,-2.0924,-2.1804,-2.3355,-2.4419,-2.5515,-2.6793,-2.8781,-3.0289,0.0,-3.1827,-3.2506,-3.2506,-3.2048,0.0,0.0,0.0,-3.0039,-2.954,-2.9416,-2.8701,-2.7271,-2.6237,-2.534,-2.4577,-2.3705,-2.3015,-2.2566,-2.2221,-2.173,-2.1108,-2.0916,-2.0264,-1.9312,-1.9118,0.0,-1.8193,-1.7959,-1.7508,-1.694,-1.6282,-1.5538,-1.481,-1.4382,-1.3842,-1.3284,-1.3166,-1.2757,-1.2373,-1.2897,-1.3297,-1.3596,-1.3933,-1.3903,-1.3722,-1.3693,-1.3207,-1.2665,-1.2464,-1.2564,-1.2601,-1.2332,-1.2354,-1.2429,-1.2278,-1.2112,-1.1912,-1.1788,-1.1624,-1.1459,-1.1303,-1.1115,-1.0863,-1.0555,-1.0491,-1.0396,-1.0174,-1.0453,-1.0611,-1.046,-1.0269,-1.0142,-1.011,-1.011,-1.0047,-0.9894,-0.99,-0.9734,-0.9434,-0.9042,-0.8559,-0.8016,-0.7647,-0.7162,-0.6598,-0.6651,-0.661,-0.6431,-0.6502,-0.6449,-2.5776,-2.6079,-2.6072,-2.4665,-2.3742,-2.2684,-2.0671,-1.9943,-1.9489,-1.8728,-1.8907,-1.9503,-2.0522,-2.0963,-2.1587,-2.2877,-2.3744,-2.4699,-2.5967,-2.7825,-2.9407,-3.0314,-3.1502,-3.2234,0.0,-3.1972,0.0,0.0,0.0,-2.9196,-2.9017,-2.8071,-2.6969,-2.5646,-2.487,-2.405,-2.317,-2.2634,-2.2142,-2.1675,-2.1311,-2.0827,-2.0255,-1.973,-1.914,-1.8509,-1.8222,0.0,-1.7501,-1.6961,-1.6521,-1.6041,-1.5246,-1.4463,-1.3799,-1.3511,-1.302,-1.2487,-1.2487,-1.2157,-1.1865,-1.2328,-1.2725,-1.3067,-1.3256,-1.3427,-1.3532,-1.3473,-1.3088,-1.263,-1.2372,-1.2176,-1.201,-1.1806,-1.1682,-1.1615,-1.1522,-1.1341,-1.1146,-1.1038,-1.0895,-1.0744,-1.0643,-1.0428,-1.0244,-1.0053,-0.9888,-0.9754,-0.9658,-0.969,-0.9817,-1.011,-0.9989,-0.9894,-0.9894,-0.9786,-0.9626,-0.9408,-0.9318,-0.9087,-0.863,-0.8175,-0.7711,-0.7289,-0.6869,-0.6518,-0.6196,-0.6244,-0.6156,-0.5944,-0.6067,-0.6009,-2.5485,-2.6108,-2.6416,-2.4814,-2.3867,-2.2813,-2.0713,-1.99,-1.9439,-1.8971,-1.9084,-1.9582,-2.0702,-2.1006,-2.1365,0.0,-2.2903,-2.3771,-2.4819,-2.6607,-2.8236,0.0,-3.0678,0.0,-3.1391,-3.1247,0.0,0.0,0.0,0.0,-2.8049,-2.6556,-2.5284,-2.4335,-2.3766,-2.2953,-2.1906,-2.1677,-2.1296,-2.07,-2.0281,-1.9756,-1.9203,-1.8453,-1.793,-1.7579,-1.7218,0.0,0.0,-1.5966,-1.545,-1.5013,-1.4271,-1.3513,-1.2877,-1.2749,-1.2317,-1.1794,-1.1778,-1.1578,-1.1369,-1.1532,-1.1985,-1.2517,-1.253,-1.2884,-1.3238,-1.3078,-1.2781,-1.2451,-1.2128,-1.1694,-1.1296,-1.1115,-1.0839,-1.0618,-1.0586,-1.0498,-1.0434,-1.0371,-1.0244,-1.0149,-1.0149,-0.9894,-0.9702,-0.9702,-0.9408,-0.9177,-0.9177,-0.8985,-0.9017,-0.9562,-0.9606,-0.9574,-0.9574,-0.937,-0.9107,-0.8791,-0.8635,-0.8279,-0.7792,-0.7273,-0.6881,-0.6607,-0.6186,-0.5947,-0.5876,-0.5961,-0.5833,-0.5551,-0.5755,-0.5662,-2.5439,-2.5967,-2.6259,-2.556,-2.429,-2.2792,-2.1116,-2.01,-1.9373,-1.8907,-1.9306,-1.9968,-2.0762,-2.1351,-2.1562,-2.107,-2.1789,-2.2617,-2.3163,-2.5097,-2.6908,-2.8111,0.0,0.0,-3.0065,-2.9424,0.0,0.0,0.0,0.0,-2.5349,-2.473,-2.3981,-2.3087,-2.2598,-2.1851,-2.086,-2.0634,-2.0099,-1.9193,-1.9047,-1.8512,-1.7694,-1.7383,-1.6886,-1.6261,-1.6124,0.0,0.0,-1.5192,-1.4566,-1.3732,-1.3359,-1.2786,-1.2181,-1.2031,-1.1805,-1.1528,-1.1402,-1.1099,-1.0752,-1.0597,-1.126,-1.2161,-1.2287,-1.2435,-1.2544,-1.2205,-1.1872,-1.1545,-1.1202,-1.0989,-1.0769,-1.046,-1.0238,-1.0047,-0.9926,-0.9868,-0.9836,-0.9644,-0.958,-0.958,-0.958,-0.944,-0.9338,-0.9338,-0.9055,-0.8835,-0.8835,-0.8501,-0.8296,-0.8366,-0.8668,-0.8899,-0.8899,-0.8533,-0.8269,-0.8117,-0.7787,-0.7428,-0.7012,-0.6826,-0.6509,-0.5998,-0.5947,-0.5767,-0.5461,-0.5591,-0.5557,-0.5438,-0.5626,-0.5532,-2.4219,-2.5073,-2.5608,-2.5029,-2.3931,-2.2633,-2.1433,-2.0379,-1.9651,-1.955,-1.973,-2.0087,-2.0625,-2.0933,-2.0988,-2.0713,-2.0742,0.0,-2.1969,-2.3172,-2.4516,-2.6034,-2.7584,0.0,0.0,0.0,0.0,0.0,0.0,0.0,-2.3176,-2.2997,-2.2671,-2.2137,-2.1651,-2.098,-2.0115,-1.9938,-1.9373,-1.8393,-1.7993,-1.7371,-1.6647,-1.6256,-1.5782,-1.5264,-1.5206,0.0,0.0,-1.4024,-1.349,-1.2894,-1.2448,-1.2038,-1.1728,-1.1603,-1.1326,-1.0998,-1.0812,-1.0446,-1.001,-0.9855,-1.0243,-1.083,-1.1123,-1.1398,-1.1545,-1.1351,-1.1076,-1.0832,-1.0485,-1.0206,-0.9989,-0.9862,-0.9766,-0.967,-0.9644,-0.9542,-0.9472,-0.9408,-0.928,-0.9183,-0.9092,-0.9028,-0.892,-0.8689,-0.8366,-0.8107,-0.8014,-0.7679,-0.7414,-0.7414,-0.7852,-0.8117,-0.8014,-0.7754,-0.7493,-0.7232,-0.697,-0.6679,-0.6321,-0.6115,-0.5884,-0.56,-0.5596,-0.5535,-0.5407,-0.5339,-0.5244,-0.51,-0.5095,-0.499,-2.2978,-2.3882,-2.4405,-2.3908,-2.2997,-2.1967,-2.1066,-2.018,-1.957,-1.9738,-1.9786,-1.9919,-2.0394,-2.0498,-2.0421,-2.0227,0.0,-1.9941,-2.0862,-2.1483,-2.2491,0.0,0.0,-2.6336,0.0,0.0,0.0,0.0,0.0,0.0,-2.1651,-2.1381,-2.1206,-2.1124,-2.0696,-1.9983,-1.9013,-1.8817,-1.8202,-1.7214,-1.6696,-1.6168,-1.5619,-1.5232,-1.4824,-1.4478,0.0,0.0,0.0,-1.3121,-1.2654,-1.2153,-1.1708,-1.1427,-1.1251,-1.1057,-1.0727,-1.0352,-1.012,-0.9744,-0.9342,-0.9223,-0.9363,-0.9599,-0.9906,-1.0383,-1.0737,-1.0555,-1.0333,-1.0104,-0.9849,-0.9568,-0.935,-0.935,-0.935,-0.935,-0.9285,-0.9215,-0.9113,-0.9011,-0.8856,-0.8694,-0.8501,-0.8441,-0.8306,-0.7944,-0.7582,-0.7284,-0.719,-0.6793,-0.6531,-0.6531,-0.6802,-0.7068,-0.726,-0.7036,-0.6806,-0.6576,-0.6313,-0.6053,-0.5822,-0.5653,-0.5488,-0.5395,-0.5395,-0.5395,-0.5395,-0.5206,-0.5026,-0.4884,-0.4762,-0.4662,-2.202,-2.2516,-2.2639,-2.2242,-2.1482,-2.0624,-1.9812,-1.9245,-1.897,-1.9155,-1.9252,-1.9479,-2.0092,-2.0207,-2.0003,-1.933,-1.9203,0.0,-1.9761,-2.0209,-2.1129,0.0,0.0,-2.3832,0.0,0.0,0.0,0.0,0.0,0.0,-2.0924,-1.9829,-1.9471,-1.9992,-1.9701,-1.8816,-1.7341,-1.6995,-1.6365,-1.543,-1.5069,-1.4775,-1.4508,-1.4309,-1.413,0.0,0.0,0.0,0.0,-1.2665,-1.2166,-1.1477,-1.12,-1.0947,-1.0667,-1.0328,-0.9961,-0.9562,-0.9316,-0.9047,-0.8798,-0.8728,-0.871,-0.8729,-0.8804,-0.9506,-1.0238,-0.99,-0.9568,-0.9306,-0.9306,-0.9145,-0.9017,-0.9017,-0.9017,-0.8958,-0.8835,-0.8802,-0.87,-0.8301,-0.8204,-0.8102,-0.7772,-0.7614,-0.7461,-0.7237,-0.6765,-0.64,-0.64,-0.5939,-0.5617,-0.5617,-0.5491,-0.5789,-0.6642,-0.6412,-0.6214,-0.6214,-0.5815,-0.5617,-0.5617,-0.5488,-0.5395,-0.5395,-0.5395,-0.5395,-0.5395,-0.5206,-0.5026,-0.4884,-0.4762,-0.4691,-2.0527,-2.0933,-2.1095,-2.0984,-2.0406,-1.9813,-1.9737,-1.9332,-1.9021,-1.9176,-1.9215,-1.9238,-1.9253,-1.9237,-1.915,-1.8849,-1.8168,0.0,0.0,0.0,0.0,-2.0834,-2.1746,-2.2424,0.0,0.0,0.0,0.0,0.0,0.0,-1.9425,-1.8575,-1.8406,-1.9103,-1.8375,-1.7513,-1.6477,-1.6196,-1.562,-1.4795,-1.4538,-1.427,-1.4031,-1.395,0.0,0.0,0.0,0.0,0.0,-1.1663,-1.1151,-1.0582,-1.0413,-1.0182,-0.9932,-0.9718,-0.9354,-0.889,-0.8705,-0.8388,-0.8086,-0.8229,-0.8356,-0.8444,-0.8516,-0.8948,-0.9402,-0.928,-0.9119,-0.8958,-0.8958,-0.8802,-0.8673,-0.8673,-0.8565,-0.8431,-0.8398,-0.8144,-0.7884,-0.7749,-0.7423,-0.7092,-0.6859,-0.6662,-0.6441,-0.6141,-0.5881,-0.5653,-0.5514,-0.5253,-0.506,-0.506,-0.503,-0.516,-0.5583,-0.5517,-0.5388,-0.5259,-0.5123,-0.506,-0.506,-0.503,-0.4997,-0.4997,-0.4997,-0.4997,-0.4997,-0.4757,-0.452,-0.4292,-0.4248,-0.4279,-1.9318,-1.9503,-1.9517,-1.9517,-1.9097,-1.8737,-1.8959,-1.8713,-1.8467,-1.8617,-1.8635,-1.8584,-1.8421,-1.8387,-1.8352,-1.8259,-1.7534,-1.7281,0.0,0.0,0.0,-1.9668,0.0,0.0,0.0,0.0,0.0,0.0,0.0,0.0,-1.8007,-1.7223,-1.6915,-1.7269,-1.6884,-1.6322,-1.549,-1.5209,-1.4747,-1.4112,-1.3829,-1.3531,-1.3224,-1.3101,0.0,0.0,0.0,0.0,0.0,-1.0841,-1.0341,-0.981,-0.9607,-0.9373,-0.9126,-0.8909,-0.8593,-0.8256,-0.8103,-0.7901,-0.7698,-0.7926,-0.7947,-0.7871,-0.7861,-0.8318,-0.8797,-0.8727,-0.8598,-0.8474,-0.8344,-0.8149,-0.7987,-0.7917,-0.7814,-0.7679,-0.7544,-0.7288,-0.7027,-0.683,-0.6507,-0.621,-0.5939,-0.5811,-0.5617,-0.5286,-0.5093,-0.4897,-0.4725,-0.4525,-0.4428,-0.4428,-0.4428,-0.4459,-0.4589,-0.4858,-0.4927,-0.4797,-0.4797,-0.4797,-0.4797,-0.4797,-0.4797,-0.4797,-0.4797,-0.4797,-0.4797,-0.4521,-0.4254,-0.3996,-0.3996,-0.4042,0.0,-1.824,-1.8011,-1.8011,-1.7699,-1.7424,-1.7545,-1.7468,0.0,-1.7528,-1.7566,-1.7575,-1.7587,-1.76,-1.759,-1.7579,-1.7119,-1.6995,0.0,-1.7484,0.0,0.0,-1.9129,0.0,0.0,0.0,0.0,0.0,0.0,0.0,-1.6652,-1.5778,-1.5121,-1.4794,-1.5265,-1.5149,-1.4419,-1.4064,-1.3747,-1.3408,-1.2962,-1.256,-1.2243,-1.191,-1.1616,0.0,0.0,0.0,0.0,-1.0137,-0.9685,-0.9106,-0.883,-0.8573,-0.8315,-0.7984,-0.7783,-0.7645,-0.7516,-0.7489,-0.7562,-0.7677,-0.7446,-0.7082,-0.696,-0.7575,-0.8334,-0.8146,-0.7989,-0.78,-0.7484,-0.7265,-0.7036,-0.6863,-0.6793,-0.6695,-0.6367,-0.6301,-0.6137,-0.5613,-0.5517,-0.5385,-0.5087,-0.502,-0.4891,-0.4592,-0.4398,-0.4197,-0.3995,-0.3892,-0.3792,-0.3792,-0.3792,-0.3792,-0.3792,-0.4361,-0.4731,-0.4731,-0.4731,-0.4731,-0.4731,-0.4731,-0.4731,-0.4731,-0.4731,-0.4722,-0.4701,-0.4449,-0.4225,-0.3968,-0.3968,-0.3968,-1.7022,0.0,-1.7106,-1.7106,-1.6603,-1.6172,0.0,-1.5971,-1.5774,-1.6217,-1.6231,-1.6233,-1.6451,-1.6475,-1.6438,-1.6343,-1.6005,-1.5912,-1.6412,0.0,0.0,-1.7384,0.0,0.0,0.0,0.0,0.0,0.0,0.0,-1.5545,-1.5349,-1.4452,-1.3852,-1.367,-1.3648,-1.3605,-1.3571,-1.3089,-1.2798,-1.273,-1.2258,-1.1943,-1.1736,-1.147,-1.1177,0.0,0.0,0.0,-0.9508,-0.9039,-0.8672,-0.8401,-0.8196,-0.801,-0.783,-0.7676,-0.7531,-0.7421,-0.7135,-0.7086,-0.7116,-0.6927,-0.6599,-0.6265,-0.6134,-0.6509,-0.6986,-0.7052,-0.6845,-0.6621,-0.6661,-0.6305,-0.598,-0.591,-0.5712,-0.5514,-0.5418,-0.5219,-0.4987,-0.4858,-0.4592,-0.4359,-0.4259,-0.4159,-0.4092,-0.3992,-0.3959,-0.3892,-0.3859,-0.3825,-0.3792,-0.3792,-0.3792,-0.3792,-0.3792,-0.3959,-0.4025,-0.4025,-0.4025,-0.4025,-0.4025,-0.4025,-0.4025,-0.4025,-0.4025,-0.3944,-0.3742,-0.3815,-0.3757,-0.3552,-0.3638,-0.3694,-1.6063,-1.6255,-1.6495,-1.6495,-1.6072,-1.5604,-1.5437,-1.5122,-1.4864,-1.4931,-1.4946,-1.5023,-1.5148,-1.5274,-1.5352,-1.5264,-1.5167,0.0,0.0,0.0,-1.6415,-1.6476,0.0,0.0,0.0,0.0,0.0,0.0,0.0,-1.4048,-1.3691,-1.3057,-1.2649,-1.2492,-1.2263,-1.2435,-1.3064,-1.2783,-1.2535,-1.2326,-1.1692,-1.1213,-1.0857,-1.032,-0.9907,0.0,0.0,0.0,-0.8544,-0.8211,-0.7916,-0.7681,-0.7563,-0.7348,-0.7106,-0.7031,-0.6937,-0.682,-0.6559,-0.6431,-0.6306,-0.6059,-0.5685,-0.532,-0.5099,-0.5089,-0.5262,-0.5763,-0.5761,-0.5608,-0.557,-0.5348,-0.512,-0.5017,-0.4851,-0.4722,-0.4625,-0.4459,-0.4295,-0.4259,-0.4059,-0.3892,-0.3892,-0.3859,-0.3758,-0.3661,-0.3661,-0.3627,-0.3527,-0.3527,-0.3527,-0.3527,-0.3527,-0.3527,-0.3527,-0.3484,-0.3577,-0.3789,-0.3749,-0.3744,-0.3789,-0.3792,-0.3792,-0.3792,-0.3746,-0.3611,-0.3388,-0.3492,-0.3441,-0.3272,-0.333,-0.3413,-1.5312,-1.5486,-1.5758,-1.5805,-1.5506,-1.51,-1.4619,-1.4364,-1.409,-1.3698,0.0,-1.3862,-1.3891,-1.41,0.0,0.0,0.0,0.0,-1.5151,-1.5228,-1.5293,0.0,0.0,0.0,0.0,0.0,0.0,0.0,0.0,-1.2486,-1.2035,-1.1762,-1.154,-1.1357,-1.1145,-1.144,-1.2324,-1.2337,-1.2162,-1.176,-1.0965,-1.03,-0.9762,-0.8978,-0.8441,-0.8088,0.0,0.0,-0.7563,-0.7509,-0.7295,-0.6972,-0.695,-0.668,-0.63,-0.6245,-0.6156,-0.6052,-0.5889,-0.5637,-0.5338,-0.5092,-0.4753,-0.4367,-0.4057,-0.3746,-0.3673,-0.4464,-0.4712,-0.4686,-0.4554,-0.4459,-0.4392,-0.4223,-0.4156,-0.409,-0.3925,-0.3861,-0.3828,-0.3725,-0.3692,-0.3692,-0.3692,-0.3692,-0.3658,-0.3496,-0.3464,-0.3395,-0.3226,-0.3192,-0.3192,-0.3192,-0.3192,-0.3192,-0.3159,-0.3109,-0.3225,-0.3618,-0.3566,-0.3589,-0.3687,-0.3692,-0.3718,-0.3701,-0.3586,-0.3454,-0.3306,-0.3275,-0.3177,-0.3077,-0.3102,-0.3188,-1.4721,-1.4414,-1.4204,-1.4423,-1.3981,-1.3426,-1.3229,-1.2777,-1.2455,0.0,0.0,0.0,0.0,-1.3139,-1.3177,0.0,0.0,-1.3329,0.0,0.0,0.0,0.0,0.0,0.0,0.0,0.0,0.0,0.0,0.0,0.0,-1.1105,-1.094,-1.0803,-1.0664,-1.0606,-1.0485,-1.0261,-1.0321,-1.0303,-1.024,-0.9485,-0.9018,-0.8784,-0.816,-0.7783,-0.7574,0.0,-0.7063,-0.7009,-0.6707,-0.6485,-0.6317,-0.6213,-0.6055,-0.5855,-0.5582,-0.5505,-0.5463,-0.5124,-0.47,-0.4325,-0.4295,-0.3956,-0.3551,-0.3309,-0.3131,-0.3037,-0.3253,-0.3601,-0.3916,-0.4071,-0.3897,-0.3663,-0.3629,-0.3493,-0.336,-0.3326,-0.3326,-0.3326,-0.3293,-0.3293,-0.3293,-0.3293,-0.3293,-0.3293,-0.3261,-0.3261,-0.3228,-0.3192,-0.3192,-0.3192,-0.3192,-0.3192,-0.3159,-0.3025,-0.2912,-0.2866,-0.2882,-0.3075,-0.3197,-0.3288,-0.3293,-0.3255,-0.3208,-0.3193,-0.3074,-0.2905,-0.3004,-0.3005,-0.2942,-0.3049,-0.313,-1.3546,-1.3059,-1.2564,-1.2318,-1.2583,-1.2808,-1.2249,-1.1941,-1.1665,0.0,0.0,0.0,0.0,0.0,-1.1934,-1.1973,0.0,-1.212,0.0,0.0,0.0,0.0,0.0,0.0,0.0,0.0,0.0,0.0,0.0,0.0,-0.9881,-0.9745,-0.9581,-0.9363,-0.9173,-0.8962,-0.8669,-0.8473,-0.8705,-0.9339,-0.8684,-0.8251,-0.7978,-0.7404,-0.7052,-0.6896,0.0,-0.6413,-0.6386,-0.6082,-0.5859,-0.5687,-0.5473,-0.5285,-0.5046,-0.4717,-0.4579,-0.4507,-0.433,-0.4014,-0.3643,-0.3573,-0.3365,-0.31,-0.2942,-0.2833,-0.2805,-0.286,-0.311,-0.3368,-0.3541,-0.3462,-0.3328,-0.3328,-0.3261,-0.3192,-0.3192,-0.3192,-0.3192,-0.3192,-0.3192,-0.3192,-0.3092,-0.3092,-0.3058,-0.2956,-0.2922,-0.2889,-0.2792,-0.2758,-0.2725,-0.2656,-0.2656,-0.2622,-0.2589,-0.2456,-0.2492,-0.2754,-0.2927,-0.3082,-0.319,-0.3192,-0.3174,-0.3164,-0.3115,-0.305,-0.2968,-0.2978,-0.2992,-0.2951,-0.3008,-0.3009,-1.227,-1.176,-1.1193,-1.0517,-1.1315,-1.2073,-1.1322,-1.1126,-1.0954,0.0,0.0,0.0,0.0,-1.0505,0.0,-1.0951,-1.0982,0.0,0.0,0.0,0.0,0.0,0.0,0.0,0.0,0.0,0.0,0.0,0.0,0.0,-0.8652,-0.8546,-0.8374,-0.8137,-0.7889,-0.7676,-0.7465,-0.7074,-0.7428,-0.8483,-0.788,-0.7455,-0.7175,-0.6614,-0.6295,-0.6132,-0.5864,-0.5727,-0.5668,-0.5454,-0.5203,-0.4979,-0.4732,-0.4487,-0.42,-0.3909,-0.3703,-0.3587,-0.356,-0.3352,-0.3082,-0.2983,-0.286,-0.2719,-0.2607,-0.2577,-0.2605,-0.2691,-0.2787,-0.2913,-0.3136,-0.3192,-0.3192,-0.3192,-0.3192,-0.3192,-0.3192,-0.3159,-0.3159,-0.3159,-0.3092,-0.2991,-0.2891,-0.2824,-0.2755,-0.2552,-0.2519,-0.2453,-0.2255,-0.2221,-0.2188,-0.2087,-0.2052,-0.2052,-0.1985,-0.1868,-0.1965,-0.2413,-0.2663,-0.2828,-0.293,-0.293,-0.293,-0.293,-0.2931,-0.2921,-0.29,-0.2927,-0.2893,-0.2862,-0.2893,-0.2829,-1.1084,-1.0755,-1.0521,-0.9827,-1.0181,-1.0558,-1.0206,-0.9996,0.0,-0.9844,0.0,0.0,0.0,-0.9506,-0.9709,-1.0053,-0.999,0.0,0.0,0.0,0.0,0.0,0.0,0.0,0.0,0.0,0.0,0.0,0.0,0.0,-0.7605,-0.7607,-0.7538,-0.7392,-0.7361,-0.7149,-0.6776,-0.6436,-0.6576,-0.7215,-0.6618,-0.6309,-0.6282,-0.5668,-0.5386,-0.5363,-0.5089,-0.4897,-0.4783,-0.4625,-0.438,-0.4076,-0.3935,-0.3716,-0.3441,-0.3251,-0.3086,-0.2949,-0.2819,-0.2689,-0.2554,-0.2557,-0.241,-0.224,-0.224,-0.224,-0.2268,-0.238,-0.2445,-0.2555,-0.3004,-0.3092,-0.3125,-0.3192,-0.3192,-0.3192,-0.3192,-0.3092,-0.3023,-0.3023,-0.2725,-0.2456,-0.2456,-0.2356,-0.2186,-0.1985,-0.1951,-0.1883,-0.1681,-0.1648,-0.1648,-0.1648,-0.1648,-0.158,-0.1379,-0.1244,-0.1224,-0.1385,-0.1872,-0.2166,-0.2166,-0.2166,-0.2134,-0.2102,-0.2259,-0.2321,-0.2257,-0.2562,-0.2622,-0.2436,-0.2622,-0.2557,-0.9498,-0.9126,-0.8828,-0.8165,-0.8298,0.0,0.0,-0.8926,-0.8797,-0.8689,-0.8624,0.0,0.0,0.0,-0.8533,-0.8998,0.0,0.0,0.0,0.0,0.0,0.0,0.0,0.0,0.0,0.0,0.0,0.0,0.0,0.0,0.0,-0.6814,-0.6581,-0.6376,-0.6292,-0.6101,-0.5832,-0.5532,-0.5473,-0.5614,-0.5532,-0.5477,-0.5391,-0.4979,-0.4732,-0.4591,-0.4319,-0.4181,-0.4125,-0.391,-0.3747,-0.3608,-0.333,-0.3079,-0.2828,-0.2742,-0.2603,-0.2462,-0.2408,-0.2352,-0.2298,-0.2216,-0.2132,-0.2048,-0.1878,-0.1822,-0.1822,-0.1738,-0.171,-0.1871,-0.2589,-0.2709,-0.2622,-0.2686,-0.2654,-0.2589,-0.2589,-0.2522,-0.2455,-0.2353,-0.2186,-0.1985,-0.1648,-0.1614,-0.1513,-0.1076,-0.1143,-0.1109,-0.084,-0.0806,-0.0739,-0.0605,-0.0605,-0.0571,-0.0504,-0.0459,-0.0448,-0.0502,-0.1191,-0.1675,-0.1771,-0.1804,-0.1787,-0.1754,-0.1821,-0.191,-0.2019,-0.2151,-0.2216,-0.2281,-0.2216,-0.2033,-0.8232,-0.7803,-0.7451,-0.6901,0.0,0.0,-0.7479,-0.7642,-0.7717,-0.7591,-0.7526,-0.7496,-0.7469,0.0,0.0,0.0,0.0,0.0,0.0,0.0,0.0,0.0,0.0,0.0,0.0,0.0,0.0,0.0,0.0,0.0,0.0,-0.5991,-0.5755,-0.5513,-0.5434,-0.5297,-0.5124,-0.4818,-0.4598,-0.4467,-0.4443,-0.4467,-0.4543,-0.4267,-0.4073,-0.3932,-0.3627,-0.3491,-0.3438,-0.3216,-0.3079,-0.2996,-0.2772,-0.2577,-0.2408,-0.2352,-0.224,-0.2074,-0.2017,-0.1933,-0.1849,-0.174,-0.1657,-0.1543,-0.1375,-0.1262,-0.1178,-0.1066,-0.101,-0.115,-0.1737,-0.1971,-0.2052,-0.2048,-0.1983,-0.1918,-0.185,-0.1817,-0.1715,-0.1513,-0.1379,-0.1176,-0.0739,-0.0706,-0.0571,-0.0168,-0.0202,-0.0202,0.0101,0.0134,0.0202,0.0336,0.0336,0.0335,0.0332,0.0323,0.0314,0.0274,-0.0271,-0.0762,-0.1078,-0.1081,-0.11,-0.1109,-0.1143,-0.1244,-0.1379,-0.158,-0.1681,-0.1749,-0.1681,-0.1497,-0.7351,-0.69,-0.6634,-0.6368,0.0,0.0,-0.5646,-0.6145,-0.6675,-0.6675,-0.6544,-0.642,-0.6484,0.0,0.0,0.0,0.0,0.0,0.0,0.0,0.0,0.0,0.0,0.0,0.0,0.0,0.0,0.0,0.0,0.0,0.0,-0.5085,-0.5038,-0.4879,-0.4879,-0.4823,-0.4678,-0.4353,-0.4125,-0.399,-0.3318,-0.327,-0.3793,-0.3519,-0.3383,-0.3383,-0.3044,-0.2824,-0.2691,-0.2549,-0.238,-0.2184,-0.2184,-0.2184,-0.2183,-0.2043,-0.1905,-0.1769,-0.1629,-0.1375,-0.1094,-0.1094,-0.0898,-0.0701,-0.0701,-0.0561,-0.0393,-0.0393,-0.0393,-0.0364,-0.0308,-0.0893,-0.1444,-0.131,-0.1276,-0.1244,-0.1109,-0.0941,-0.0739,-0.0538,-0.0235,0.0067,0.0269,0.0403,0.0571,0.0773,0.0806,0.0874,0.1076,0.1109,0.1109,0.1109,0.1109,0.1063,0.1001,0.1005,0.0975,0.0916,0.0915,0.0636,0.0031,0.0,0.0,0.0,-0.0202,-0.0302,-0.0302,-0.0807,-0.0975,-0.0806,-0.1008,-0.0874,-0.6278,-0.5872,-0.5708,-0.5346,0.0,0.0,0.0,-0.5425,0.0,0.0,-0.5538,-0.5364,-0.5502,0.0,0.0,0.0,0.0,0.0,0.0,0.0,0.0,0.0,0.0,0.0,0.0,0.0,0.0,0.0,0.0,0.0,0.0,-0.4367,-0.4119,-0.3993,-0.3894,-0.3761,-0.3588,-0.3383,-0.3202,-0.3023,-0.2724,-0.2753,-0.3077,-0.2761,-0.261,-0.2537,-0.2456,-0.2382,-0.2324,-0.2212,-0.2015,-0.179,-0.179,-0.1624,-0.1401,-0.1286,-0.1147,-0.101,-0.0814,-0.0701,-0.0589,-0.0393,-0.028,-0.014,0.0196,0.0336,0.0393,0.0477,0.0505,0.0533,0.0533,0.0354,0.0093,-0.0248,-0.0223,-0.0098,-0.0065,0.0033,0.0168,0.037,0.0504,0.0672,0.0941,0.0975,0.1008,0.1311,0.1244,0.121,0.1412,0.1446,0.1446,0.1446,0.1446,0.1441,0.1429,0.1367,0.1354,0.1311,0.1245,0.103,0.0656,0.0671,0.0691,0.0717,0.0698,0.0605,0.047,0.0302,0.0134,-0.0034,0.0,0.0034,-0.5681,-0.5253,-0.504,-0.4771,-0.4766,-0.4728,-0.4528,0.0,0.0,0.0,-0.4874,-0.4698,-0.4644,-0.451,0.0,0.0,0.0,0.0,0.0,0.0,0.0,0.0,0.0,0.0,0.0,0.0,0.0,0.0,0.0,0.0,0.0,-0.368,-0.3428,-0.3236,-0.3107,-0.2974,-0.286,-0.2601,-0.2391,-0.2287,-0.1993,-0.1938,-0.209,-0.2125,-0.2117,-0.2084,-0.1902,-0.1792,-0.1668,-0.1527,-0.1399,-0.1236,-0.1141,-0.0972,-0.0771,-0.0613,-0.0416,-0.0248,-0.0028,0.0084,0.014,0.0364,0.0476,0.0588,0.0952,0.1092,0.1148,0.1232,0.1205,0.1178,0.1233,0.1229,0.1084,0.0625,0.0616,0.0731,0.0835,0.0881,0.0962,0.1208,0.1244,0.1311,0.1614,0.158,0.1614,0.1817,0.1748,0.1715,0.1817,0.185,0.185,0.185,0.185,0.1842,0.1788,0.1745,0.1689,0.1668,0.156,0.1416,0.1271,0.1193,0.1169,0.1171,0.1193,0.1177,0.109,0.1024,0.0897,0.0706,0.0773,0.0773,-0.5464,-0.4935,-0.456,-0.456,-0.4395,0.0,-0.4028,-0.4353,-0.4646,-0.4544,0.0,-0.4216,-0.3908,0.0,0.0,0.0,0.0,0.0,0.0,0.0,0.0,0.0,0.0,0.0,0.0,0.0,0.0,0.0,0.0,0.0,0.0,-0.2991,-0.285,-0.2569,-0.2462,-0.2382,-0.2326,-0.1903,-0.1703,-0.1664,-0.1178,-0.0937,-0.0972,-0.1525,-0.1779,-0.176,-0.1385,-0.1084,-0.0809,-0.0706,-0.0611,-0.0561,-0.0386,-0.0274,-0.0187,0.0028,0.0273,0.0506,0.0717,0.0865,0.1005,0.1149,0.126,0.1398,0.1593,0.1734,0.1846,0.1846,0.1737,0.1684,0.1792,0.1737,0.1587,0.1356,0.1271,0.1301,0.1493,0.154,0.1623,0.1867,0.1914,0.1985,0.2154,0.2188,0.2188,0.2188,0.2188,0.2188,0.2188,0.2188,0.2188,0.2188,0.2188,0.2165,0.2109,0.2042,0.1981,0.193,0.1839,0.1807,0.1812,0.157,0.1434,0.1445,0.1449,0.147,0.1539,0.1411,0.1368,0.1339,0.1339,0.1341,-0.5092,-0.4634,-0.4341,-0.4166,-0.4028,-0.3892,-0.3859,-0.3863,-0.3836,-0.3836,-0.3714,-0.3572,-0.3463,0.0,0.0,0.0,0.0,0.0,0.0,0.0,0.0,0.0,0.0,0.0,0.0,0.0,0.0,0.0,0.0,0.0,-0.2238,-0.2125,-0.1928,-0.162,-0.1568,-0.1402,-0.1093,-0.0981,-0.087,0.0,-0.0582,-0.0535,-0.0544,-0.0827,-0.0938,-0.0869,-0.0722,-0.0529,-0.0277,-0.0229,0.0,0.032,0.0376,0.0456,0.0586,0.086,0.0948,0.1,0.1358,0.151,0.157,0.175,0.182,0.1874,0.2015,0.2099,0.2127,0.2127,0.21,0.2073,0.2099,0.21,0.2049,0.2013,0.1861,0.1756,0.1797,0.1901,0.2002,0.2047,0.2088,0.2154,0.2188,0.2188,0.2188,0.2188,0.2188,0.2188,0.2188,0.2188,0.2188,0.2188,0.2188,0.2182,0.217,0.2066,0.2017,0.2053,0.1952,0.1914,0.1962,0.1841,0.18,0.1783,0.1857,0.1887,0.1897,0.1866,0.1801,0.1691,0.1691,0.1646,-0.4861,-0.4452,-0.412,-0.3946,0.0,-0.3627,-0.3458,-0.3252,-0.3079,-0.2878,-0.3015,-0.3085,0.0,0.0,0.0,0.0,0.0,0.0,0.0,0.0,0.0,0.0,0.0,0.0,0.0,0.0,0.0,0.0,0.0,-0.1511,-0.1372,-0.1316,-0.1148,-0.0868,-0.0756,-0.0589,-0.0364,-0.014,0.0027,0.0129,0.0153,0.017,0.0112,-0.0224,-0.0249,-0.0069,0.0024,0.0191,0.0382,0.0511,0.072,0.0939,0.1078,0.1174,0.1272,0.15,0.1559,0.1577,0.1851,0.1937,0.1971,0.2171,0.2296,0.2352,0.2493,0.2575,0.2631,0.2549,0.2493,0.2437,0.2352,0.2268,0.2212,0.2212,0.2128,0.2048,0.2081,0.2083,0.2118,0.218,0.2186,0.2153,0.2182,0.2188,0.2188,0.2188,0.2188,0.2188,0.2188,0.2188,0.2188,0.2188,0.2188,0.2188,0.2188,0.21,0.2062,0.2094,0.2008,0.1969,0.2001,0.1972,0.1941,0.1911,0.1943,0.1959,0.1959,0.1959,0.1943,0.1934,0.1934,0.1932,-0.4722,-0.4179,-0.3794,-0.3658,-0.3426,0.0,-0.2872,-0.261,-0.231,-0.1938,-0.2304,0.0,0.0,0.0,0.0,0.0,0.0,0.0,0.0,0.0,0.0,0.0,0.0,0.0,0.0,0.0,0.0,0.0,0.0,-0.0755,-0.0533,-0.0505,-0.0421,-0.0224,0.0,0.014,0.0196,0.0589,0.0772,0.0798,0.0867,0.087,0.0817,0.0449,0.0403,0.0604,0.0738,0.0895,0.1033,0.1254,0.1372,0.1416,0.1673,0.1757,0.1779,0.2013,0.2108,0.2116,0.2309,0.2386,0.2415,0.2627,0.2745,0.283,0.2942,0.3051,0.3077,0.297,0.2858,0.2745,0.2633,0.2491,0.235,0.2406,0.2406,0.2398,0.2291,0.2235,0.2198,0.2345,0.2322,0.229,0.2379,0.2389,0.2389,0.2389,0.2389,0.2389,0.2389,0.2389,0.2351,0.2306,0.2304,0.2271,0.2238,0.2148,0.212,0.211,0.2053,0.2023,0.2034,0.2035,0.2006,0.1944,0.1932,0.1926,0.1926,0.1926,0.1984,0.2095,0.2095,0.2128,-0.4443,0.0,-0.309,0.0,-0.2487,-0.2106,0.0,0.0,-0.1598,0.0,-0.1651,0.0,0.0,0.0,0.0,0.0,0.0,0.0,0.0,0.0,0.0,0.0,0.0,0.0,0.0,0.0,0.0,0.0,0.014,0.0224,0.0252,0.0252,0.0336,0.0561,0.0589,0.0729,0.0954,0.101,0.1103,0.1225,0.1217,0.1289,0.1393,0.139,0.1254,0.103,0.1164,0.1321,0.1502,0.1555,0.1663,0.182,0.1927,0.1948,0.2017,0.2372,0.2481,0.2484,0.2928,0.3077,0.3118,0.3382,0.3388,0.3302,0.333,0.3218,0.3102,0.3077,0.3047,0.3047,0.3019,0.2991,0.3019,0.3188,0.3246,0.3054,0.2364,0.233,0.2487,0.2628,0.2874,0.3045,0.3056,0.3058,0.3058,0.3058,0.3058,0.3058,0.3058,0.3058,0.2963,0.276,0.2718,0.2591,0.2303,0.2241,0.2188,0.2202,0.2117,0.2107,0.216,0.2163,0.2134,0.2071,0.2017,0.1991,0.1991,0.1991,0.2026,0.2095,0.2095,0.2128,-0.3678,-0.2995,-0.2437,0.0,-0.1825,-0.1437,-0.1354,-0.1074,-0.0778,-0.062,0.0,0.0,0.0,0.0,0.0,0.0,0.0,0.0,0.0,0.0,0.0,0.0,0.0,0.0,0.0,0.0,0.0,0.0,0.0757,0.0814,0.0898,0.0898,0.0954,0.1038,0.115,0.1291,0.1487,0.1569,0.168,0.1808,0.1803,0.1855,0.194,0.2052,0.1871,0.15,0.1636,0.1794,0.1951,0.2061,0.2249,0.2464,0.2607,0.2695,0.2766,0.306,0.3159,0.3206,0.3455,0.358,0.3645,0.3699,0.366,0.3605,0.3527,0.3494,0.3463,0.3413,0.3438,0.3463,0.3413,0.3438,0.3519,0.3605,0.3688,0.368,0.3431,0.3231,0.3179,0.3353,0.3522,0.3654,0.3654,0.3654,0.3623,0.3558,0.3525,0.3525,0.3525,0.3525,0.3476,0.3364,0.3261,0.3128,0.2998,0.2837,0.275,0.2753,0.2657,0.2621,0.2654,0.2423,0.2309,0.2281,0.2119,0.2038,0.2002,0.2002,0.2035,0.2095,0.2095,0.2128,-0.2915,0.0,-0.1883,-0.1598,-0.1165,-0.0799,0.0,0.0,0.0,0.0,0.0,0.0,0.0,0.0,0.0,0.0,0.0,0.0,0.0,0.0,0.0,0.0,0.0,0.0,0.0,0.0,0.0,0.0,0.129,0.1346,0.1458,0.1485,0.1486,0.1542,0.171,0.188,0.1964,0.2156,0.2292,0.2368,0.2427,0.2489,0.2577,0.2707,0.2576,0.223,0.223,0.2285,0.24,0.2551,0.2774,0.3032,0.3221,0.3363,0.3496,0.3748,0.3851,0.3934,0.4063,0.4187,0.427,0.4156,0.4073,0.3993,0.3858,0.383,0.3827,0.3777,0.383,0.391,0.3888,0.3968,0.4045,0.4101,0.4215,0.4291,0.4374,0.4204,0.4085,0.4275,0.4424,0.4483,0.4483,0.4483,0.4417,0.4289,0.4256,0.4256,0.4225,0.4192,0.4179,0.4117,0.3914,0.3779,0.368,0.3487,0.3367,0.3357,0.3257,0.319,0.3121,0.2824,0.2658,0.2591,0.2471,0.2256,0.2049,0.2049,0.2073,0.2118,0.2118,0.2143,0.0,-0.185,0.0,-0.0963,-0.0456,-0.0031,0.0,0.0,0.0,0.0,0.0,0.0,0.0,0.0,0.0,0.0,0.0,0.0,0.0,0.0,0.0,0.0,0.0,0.0,0.0,0.0,0.0,0.0,0.1769,0.1824,0.1959,0.1959,0.2015,0.2156,0.2354,0.2465,0.2465,0.2713,0.2847,0.2869,0.3047,0.321,0.3334,0.3428,0.3425,0.3386,0.3028,0.285,0.2868,0.2948,0.3089,0.3289,0.351,0.3691,0.3904,0.4297,0.4457,0.4505,0.4901,0.5042,0.5042,0.5042,0.4853,0.4632,0.4491,0.4242,0.4024,0.4138,0.4166,0.4249,0.4553,0.4636,0.4715,0.4963,0.5042,0.499,0.4733,0.491,0.5187,0.5472,0.5679,0.5789,0.5789,0.5789,0.5719,0.555,0.5517,0.5451,0.5326,0.5329,0.5206,0.4964,0.4759,0.4504,0.4179,0.399,0.3848,0.3785,0.3758,0.3656,0.3487,0.3453,0.3355,0.3159,0.3155,0.2817,0.2178,0.2178,0.2179,0.2182,0.2182,0.2185,0.0,0.0,0.0,-0.0834,-0.0289,0.0203,0.0458,0.0742,0.1024,0.0,0.0,0.0,0.0,0.0,0.0,0.0,0.0,0.0,0.0,0.0,0.0,0.0,0.0,0.0,0.0,0.0,0.0,0.0,0.0,0.2411,0.2437,0.2437,0.2519,0.2657,0.2713,0.291,0.3193,0.3461,0.3597,0.3602,0.3775,0.3944,0.4107,0.4177,0.421,0.4209,0.4149,0.3894,0.3556,0.3668,0.3952,0.4332,0.4496,0.4666,0.4815,0.4957,0.5093,0.5234,0.5371,0.5485,0.5544,0.5458,0.5211,0.4936,0.4791,0.468,0.4598,0.4625,0.4763,0.4928,0.5066,0.5179,0.5321,0.5517,0.5753,0.5931,0.5933,0.5951,0.6046,0.6264,0.6379,0.6412,0.6412,0.6412,0.6346,0.6148,0.6119,0.6083,0.6053,0.6053,0.5997,0.59,0.5636,0.5408,0.5306,0.5016,0.4841,0.4824,0.4691,0.4556,0.4359,0.4123,0.3923,0.3727,0.3627,0.3326,0.2859,0.2757,0.2723,0.2723,0.2456,0.2322,-0.2183,0.0,0.0,0.0,-0.0252,0.0308,0.0673,0.0,0.1346,0.0,0.0,0.0,0.0,0.0,0.0,0.0,0.0,0.0,0.0,0.0,0.0,0.0,0.0,0.0,0.0,0.0,0.0,0.0,0.0,0.0,0.2993,0.2993,0.313,0.3433,0.3433,0.363,0.4024,0.426,0.437,0.438,0.4512,0.4677,0.4873,0.4927,0.4916,0.4905,0.4998,0.469,0.4154,0.4352,0.4664,0.5046,0.5184,0.5319,0.5477,0.5527,0.5614,0.5732,0.5786,0.5873,0.5905,0.5786,0.5567,0.5321,0.5179,0.5093,0.5034,0.512,0.5258,0.5418,0.55,0.5673,0.5831,0.6013,0.6283,0.6569,0.675,0.6745,0.6745,0.6937,0.6966,0.6966,0.6966,0.6966,0.6905,0.6712,0.6679,0.6646,0.6581,0.6585,0.6585,0.6585,0.6317,0.6209,0.6268,0.5955,0.5782,0.5833,0.5649,0.5422,0.5193,0.4987,0.4785,0.4558,0.4525,0.4323,0.3992,0.3525,0.3224,0.3157,0.2889,0.2723,0.0,0.0,0.0,0.0,0.0,0.0,0.0785,0.0,0.1685,0.0,0.0,0.0,0.0,0.0,0.0,0.0,0.0,0.0,0.0,0.0,0.0,0.0,0.0,0.0,0.0,0.0,0.0,0.0,0.3158,0.3294,0.3627,0.3652,0.3904,0.4491,0.4519,0.4653,0.4928,0.5054,0.5113,0.5124,0.5258,0.5422,0.5622,0.5614,0.5565,0.5522,0.5522,0.5186,0.4675,0.4995,0.5203,0.534,0.5475,0.565,0.5822,0.595,0.6,0.6032,0.6146,0.6205,0.6178,0.6059,0.5923,0.5795,0.565,0.5477,0.5363,0.5563,0.5622,0.5677,0.595,0.6091,0.6252,0.6454,0.6666,0.6878,0.7147,0.7191,0.7265,0.7456,0.7489,0.7489,0.7489,0.7489,0.7423,0.7237,0.7204,0.7138,0.6946,0.6918,0.6922,0.6922,0.6824,0.6801,0.7022,0.6668,0.6505,0.671,0.6559,0.63,0.5973,0.6057,0.5987,0.5657,0.5822,0.5822,0.562,0.4425,0.3758,0.3558,0.3527,0.3431,-0.2155,0.0,0.0,0.0,0.0,0.0,0.0,0.0,0.0,0.0,0.0,0.0,0.0,0.0,0.0,0.0,0.0,0.0,0.0,0.0,0.0,0.0,0.0,0.0,0.0,0.0,0.0,0.0,0.4349,0.4457,0.4539,0.4625,0.4767,0.4932,0.5179,0.5317,0.5399,0.554,0.5618,0.5614,0.575,0.5837,0.5891,0.585,0.5806,0.5782,0.5782,0.5691,0.554,0.5527,0.5693,0.595,0.5981,0.6045,0.6096,0.6119,0.6146,0.6146,0.6178,0.6205,0.6205,0.6146,0.6059,0.595,0.5896,0.5837,0.5809,0.5864,0.595,0.6064,0.6119,0.6173,0.6252,0.6454,0.6666,0.6878,0.7147,0.7319,0.7423,0.7489,0.7489,0.7489,0.7489,0.7489,0.7493,0.7423,0.7428,0.7396,0.733,0.7465,0.7562,0.7562,0.7516,0.7521,0.7579,0.7394,0.7285,0.7337,0.729,0.7155,0.6937,0.6817,0.6641,0.6399,0.6315,0.6311,0.6395,0.544,0.484,0.4588,0.4332,0.4124,0.0,0.0,0.0,0.0,0.0,0.0,0.1038,0.1654,0.0,0.0,0.0,0.0,0.0,0.0,0.0,0.0,0.0,0.0,0.0,0.0,0.0,0.0,0.0,0.0,0.0,0.4901,0.4959,0.4959,0.5038,0.5089,0.5175,0.5321,0.543,0.5481,0.5673,0.5786,0.5845,0.5927,0.5955,0.5973,0.6059,0.6087,0.6082,0.6047,0.6017,0.6017,0.6091,0.6118,0.6118,0.6118,0.6146,0.6205,0.6205,0.6205,0.6205,0.6205,0.6205,0.6205,0.6205,0.6205,0.6205,0.6205,0.6146,0.6087,0.6087,0.6087,0.6087,0.6087,0.6146,0.6205,0.6205,0.6205,0.6276,0.6567,0.6702,0.6901,0.7251,0.7408,0.7489,0.7489,0.7489,0.7489,0.7489,0.7489,0.7489,0.7489,0.7489,0.7489,0.7489,0.7679,0.7816,0.7816,0.7892,0.7945,0.8032,0.7887,0.7842,0.7933,0.7856,0.7735,0.7517,0.7482,0.735,0.7172,0.7134,0.7134,0.7172,0.6339,0.5866,0.5737,0.5474,0.5261,0.0,0.0,0.0,0.0,0.0,0.0,0.1206,0.1818,0.2426,0.0,0.0,0.0,0.0,0.0,0.0,0.0,0.0,0.0,0.0,0.0,0.0,0.0,0.0,0.0,0.5363,0.5363,0.5391,0.5391,0.5391,0.5477,0.565,0.5791,0.59,0.6032,0.6032,0.6087,0.6205,0.6205,0.6205,0.6205,0.6205,0.6205,0.6205,0.6205,0.6205,0.6205,0.6332,0.6408,0.6408,0.6625,0.6517,0.6255,0.6255,0.6255,0.6255,0.6255,0.6255,0.6255,0.6255,0.6255,0.6255,0.6255,0.6255,0.6255,0.6255,0.6255,0.6255,0.6255,0.6228,0.6232,0.6232,0.6219,0.6337,0.6698,0.681,0.6962,0.7408,0.7489,0.7489,0.7489,0.7489,0.7489,0.7489,0.7489,0.7489,0.7489,0.7489,0.7489,0.7489,0.7679,0.7821,0.7845,0.803,0.8203,0.8415,0.8259,0.8231,0.842,0.8255,0.8079,0.7901,0.8056,0.8047,0.7873,0.8047,0.8047,0.7873,0.7128,0.6818,0.6869,0.6713,0.6617,0.0,0.0,0.0,0.0,0.0,0.0,0.1403,0.2102,0.2742,0.0,0.0,0.0,0.0,0.0,0.0,0.0,0.0,0.0,0.0,0.0,0.0,0.0,0.0,0.0,0.5691,0.5805,0.5864,0.5864,0.595,0.6037,0.6091,0.6123,0.6119,0.6146,0.6173,0.6173,0.6205,0.6205,0.6205,0.6205,0.6205,0.6205,0.6205,0.6205,0.6205,0.6205,0.6332,0.6408,0.6408,0.6625,0.6652,0.6598,0.6598,0.6598,0.6598,0.6598,0.6598,0.6598,0.6598,0.6598,0.6598,0.6598,0.6598,0.6598,0.6598,0.6598,0.6598,0.6598,0.649,0.6359,0.6359,0.6401,0.6511,0.6735,0.6979,0.7194,0.7437,0.7489,0.7489,0.7489,0.7489,0.7489,0.7489,0.7489,0.7489,0.7489,0.7489,0.7489,0.7489,0.7679,0.7878,0.8039,0.8212,0.842,0.8628,0.8604,0.8595,0.8642,0.8604,0.8581,0.8543,0.8388,0.834,0.8267,0.834,0.834,0.8267,0.7642,0.735,0.7351,0.7313,0.7303,0.0,0.0,0.0,-0.0393,0.0,0.0,0.0,0.199,0.2491,0.294,0.3272,0.3519,0.0,0.0,0.0,0.0,0.0,0.0,0.0,0.0,0.0,0.0,0.0,0.0,0.625,0.6364,0.6396,0.6218,0.62,0.6205,0.6205,0.6205,0.6205,0.6205,0.6205,0.6205,0.6205,0.6205,0.6205,0.6205,0.6205,0.6205,0.6205,0.6273,0.63,0.6309,0.6549,0.6657,0.6657,0.6901,0.7009,0.6982,0.6788,0.6701,0.6701,0.6701,0.6701,0.6701,0.6701,0.6701,0.6701,0.6701,0.6701,0.6701,0.6701,0.6701,0.6701,0.6701,0.662,0.6544,0.6544,0.6597,0.6697,0.6889,0.7125,0.7368,0.7548,0.7722,0.7847,0.7847,0.7847,0.7782,0.7554,0.7489,0.7489,0.7489,0.7489,0.7489,0.7489,0.7769,0.8001,0.8106,0.8363,0.859,0.8694,0.8703,0.8703,0.8703,0.8703,0.8703,0.8703,0.8604,0.8552,0.8552,0.8552,0.8552,0.8552,0.8253,0.8098,0.8103,0.8087,0.8093,0.0,0.0,0.0,0.0,0.0,0.0898,0.0,0.0,0.0,0.2577,0.2798,0.0,0.0,0.0,0.0,0.0,0.0,0.0,0.0,0.0,0.0,0.0,0.0,0.0,0.0,0.6841,0.6781,0.649,0.6332,0.6232,0.6205,0.6205,0.6205,0.6205,0.6205,0.6205,0.6205,0.6205,0.6205,0.6205,0.6205,0.6205,0.6205,0.6344,0.6399,0.6413,0.6739,0.6906,0.696,0.7203,0.7311,0.7311,0.6977,0.6864,0.6864,0.6864,0.6864,0.6864,0.6864,0.6864,0.6864,0.6864,0.6864,0.6864,0.6864,0.6864,0.6837,0.6815,0.6788,0.6783,0.6734,0.6845,0.7006,0.7161,0.7399,0.767,0.7854,0.8112,0.8333,0.8366,0.8366,0.8204,0.7717,0.7619,0.7591,0.7619,0.7619,0.7652,0.7689,0.8025,0.8248,0.8252,0.8599,0.8808,0.8775,0.8742,0.8742,0.8703,0.8703,0.8703,0.8703,0.8703,0.8703,0.8703,0.8703,0.8703,0.8703,0.8703,0.8703,0.8703,0.8703,0.8703,0.0,0.0,0.0,0.0,0.0533,0.0,0.0,0.0,0.2099,0.2437,0.0,0.0,0.0,0.0,0.0,0.0,0.0,0.0,0.0,0.0,0.0,0.0,0.0,0.0,0.0,0.6901,0.6825,0.6674,0.649,0.6332,0.6205,0.6205,0.6205,0.6205,0.6205,0.6205,0.6205,0.6205,0.6205,0.6205,0.6205,0.6205,0.6205,0.6332,0.6408,0.6413,0.6739,0.6955,0.7085,0.723,0.7365,0.7467,0.744,0.7408,0.7408,0.7408,0.7408,0.7408,0.7408,0.7408,0.7408,0.7408,0.7408,0.7408,0.7408,0.7408,0.7386,0.7257,0.7144,0.7031,0.6901,0.7192,0.7516,0.7542,0.7985,0.8415,0.8635,0.8705,0.8765,0.8888,0.892,0.8727,0.8204,0.8014,0.7982,0.8107,0.8102,0.8172,0.8349,0.8638,0.8809,0.8799,0.9047,0.9168,0.8965,0.8984,0.8903,0.8703,0.8703,0.8703,0.8703,0.8703,0.8703,0.8703,0.8703,0.8703,0.8703,0.8703,0.8703,0.8703,0.8703,0.8703,0.0,0.0,0.0,0.0,0.0,0.0,0.1319,0.0,0.1682,0.0,0.0,0.0,0.0,0.0,0.0,0.0,0.4181,0.0,0.0,0.0,0.0,0.0,0.0,0.0,0.0,0.0,0.0,0.0,0.6549,0.6341,0.6205,0.6205,0.6205,0.6205,0.6205,0.6205,0.6205,0.6205,0.6232,0.6319,0.6317,0.6372,0.6495,0.662,0.668,0.6712,0.7014,0.7149,0.7225,0.744,0.7568,0.7622,0.7708,0.7628,0.7494,0.7494,0.7494,0.7494,0.7494,0.7494,0.7494,0.7494,0.7542,0.7622,0.7622,0.767,0.7723,0.767,0.7616,0.7597,0.7731,0.7949,0.8155,0.8325,0.8723,0.9113,0.9177,0.9434,0.9696,0.9754,0.976,0.969,0.946,0.8947,0.8598,0.8662,0.8657,0.8776,0.9058,0.9288,0.9494,0.9628,0.9767,0.9771,0.9685,0.9582,0.9468,0.9387,0.9273,0.9127,0.8903,0.8865,0.8822,0.8703,0.8703,0.8703,0.8703,0.8703,0.8703,0.8703,0.8703,0.8703,-0.014,0.0,0.0,0.0,0.0,0.0,0.0,0.0,0.0,0.0,0.0,0.0,0.0,0.0,0.0,0.0,0.0,0.4263,0.0,0.0,0.0,0.0,0.0,0.0,0.0,0.0,0.0,0.702,0.668,0.6423,0.6264,0.6232,0.6205,0.6205,0.6205,0.6205,0.6205,0.6232,0.6292,0.6405,0.6443,0.6568,0.6696,0.6831,0.6918,0.6955,0.7203,0.7371,0.7473,0.7676,0.7809,0.7916,0.8002,0.7949,0.7783,0.7708,0.7708,0.7762,0.7762,0.7762,0.7762,0.7762,0.7836,0.7937,0.7937,0.8113,0.8276,0.8228,0.8277,0.8389,0.8655,0.8858,0.9016,0.9266,0.9606,0.9932,0.9996,1.0295,1.0586,1.0649,1.0618,1.0586,1.0586,0.9843,0.93,0.9338,0.9435,0.9581,0.9871,1.0184,1.0425,1.0581,1.0617,1.0556,1.0475,1.0255,1.0105,1.0067,0.9884,0.962,0.9322,0.9213,0.9094,0.8932,0.8818,0.8784,0.8784,0.8742,0.8703,0.8703,0.8703,0.8703,0.0,0.0,0.0,0.1206,0.0,0.0,0.0,0.0,0.1656,0.0,0.0,0.0,0.0,0.0,0.0,0.0,0.0,0.0,0.0,0.0,0.0,0.0,0.0,0.0,0.0,0.0,0.0,0.7311,0.6929,0.6615,0.6405,0.6264,0.6205,0.6205,0.6205,0.6205,0.6205,0.6319,0.6405,0.6405,0.6588,0.6703,0.6708,0.6842,0.6982,0.7112,0.723,0.7532,0.7875,0.7901,0.8082,0.8374,0.8374,0.8448,0.8521,0.8268,0.8268,0.8368,0.8368,0.8368,0.8368,0.8368,0.8474,0.8573,0.8573,0.8904,0.9233,0.9101,0.9249,0.9466,0.9537,0.9837,1.0178,1.0328,1.066,1.1021,1.1209,1.1272,1.1334,1.1529,1.1404,1.1272,1.1272,1.0534,1.0021,1.0238,1.0542,1.0791,1.0923,1.1462,1.175,1.1579,1.1614,1.1484,1.1111,1.0887,1.07,1.0475,1.0293,1.018,1.0143,0.9771,0.9587,0.9582,0.917,0.8984,0.8984,0.8784,0.8703,0.8703,0.8703,0.8703,0.0,0.0,0.154,0.1708,0.0,0.0,0.0,0.0,0.0,0.0,0.0,0.0,0.0,0.0,0.0,0.0,0.0,0.0,0.0,0.0,0.0,0.0,0.0,0.0,0.0,0.0,0.0,0.7695,0.7246,0.6847,0.6611,0.6552,0.6465,0.6346,0.6552,0.6671,0.6671,0.6785,0.6916,0.6993,0.7052,0.7197,0.7374,0.7396,0.7509,0.7637,0.7815,0.8035,0.8242,0.8315,0.8527,0.8798,0.8798,0.8923,0.9073,0.8626,0.856,0.8672,0.8672,0.8672,0.8672,0.8771,0.8896,0.9021,0.9099,0.93,0.9553,0.9774,0.9881,1.0059,1.0478,1.0692,1.085,1.1119,1.1379,1.1553,1.1615,1.1747,1.184,1.1903,1.1872,1.184,1.184,1.1483,1.1178,1.1106,1.119,1.1435,1.1943,1.2172,1.2344,1.2464,1.2355,1.2224,1.2114,1.1892,1.1706,1.1521,1.1298,1.1074,1.0812,1.0556,1.0255,0.9997,0.9733,0.9473,0.9208,0.898,0.8822,0.8703,0.8703,0.8703,0.1679,0.204,0.0,0.2543,0.2683,0.0,0.2938,0.0,0.0,0.0,0.0,0.0,0.0,0.0,0.0,0.0,0.0,0.0,0.0,0.4552,0.0,0.0,0.0,0.0,0.0,0.0,0.8006,0.8003,0.7574,0.723,0.0,0.0,0.6807,0.6732,0.6933,0.7074,0.7117,0.7236,0.736,0.744,0.7488,0.7605,0.7774,0.7833,0.7951,0.809,0.8309,0.8527,0.8685,0.8837,0.9021,0.9211,0.9211,0.9342,0.9498,0.9047,0.8975,0.9087,0.9087,0.9087,0.9113,0.9185,0.9316,0.942,0.9524,0.9709,0.9996,1.0412,1.0591,1.08,1.1376,1.1518,1.1601,1.1888,1.2027,1.2089,1.2089,1.2182,1.2282,1.2282,1.222,1.2228,1.2343,1.2209,1.2024,1.1812,1.1843,1.2066,1.2628,1.2792,1.2935,1.3098,1.2936,1.2783,1.2709,1.2599,1.2452,1.2342,1.212,1.1892,1.1632,1.1372,1.1074,1.0738,1.04,1.003,0.962,0.9284,0.9018,0.8822,0.8742,0.8703]},{"header":{"parameterUnit":"m.s-1","parameterCategory":1,"la1":30.6,"la2":29.2853,"lo1":-89.7004,"lo2":-87.6739,"dy":0.0162,"dx":0.0183,"nx":112,"ny":82,"refTime":"2023-09-12T18:00:00:Z","depth":0,"parameterNumber":3,"parameterNumberName":"V-component_of_WINDS"},"data":[0.0,0.0,0.0,0.0,0.0,0.0,0.0,0.0,0.0,0.0,0.0,0.0,0.0,0.0,0.0,0.0,0.0,0.0,0.0,0.0,0.0,0.0,0.0,0.0,0.0,0.0,0.0,0.0,0.0,0.0,0.0,0.0,0.0,0.0,0.0,0.0,0.0,0.0,0.0,0.0,0.0,0.0,0.0,0.0,0.0,0.0,0.0,0.0,0.0,0.0,0.0,0.0,0.0,0.0,0.0,0.0,0.0,0.0,0.0,0.0,0.0,0.0,0.0,0.0,0.0,0.0,0.0,0.0,0.0,0.0,0.0,0.0,0.0,0.0,0.0,0.0,0.0,0.0,0.0,0.0,0.0,0.0,0.0,0.0,0.0,0.0,0.0,0.0,0.0,0.0,1.8549,2.0197,2.2401,2.3962,2.4515,2.4304,2.3893,2.326,0.0,0.0,0.0,0.0,0.0,0.0,0.0,0.0,0.0,0.0,0.0,0.0,0.0,0.0,0.0,0.0,0.0,0.0,0.0,0.0,0.0,0.0,0.0,0.0,0.0,0.0,0.0,0.0,0.0,0.0,0.0,0.0,0.0,0.0,0.0,0.0,0.0,0.0,0.0,0.0,0.0,0.0,0.0,0.0,0.0,0.0,0.0,0.0,0.0,0.0,0.0,0.0,0.0,0.0,0.0,0.0,0.0,0.0,0.0,0.0,0.0,0.0,0.0,0.0,0.0,0.0,0.0,0.0,0.0,0.0,0.0,0.0,0.0,0.0,0.0,0.0,0.0,0.0,0.0,0.0,0.0,0.0,0.0,0.0,0.0,0.0,0.0,0.0,0.0,0.0,0.0,0.0,0.0,0.0,0.0,0.0,0.0,0.0,0.0,0.0,0.0,0.0,0.0,0.0,1.8421,2.0866,2.2535,2.3453,2.345,2.346,2.3303,2.2894,0.0,0.0,0.0,0.0,0.0,0.0,0.0,0.0,0.0,0.0,0.0,0.0,0.0,0.0,0.0,0.0,0.0,0.0,0.0,0.0,0.0,0.0,0.0,0.0,0.0,0.0,0.0,0.0,0.0,0.0,0.0,0.0,0.0,0.0,0.0,0.0,0.0,0.0,0.0,0.0,0.0,0.0,0.0,0.0,0.0,0.0,0.0,0.0,0.0,0.0,0.0,0.0,0.0,0.0,0.0,0.0,0.0,0.0,0.0,0.0,0.0,0.0,0.0,0.0,0.0,0.0,0.0,0.0,0.0,0.0,0.0,0.0,0.0,0.0,0.0,0.0,0.0,0.0,0.0,0.0,0.0,0.0,0.0,0.0,0.0,0.0,0.0,0.0,0.0,0.0,0.0,0.0,0.0,0.0,0.0,0.0,0.0,0.0,0.0,0.0,0.0,0.0,0.0,1.8189,1.9613,2.0888,2.2035,2.2606,2.2401,2.2538,2.2295,2.1443,2.1824,0.0,0.0,0.0,0.0,0.0,0.0,0.0,0.0,0.0,0.0,0.0,0.0,0.0,0.0,0.0,0.0,0.0,0.0,0.0,0.0,0.0,0.0,0.0,0.0,0.0,0.0,0.0,0.0,0.0,0.0,0.0,0.0,0.0,0.0,0.0,0.0,0.0,0.0,0.0,0.0,0.0,0.0,0.0,0.0,0.0,0.0,0.0,0.0,0.0,0.0,0.0,0.0,0.0,0.0,0.0,0.0,0.0,0.0,0.0,0.0,0.0,0.0,0.0,0.0,0.0,0.0,0.0,0.0,0.0,0.0,0.0,0.0,0.0,0.0,0.0,0.0,0.0,0.0,0.0,0.0,0.0,0.0,0.0,0.0,0.0,0.0,0.0,0.0,0.0,0.0,0.0,0.0,0.0,0.0,0.0,0.0,0.0,0.0,0.0,0.0,0.0,0.0,1.9128,2.0422,2.0548,2.1285,2.1683,2.1423,2.1707,2.1385,2.0154,2.0876,0.0,0.0,0.0,0.0,0.0,0.0,0.0,0.0,0.0,0.0,0.0,0.0,0.0,0.0,0.0,0.0,0.0,0.0,0.0,0.0,0.0,0.0,0.0,0.0,0.0,0.0,0.0,0.0,0.0,0.0,0.0,0.0,0.0,0.0,0.0,0.0,0.0,0.0,0.0,0.0,0.0,0.0,0.0,0.0,0.0,0.0,0.0,0.0,0.0,0.0,0.0,0.0,0.0,0.0,0.0,0.0,0.0,0.0,0.0,0.0,0.0,0.0,0.0,0.0,0.0,0.0,0.0,0.0,0.0,0.0,0.0,0.0,0.0,0.0,0.0,0.0,0.0,0.0,0.0,0.0,0.0,0.0,0.0,0.0,0.0,0.0,0.0,0.0,0.0,0.0,0.0,0.0,0.0,0.0,0.0,0.0,0.0,0.0,0.0,0.0,0.0,0.0,1.8646,1.9714,1.9868,2.0491,2.0799,2.0509,2.1024,2.0879,1.9802,2.0444,0.0,0.0,0.0,0.0,0.0,0.0,0.0,0.0,0.0,0.0,0.0,0.0,0.0,0.0,0.0,0.0,0.0,0.0,0.0,0.0,0.0,0.0,0.0,0.0,0.0,0.0,0.0,0.0,0.0,0.0,0.0,0.0,0.0,0.0,0.0,0.0,0.0,0.0,0.0,0.0,0.0,0.0,0.0,0.0,0.0,0.0,0.0,0.0,0.0,0.0,0.0,0.0,0.0,0.0,0.0,0.0,0.0,0.0,0.0,0.0,0.0,0.0,0.0,0.0,0.0,0.0,0.0,0.0,0.0,0.0,0.0,0.0,0.0,0.0,0.0,0.0,0.0,0.0,0.0,0.0,0.0,0.0,0.0,0.0,0.0,0.0,0.0,0.0,0.0,0.0,0.0,0.0,0.0,0.0,0.0,0.0,0.0,0.0,0.0,0.0,0.0,0.0,1.8428,1.9365,0.0,2.0017,2.0176,2.0135,2.0273,2.0039,1.9318,0.0,0.0,0.0,0.0,0.0,0.0,0.0,0.0,0.0,0.0,0.0,0.0,0.0,0.0,0.0,0.0,0.0,0.0,0.0,0.0,0.0,0.0,0.0,0.0,0.0,0.0,0.0,0.0,0.0,0.0,0.0,0.0,0.0,0.0,0.0,0.0,0.0,0.0,0.0,0.0,0.0,0.0,0.0,0.0,0.0,0.0,0.0,0.0,0.0,0.0,0.0,0.0,0.0,0.0,0.0,0.0,0.0,0.0,0.0,0.0,0.0,0.0,0.0,0.0,0.0,0.0,0.0,0.0,0.0,0.0,0.0,0.0,0.0,0.0,0.0,0.0,0.0,0.0,0.0,0.0,0.0,0.0,0.0,0.0,0.0,0.0,0.0,0.0,0.0,0.0,0.0,0.0,0.0,0.0,0.0,0.0,0.0,0.0,0.0,0.0,0.0,0.0,1.7315,1.8193,1.8939,0.0,1.9555,1.9595,1.9715,1.9626,1.9393,1.9032,0.0,0.0,0.0,0.0,0.0,0.0,0.0,0.0,0.0,0.0,0.0,0.0,0.0,0.0,0.0,0.0,0.0,0.0,0.0,0.0,0.0,0.0,0.0,0.0,0.0,0.0,0.0,0.0,0.0,0.0,0.0,0.0,0.0,0.0,0.0,0.0,0.0,0.0,0.0,0.0,0.0,0.0,0.0,0.0,0.0,0.0,0.0,0.0,0.0,0.0,0.0,0.0,0.0,0.0,0.0,0.0,0.0,0.0,0.0,0.0,0.0,0.0,0.0,0.0,0.0,0.0,0.0,0.0,0.0,0.0,0.0,0.0,0.0,0.0,0.0,0.0,0.0,0.0,0.0,0.0,0.0,0.0,0.0,0.0,0.0,0.0,0.0,0.0,0.0,0.0,0.0,0.0,0.0,0.0,0.0,0.0,0.0,0.0,0.0,0.0,0.0,0.0,1.7315,1.7869,1.8398,1.8953,1.9013,1.9052,1.9196,1.9068,1.8988,0.0,0.0,0.0,0.0,0.0,0.0,0.0,0.0,0.0,0.0,0.0,0.0,0.0,0.0,0.0,0.0,0.0,0.0,0.0,0.0,0.0,0.0,0.0,0.0,0.0,0.0,0.0,0.0,0.0,0.0,0.0,0.0,0.0,0.0,0.0,0.0,0.0,0.0,0.0,0.0,0.0,0.0,0.0,0.0,0.0,0.0,0.0,0.0,0.0,0.0,0.0,0.0,0.0,0.0,0.0,0.0,0.0,0.0,0.0,0.0,0.0,0.0,0.0,0.0,0.0,0.0,0.0,0.0,0.0,0.0,0.0,0.0,0.0,0.0,0.0,0.0,0.0,0.0,0.0,0.0,0.0,0.0,0.0,0.0,0.0,0.0,0.0,0.0,0.0,0.0,0.0,0.0,0.0,0.0,0.0,0.0,0.0,0.0,0.0,0.0,0.0,0.0,0.0,1.6763,1.7388,1.7982,1.8515,1.8993,1.9289,1.9354,1.917,1.901,1.8881,0.0,0.0,0.0,0.0,0.0,0.0,0.0,0.0,0.0,0.0,0.0,0.0,0.0,0.0,0.0,0.0,0.0,0.0,0.0,0.0,0.0,0.0,0.0,0.0,0.0,0.0,0.0,0.0,0.0,0.0,0.0,0.0,0.0,0.0,0.0,0.0,0.0,0.0,0.0,0.0,0.0,0.0,0.0,0.0,0.0,0.0,0.0,0.0,0.0,0.0,0.0,0.0,0.0,0.0,0.0,0.0,0.0,0.0,0.0,0.0,0.0,0.0,0.0,0.0,0.0,0.0,0.0,0.0,0.0,0.0,0.0,0.0,0.0,0.0,0.0,0.0,0.0,0.0,0.0,0.0,0.0,0.0,0.0,0.0,0.0,0.0,0.0,0.0,0.0,0.0,0.0,0.0,0.0,0.0,0.0,0.0,0.0,0.0,0.0,0.0,0.0,0.0,1.6696,1.7106,1.7665,1.8461,1.8968,1.9268,1.9345,1.9142,1.8939,1.8767,0.0,0.0,0.0,0.0,0.0,0.0,0.0,0.0,0.0,0.0,0.0,0.0,0.0,0.0,0.0,0.0,0.0,0.0,0.0,0.0,0.0,0.0,0.0,0.0,0.0,0.0,0.0,0.0,0.0,0.0,0.0,0.0,0.0,0.0,0.0,0.0,0.0,0.0,0.0,0.0,0.0,0.0,0.0,0.0,0.0,0.0,0.0,0.0,0.0,0.0,0.0,0.0,0.0,0.0,0.0,0.0,0.0,0.0,0.0,0.0,0.0,0.0,0.0,0.0,0.0,0.0,0.0,0.0,0.0,0.0,0.0,0.0,0.0,0.0,0.0,0.0,0.0,0.0,0.0,0.0,0.0,0.0,0.0,0.0,0.0,0.0,0.0,0.0,0.0,0.0,0.0,0.0,0.0,0.0,0.0,0.0,0.0,0.0,0.0,0.0,0.0,0.0,1.6886,1.7008,1.7497,1.856,1.8882,1.9078,1.9262,1.9019,1.8835,1.8719,0.0,0.0,0.0,0.0,0.0,0.0,0.0,0.0,0.0,0.0,0.0,0.0,0.0,0.0,0.0,0.0,0.0,0.0,0.0,0.0,0.0,0.0,0.0,0.0,0.0,0.0,0.0,0.0,0.0,0.0,0.0,0.0,0.0,0.0,0.0,0.0,0.0,0.0,0.0,0.0,0.0,0.0,0.0,0.0,0.0,0.0,0.0,0.0,0.0,0.0,0.0,0.0,0.0,0.0,0.0,0.0,0.0,0.0,0.0,0.0,1.5857,0.0,0.0,0.0,0.0,0.0,0.0,0.0,0.0,0.0,0.0,0.0,0.0,0.0,0.0,0.0,0.0,0.0,0.0,0.0,0.0,0.0,0.0,0.0,0.0,0.0,0.0,0.0,0.0,0.0,0.0,0.0,0.0,0.0,0.0,0.0,0.0,0.0,0.0,0.0,0.0,0.0,1.6511,1.7131,1.7609,1.7756,1.8508,1.9011,1.9058,1.8862,1.8728,1.8714,1.8446,0.0,0.0,0.0,0.0,0.0,0.0,0.0,0.0,0.0,0.0,0.0,0.0,0.0,0.0,0.0,0.0,0.0,0.0,0.0,0.0,0.0,0.0,0.0,0.0,0.0,0.0,0.0,0.0,0.0,0.0,0.0,0.0,0.0,0.0,0.0,0.0,0.0,0.0,0.0,0.0,0.0,0.0,0.0,0.0,0.0,0.0,0.0,0.0,0.0,0.0,0.0,0.0,0.0,0.0,0.0,0.0,0.0,0.0,0.0,0.0,1.573,0.0,0.0,0.0,0.0,0.0,0.0,0.0,0.0,0.0,0.0,0.0,0.0,0.0,0.0,0.0,0.0,0.0,0.0,0.0,0.0,0.0,0.0,0.0,0.0,0.0,0.0,0.0,0.0,0.0,0.0,0.0,0.0,0.0,0.0,0.0,0.0,0.0,0.0,0.0,0.0,1.6693,1.7153,1.7553,1.7812,1.8517,1.8945,1.8936,1.8934,1.8796,1.8481,1.8334,0.0,0.0,0.0,0.0,0.0,0.0,0.0,0.0,0.0,0.0,0.0,0.0,0.0,0.0,0.0,0.0,0.0,0.0,0.0,0.0,0.0,0.0,0.0,0.0,0.0,0.0,0.0,0.0,0.0,0.0,0.0,0.0,0.0,0.0,0.0,0.0,0.0,0.0,0.0,0.0,0.0,0.0,0.0,0.0,0.0,0.0,0.0,0.0,0.0,0.0,0.0,0.0,0.0,1.886,1.8936,1.8927,1.8629,1.8478,1.8355,1.7249,1.6473,1.5925,0.0,0.0,0.0,0.0,0.0,0.0,0.0,0.0,0.0,0.0,0.0,0.0,0.0,0.0,0.0,0.0,0.0,0.0,0.0,0.0,0.0,0.0,0.0,0.0,0.0,1.6276,1.6222,0.0,0.0,0.0,0.0,0.0,0.0,0.0,0.0,0.0,0.0,0.0,0.0,1.7094,1.722,1.7549,1.8097,1.856,1.8838,1.8852,1.9044,1.8902,1.8329,1.8301,1.8228,0.0,0.0,0.0,0.0,0.0,0.0,0.0,0.0,0.0,0.0,0.0,0.0,0.0,0.0,0.0,0.0,0.0,0.0,0.0,0.0,0.0,0.0,0.0,0.0,0.0,0.0,0.0,0.0,0.0,0.0,0.0,0.0,1.6088,1.643,0.0,0.0,0.0,0.0,0.0,0.0,0.0,0.0,0.0,0.0,0.0,0.0,0.0,1.9097,1.9498,2.0078,2.0245,2.0025,2.0566,2.0731,2.0574,2.0716,2.0688,2.0463,1.9797,0.0,1.6583,1.6531,0.0,0.0,0.0,0.0,0.0,0.0,0.0,0.0,0.0,0.0,0.0,0.0,0.0,0.0,0.0,0.0,0.0,0.0,0.0,0.0,0.0,0.0,1.6927,1.705,1.7052,1.7147,0.0,1.6736,1.5886,1.5837,1.6174,0.0,0.0,0.0,0.0,0.0,0.0,0.0,1.7447,1.7666,1.7855,1.8011,1.8339,1.859,1.8722,1.8811,1.8787,1.8634,1.8634,1.8523,1.8266,1.8386,0.0,0.0,0.0,0.0,0.0,0.0,0.0,0.0,0.0,0.0,0.0,0.0,0.0,0.0,0.0,0.0,0.0,0.0,0.0,0.0,0.0,0.0,0.0,0.0,0.0,0.0,0.0,0.0,0.0,1.6478,1.6035,1.6648,1.6744,1.6934,0.0,0.0,0.0,0.0,0.0,0.0,0.0,0.0,0.0,1.9701,2.0094,2.0535,2.1085,2.1816,2.2017,2.1703,2.2087,2.2076,2.1753,2.1613,2.1509,2.1405,2.0889,1.9876,1.8504,1.7881,1.7369,1.6912,0.0,0.0,0.0,0.0,1.7482,1.747,1.7446,1.7504,0.0,0.0,0.0,0.0,0.0,0.0,0.0,0.0,0.0,0.0,0.0,0.0,0.0,1.7952,1.7991,1.7954,1.7828,1.7413,1.6963,0.0,1.6478,1.6448,1.6679,0.0,0.0,0.0,0.0,1.7855,1.7801,1.7982,1.8135,1.8181,1.8567,1.8851,1.8879,1.904,1.9045,1.8831,1.8889,1.8817,1.8592,1.8669,1.876,0.0,0.0,0.0,0.0,0.0,0.0,0.0,0.0,0.0,0.0,0.0,0.0,0.0,0.0,0.0,0.0,0.0,0.0,0.0,0.0,0.0,0.0,0.0,0.0,0.0,0.0,0.0,0.0,1.6859,1.6694,1.7229,1.7335,1.7493,0.0,0.0,0.0,0.0,0.0,0.0,1.9282,1.9479,1.9968,2.0833,2.1457,2.2088,2.2659,2.3214,2.3355,2.3055,2.3079,2.2923,2.2555,2.225,2.2117,2.2097,2.1774,2.1164,2.0404,1.9268,1.8451,1.8012,1.8416,1.8578,1.8651,1.8847,1.8743,1.8472,1.8564,1.846,1.8337,1.8798,0.0,1.9,1.9045,0.0,0.0,0.0,0.0,1.7894,1.8493,1.856,1.8521,1.8709,1.8735,1.8619,1.8084,1.7972,1.7783,0.0,1.6767,1.661,1.6986,0.0,0.0,0.0,0.0,1.8181,1.8181,1.8299,1.8417,1.8475,1.8855,1.9097,1.9093,1.9321,1.938,1.9147,1.9269,1.925,1.9053,1.9091,1.918,1.9288,0.0,0.0,0.0,0.0,0.0,0.0,0.0,0.0,0.0,0.0,0.0,0.0,0.0,0.0,0.0,0.0,0.0,0.0,0.0,0.0,0.0,0.0,0.0,0.0,0.0,0.0,0.0,0.0,0.0,1.8432,1.8525,0.0,0.0,0.0,0.0,1.9203,1.9117,1.9406,2.0199,2.0857,2.1537,2.2337,2.3032,2.3589,2.4004,2.3839,2.3779,2.375,2.3315,2.3076,2.3047,2.3028,2.3018,2.3018,2.2833,2.2351,2.1717,2.0432,1.9621,1.9212,1.9258,1.9719,2.0343,2.018,1.9939,1.9693,1.9489,1.9281,1.9065,1.921,1.9294,1.9315,1.9507,1.9065,0.0,0.0,1.8747,1.8735,1.8798,1.8866,1.9013,1.9133,1.916,1.9105,1.8807,1.8399,1.7805,0.0,1.7066,1.7346,1.7374,0.0,1.8189,1.8279,1.8503,1.8653,1.8653,1.8673,1.875,1.8955,1.904,1.9191,1.9358,1.9578,1.9711,1.9752,1.9887,1.9887,1.9752,1.9752,1.9749,1.9762,1.9902,0.0,0.0,0.0,0.0,0.0,0.0,0.0,0.0,0.0,0.0,0.0,0.0,0.0,0.0,0.0,0.0,0.0,0.0,0.0,0.0,0.0,0.0,0.0,0.0,0.0,0.0,0.0,0.0,1.9462,1.9771,0.0,2.0269,2.0079,2.0091,2.0566,2.0537,2.0866,2.1664,2.2176,2.2891,2.3738,2.3984,2.4369,2.4985,2.4927,2.4841,2.4692,2.453,2.4287,2.3993,2.3884,2.3647,2.3333,2.329,2.2874,2.218,2.1856,2.1151,2.0296,2.0537,2.0906,2.1255,2.1304,2.1244,2.1118,2.0813,2.0563,2.039,2.0444,2.0107,1.9726,1.9974,1.9436,1.8759,1.8984,1.9052,1.9119,1.9382,1.9474,1.9578,1.9785,1.9649,1.9357,1.8953,1.8539,1.8068,1.7514,1.7444,1.7526,1.7747,1.8115,1.8439,1.8542,1.875,1.8898,1.8898,1.9036,1.9186,1.9242,1.9417,1.9599,1.9777,2.001,2.0135,2.0133,2.0254,2.0254,2.0133,2.0048,1.9995,1.9977,2.0115,2.0252,0.0,0.0,0.0,0.0,0.0,0.0,0.0,0.0,0.0,0.0,0.0,0.0,0.0,0.0,0.0,0.0,0.0,0.0,0.0,0.0,0.0,0.0,0.0,0.0,0.0,0.0,2.0547,2.1034,2.1332,2.166,2.195,2.1759,2.1815,2.2249,2.2301,2.2573,2.3287,2.3632,2.4141,2.4802,2.4838,2.5148,2.5704,2.564,2.5547,2.5388,2.5276,2.5035,2.4712,2.4615,2.4281,2.3794,2.3794,2.3389,2.2733,2.3006,2.2615,2.1829,2.1924,2.2143,2.2442,2.2536,2.2519,2.2376,2.1856,2.1471,2.1235,2.1334,2.0806,2.0152,2.0401,1.9801,1.9105,1.9289,1.9285,1.9305,1.956,1.9585,1.9569,1.9755,1.9653,1.9389,1.8935,1.8683,1.8484,1.8131,1.7908,1.7848,1.8147,1.8489,1.8736,1.887,1.9074,1.9205,1.9242,1.945,1.9596,1.9596,1.9833,2.0045,2.0131,2.0392,2.0527,2.046,2.0578,2.0578,2.0441,2.0356,2.0306,2.0306,2.051,2.0645,2.0712,0.0,0.0,0.0,0.0,0.0,0.0,0.0,0.0,0.0,0.0,0.0,0.0,0.0,0.0,0.0,0.0,0.0,0.0,0.0,0.0,0.0,0.0,0.0,2.112,2.135,2.1944,2.3099,2.3271,2.3453,2.3907,2.3784,2.3833,2.4197,2.4227,2.4436,2.4894,2.5133,2.5315,2.5543,2.5704,2.5944,2.6138,2.5951,2.586,2.5849,2.5488,2.5274,2.5274,2.5263,2.4944,2.4434,2.4424,2.4012,2.3371,2.3755,2.3944,2.3897,2.3298,2.3409,2.3934,2.3911,2.3725,2.334,2.2503,2.187,2.1459,2.1796,2.1278,2.0521,2.0734,2.0241,1.9604,1.9618,1.946,1.9314,1.9301,1.9164,1.9012,1.9035,1.918,1.9208,1.8822,1.8934,1.9015,1.8685,1.8461,1.8403,1.8592,1.8879,1.9139,1.9302,1.9483,0.0,1.9708,1.9902,2.0023,2.0023,2.0272,2.0427,2.0427,2.0663,2.0811,2.0811,2.0877,2.0844,2.0726,2.071,2.071,2.0726,2.1039,2.1246,2.1324,0.0,0.0,0.0,0.0,0.0,0.0,0.0,0.0,0.0,0.0,0.0,0.0,0.0,0.0,0.0,0.0,0.0,0.0,0.0,0.0,0.0,0.0,2.17,2.2014,2.2168,2.2692,2.4008,2.4418,2.4841,2.5283,2.5166,2.5102,2.5214,2.5169,2.5174,2.5305,2.5649,2.6045,2.6415,2.6331,2.6672,2.7415,2.7007,2.6956,2.7275,2.7138,2.7069,2.7058,2.6512,2.6029,2.553,2.4952,2.4472,2.4118,2.4262,2.4497,2.4718,2.4261,2.437,2.4707,2.4331,2.374,2.3102,2.287,2.2241,2.1584,2.1765,2.1182,2.0468,2.0715,2.0441,1.9991,1.9745,1.9709,1.9679,1.9492,1.9481,1.9539,1.9693,1.9568,1.9419,1.9369,1.9231,1.9094,1.9111,1.9176,1.9195,1.912,1.9213,1.9358,1.9501,1.9654,0.0,1.996,2.0256,2.0478,2.0578,2.073,2.0861,2.0909,2.1022,2.1071,2.1022,2.1135,2.1151,2.1071,2.1071,2.1103,2.1119,2.1324,2.1554,0.0,0.0,0.0,0.0,0.0,0.0,0.0,0.0,0.0,0.0,0.0,0.0,0.0,0.0,0.0,0.0,0.0,0.0,0.0,0.0,0.0,0.0,2.2048,2.2419,2.3062,2.3104,2.3515,2.4642,2.5024,2.5399,2.5834,2.5805,2.577,2.5861,2.5805,2.5896,2.6076,2.6214,2.6528,2.7064,2.6977,2.7277,2.8005,2.7836,2.7846,2.8103,2.8103,2.7956,2.7731,2.7329,2.6721,0.0,2.5536,2.5128,2.4791,2.4897,2.4957,0.0,0.0,0.0,0.0,0.0,2.3808,2.3262,2.2987,2.2506,2.1951,2.1774,2.1299,2.0841,2.1013,2.0875,2.0604,2.017,2.006,1.9976,1.9519,1.939,1.9384,1.9508,1.9484,1.9425,1.9464,1.9405,1.9365,1.9453,1.9636,0.0,1.9741,1.9687,1.9687,1.9795,1.9977,2.0172,2.0359,2.0663,2.0893,2.1006,2.1151,2.1246,2.123,2.1309,0.0,0.0,0.0,2.1419,2.1403,2.1449,0.0,0.0,0.0,2.1969,2.2172,0.0,0.0,0.0,2.4913,2.5858,0.0,0.0,0.0,0.0,0.0,0.0,0.0,0.0,0.0,0.0,0.0,0.0,0.0,0.0,0.0,0.0,2.2761,2.3131,2.4185,2.4169,2.4355,2.513,2.5189,2.5399,2.5879,2.592,2.601,2.628,2.6272,2.6475,2.693,0.0,0.0,0.0,0.0,2.7886,2.8327,2.8498,2.8593,2.8533,2.8533,2.8255,2.7736,2.7688,2.7144,2.6251,2.6154,2.5853,2.5418,2.5571,2.5288,2.4718,2.4412,2.4342,2.4391,2.4098,2.384,2.3517,2.2976,0.0,0.0,2.1822,2.1532,2.138,2.1367,2.1376,2.1251,2.0583,2.0338,2.0091,1.9465,1.9139,1.8969,1.8988,1.9176,1.9358,1.9358,1.9563,1.9762,1.9747,1.996,2.0185,2.0339,2.0183,2.0078,2.0168,2.0393,2.0628,2.0827,2.1087,2.1278,2.1341,0.0,0.0,2.1448,2.1557,2.1573,2.1433,2.1572,2.1694,2.1784,2.1899,2.1972,2.1986,2.2271,2.244,2.2453,2.2781,2.3692,2.5125,2.5167,2.6031,0.0,0.0,0.0,0.0,0.0,0.0,0.0,0.0,0.0,0.0,0.0,0.0,0.0,0.0,0.0,2.3217,2.3612,2.404,2.49,2.513,2.52,2.5205,2.5189,2.5443,2.6104,2.6145,2.6336,2.6749,2.6769,2.693,2.7337,2.7492,2.7801,2.8281,2.8455,2.8752,2.9145,2.9223,2.9091,2.8823,0.0,0.0,2.799,2.7591,2.7267,2.7042,2.6443,2.6126,2.6015,2.5898,2.532,2.4534,2.4324,2.4055,2.3855,2.3903,2.3477,2.2878,2.2879,2.2386,2.1786,2.1891,2.1697,2.1345,2.1134,2.1158,0.0,2.0126,1.9869,1.9795,1.9411,1.9297,1.9339,1.9446,1.9596,1.969,1.969,1.9869,2.0048,2.015,2.0306,2.0494,2.0662,2.0478,2.0393,2.0628,2.0795,2.0974,2.1183,2.145,2.1619,2.1634,2.1753,2.1781,2.1648,2.1723,2.1723,2.1648,2.1884,2.2087,2.2265,2.2332,2.2415,2.2453,2.2575,2.2672,2.2725,2.3528,2.4392,2.5265,2.5223,2.6085,0.0,0.0,0.0,0.0,0.0,0.0,0.0,0.0,0.0,0.0,0.0,2.2295,0.0,0.0,2.374,2.4436,2.5025,2.5593,2.6087,2.6143,2.5939,2.5401,2.5261,2.5345,2.5827,2.5978,2.6282,2.6841,2.699,2.7262,2.7841,2.8044,2.8367,2.8788,2.9,2.9314,2.9741,2.9465,2.9265,2.9188,2.8848,2.8357,2.7839,2.7477,2.7165,2.6889,2.6578,2.6465,2.6427,2.603,2.5446,2.477,2.4476,2.4055,2.3674,2.3801,2.3609,2.3229,2.3106,2.2697,2.2226,2.2051,2.1763,2.1481,2.1333,2.1245,2.0983,2.0174,2.0039,2.005,1.9571,1.9523,1.9614,1.9669,1.983,1.9975,2.0028,2.0204,2.0393,2.0527,2.0745,2.0942,2.1071,2.1071,2.1055,2.1055,2.123,2.1402,2.1525,2.1708,2.1811,2.184,2.1897,2.1926,2.1855,2.1945,2.2003,2.2049,2.2257,2.2477,2.2646,2.2751,2.2803,2.2803,2.2868,2.2906,2.2906,2.3841,2.4677,2.5419,2.5819,2.6669,0.0,0.0,0.0,0.0,0.0,0.0,0.0,0.0,2.2536,2.2881,2.3267,2.3566,2.3857,2.4817,2.5647,2.5873,2.6588,2.7183,2.7435,2.718,2.6676,2.597,2.5599,2.5485,2.5653,2.5946,2.6393,2.7092,2.7377,2.7794,2.8447,2.8697,2.8986,2.9326,2.9409,2.9578,2.9986,2.9364,2.9108,2.9153,2.8573,2.7992,2.7459,2.7306,2.7019,2.6658,2.6701,2.67,2.6542,2.6028,2.5598,2.5262,2.488,2.4452,2.4089,2.3945,2.3851,2.3744,2.3385,2.3075,2.2786,2.2339,2.1991,2.1685,2.1614,2.1315,2.09,2.0279,2.0271,2.0299,1.98,1.9777,1.9851,1.9887,2.0063,2.0239,2.0375,2.0579,2.0795,2.0909,2.1198,2.1418,2.1494,2.1778,2.1889,2.1481,2.1617,2.1783,2.1825,2.1899,2.1972,2.1998,2.2013,2.2044,2.2073,2.2161,2.229,2.2446,2.2646,2.2829,2.294,2.3065,2.3102,2.307,2.3119,2.3119,2.307,2.4126,2.4953,2.5544,2.6587,2.7422,2.0498,2.0258,2.0117,2.0531,2.1018,2.1615,0.0,0.0,2.4015,2.4226,2.4606,2.4975,2.531,2.5772,2.6359,2.714,2.7764,2.8313,2.8812,2.8108,2.743,2.7191,2.6545,2.6155,2.6362,2.664,2.7133,2.7891,2.8383,2.8897,2.951,2.978,3.0037,3.0254,2.9769,2.9513,2.9551,2.8963,2.8426,2.7998,2.7911,2.7604,2.708,2.7046,2.7109,2.7209,2.6987,2.6624,2.6223,2.5942,2.59,2.6039,2.5633,2.5618,2.5699,2.4641,2.4053,2.3761,2.3523,2.315,2.2749,2.2918,2.2557,2.1973,2.1618,2.1159,2.062,2.0007,1.9951,2.0043,1.9967,2.0008,2.0098,2.0218,2.0393,2.0597,2.0779,2.1039,2.1262,2.1401,2.1601,2.1783,2.1823,2.2555,2.2817,2.1969,2.1911,2.1969,2.1984,2.2092,2.2123,2.2013,2.2106,2.2211,2.2251,2.2335,2.246,2.2646,2.2855,2.3033,2.3168,2.3241,2.3277,2.3265,2.3277,2.3277,2.3265,2.4744,2.5517,2.5641,2.7277,2.812,2.0423,2.0105,2.0013,2.05,2.1079,2.1716,2.2512,2.341,2.4137,2.4532,2.4759,2.507,2.5764,2.6312,2.699,0.0,2.866,2.9063,2.929,2.8773,2.8061,2.7224,2.6816,2.6665,2.6835,2.7177,2.7771,2.8794,2.9275,2.9703,3.0075,3.0216,3.0151,2.9894,2.9613,2.9418,2.9207,2.8615,2.8273,2.8131,2.7692,2.7399,2.7167,2.6799,2.6681,2.6765,2.6841,2.6735,2.6507,2.6577,2.6512,2.6339,2.5905,2.5795,2.5845,2.5156,2.4662,2.433,2.3942,2.3524,2.3172,2.3297,2.2717,2.1939,2.1784,2.1141,2.0408,2.0154,2.0131,2.0183,2.022,2.0289,2.0375,2.0544,2.0762,2.0991,2.1166,2.1402,2.1616,2.1705,2.1886,2.2051,2.208,2.2786,2.3247,2.288,2.2815,2.2815,2.2815,2.2493,2.224,2.2178,2.2265,2.2352,2.2405,2.2555,2.2725,2.2932,2.356,2.3773,2.3454,2.391,2.3928,2.3424,2.3372,2.3336,2.3301,2.4963,2.5765,2.5819,2.7565,2.8458,2.0181,2.0053,2.0149,2.0644,2.1249,2.1942,2.2828,2.3609,2.4235,2.4537,2.4749,2.5101,2.578,2.6511,2.7304,2.8285,2.914,2.9632,2.9501,2.9182,2.8432,2.7168,2.6769,2.6724,2.6983,2.741,2.8104,2.9261,2.9745,3.0177,3.0545,3.0404,3.0108,2.9696,2.9374,2.9086,2.884,2.8244,2.8014,2.8137,2.7665,2.7345,2.7176,2.6764,2.6507,2.6437,2.6809,2.6872,2.672,2.6824,2.671,2.6428,2.5944,2.576,2.5755,2.5363,2.495,2.4519,2.4036,2.3748,2.3596,2.3689,2.2954,2.2049,2.2145,2.1353,2.0458,2.0494,2.0478,2.0495,2.0547,2.0646,2.0761,2.0942,2.1166,2.1402,2.1539,2.1751,2.1959,2.2015,2.2163,2.235,2.2552,2.3236,2.3854,2.4117,2.4122,2.4009,2.3805,2.333,2.2906,2.2717,2.2739,2.2723,2.2626,2.2777,2.3052,2.3492,2.423,2.4551,2.4311,2.4639,2.4526,2.3913,2.3617,2.3464,2.3418,2.5099,2.5947,2.6007,2.7727,2.8669,1.9737,2.0186,2.0696,2.1176,2.1768,2.2493,2.3386,2.4266,2.4753,2.4389,2.4895,2.5382,2.5422,2.6241,2.7123,2.7723,2.9109,2.9941,2.9543,2.9203,2.8562,2.7424,2.6483,2.6147,0.0,2.7207,2.7978,2.9112,2.9572,3.0151,3.0947,3.0427,3.0113,3.0064,2.9026,2.8425,2.8412,2.7803,2.7516,2.7516,2.7689,2.7485,2.6899,2.6945,2.6797,2.6522,2.6976,2.7008,2.6654,2.6225,2.6178,2.6342,2.5804,2.5706,2.5748,2.5198,2.4597,2.3984,2.3696,2.3689,2.3839,2.4177,2.3418,2.2443,2.269,2.1834,2.0811,2.0942,2.0975,2.0975,2.0975,2.1119,2.1293,2.1355,2.1586,2.1825,2.1955,2.2132,2.231,2.2363,2.2446,2.2723,2.344,2.4174,2.4923,2.5707,2.5827,2.5571,2.4853,2.4733,2.444,2.3727,2.3659,2.3447,2.2933,2.3003,2.3522,2.4485,2.4706,2.5171,2.5985,2.5301,2.4887,2.4869,2.4084,2.3689,2.3689,2.5248,2.6027,2.6146,2.7888,2.8846,2.0281,2.0539,2.0767,2.1722,2.1923,2.2134,2.301,2.3254,2.3311,2.3319,2.3508,2.3775,2.4148,2.4734,2.5502,2.6433,2.7723,2.8539,2.8409,2.861,2.8358,2.7223,2.6907,0.0,0.0,0.0,0.0,2.9086,2.9948,3.0517,3.0801,3.0616,3.0302,2.9918,2.9151,2.8556,2.8206,2.8007,2.7914,2.7901,2.775,2.7525,2.7236,2.702,2.6877,2.6757,2.6643,2.6608,2.6584,2.618,2.6006,2.5946,2.5409,2.5273,2.5256,2.4732,2.445,2.4313,2.4128,2.4245,2.4435,2.4182,2.3626,2.3003,2.2627,2.194,2.1276,2.1323,2.1323,2.1338,2.1448,2.1509,2.1602,2.1764,2.1911,2.2041,2.2217,2.2346,2.2432,2.246,2.2487,2.2723,2.3457,2.4206,2.5159,2.6535,2.6266,2.5653,2.4959,2.4871,2.4812,2.4651,2.4712,2.4522,2.3944,2.4051,2.4367,2.4835,2.5448,2.5932,2.6227,2.5916,2.5502,2.498,2.4136,2.3721,2.3772,2.4874,2.5724,2.6403,2.7658,2.8613,2.0561,2.1143,2.1534,2.2153,2.2334,2.248,2.2815,2.2655,2.2379,2.2257,2.2096,2.2148,2.271,2.319,2.397,2.5336,2.6683,2.757,2.7668,2.8305,2.8385,2.7301,2.7202,2.7118,0.0,0.0,0.0,2.8926,2.9874,3.0463,3.0677,3.049,3.021,2.9802,2.9017,2.8465,2.8112,2.8112,2.8084,2.8018,2.7464,2.726,2.7383,2.7058,2.6847,2.6739,2.6555,2.6452,2.6341,2.5856,2.5614,2.5516,2.4965,2.482,2.4887,2.4622,2.4634,2.4739,2.4273,2.4319,2.4483,2.3991,2.3698,2.347,2.3129,2.2554,2.2055,2.2116,2.195,2.1781,2.1888,2.1932,2.1974,2.2101,2.22,2.2271,2.2419,2.2692,2.2935,2.2935,2.3185,2.3642,2.4405,2.519,2.6077,2.7168,2.688,2.6348,2.5908,2.5883,2.5866,2.5757,2.5842,2.5676,2.5097,2.5153,2.542,2.5866,2.6441,2.6886,2.7177,2.6604,2.6025,2.5502,2.44,2.3839,2.392,2.4754,2.5664,2.663,2.7594,2.8572,2.0703,2.2007,2.2901,2.2505,2.2986,2.3416,2.2777,2.2414,2.2013,2.1269,2.0762,2.0654,2.125,2.1736,2.2615,2.4415,2.5995,2.708,2.7296,2.8238,2.8612,0.0,0.0,0.0,0.0,0.0,0.0,2.8728,0.0,3.0086,3.0606,3.0104,2.9811,2.9771,2.8699,2.8131,2.8105,2.8065,2.8029,2.7917,2.7019,2.6877,2.7445,2.7103,2.6804,2.6542,2.6702,2.646,2.5925,2.5234,2.5011,2.5007,2.4527,2.4446,2.467,2.4859,2.5118,2.5217,2.4182,2.396,2.4083,2.3625,2.3653,2.3869,2.4015,2.358,2.3076,2.3259,2.2779,2.222,2.2296,2.2383,2.2473,2.2473,2.2545,2.2617,2.2617,2.3233,2.3787,2.3787,2.448,2.5325,2.6088,2.6944,2.7542,2.7617,2.7632,2.7632,2.7617,2.7689,2.7536,2.7028,2.7036,2.6862,2.632,2.627,2.6636,2.7464,2.7565,2.7971,2.8761,2.7271,2.6414,2.6414,2.4827,2.4036,2.4103,2.4872,2.5782,2.684,2.7668,2.8652,2.2158,2.2988,2.3382,2.3416,2.3353,2.3056,2.2092,2.1485,2.092,2.0298,2.0021,2.0071,2.055,2.0984,2.1687,2.2976,2.4707,0.0,2.6516,2.8179,0.0,2.9029,0.0,2.9578,2.9578,2.9612,0.0,0.0,3.0138,3.0132,2.9808,3.0092,3.0051,2.9578,2.8947,2.8415,2.7967,2.7844,2.7935,2.8194,2.7696,2.7733,2.8187,2.7757,2.7364,2.699,2.655,2.5993,2.5367,2.485,2.4579,2.4512,2.4681,2.4879,2.5075,2.5384,2.5303,2.4929,2.4261,2.436,2.459,2.3538,2.3711,2.425,2.3802,2.3558,2.3464,2.3507,2.2994,2.2432,2.2446,2.2869,2.332,2.3363,2.389,2.437,2.4427,2.4639,2.4833,2.4833,2.5515,2.6196,2.644,2.7177,2.7806,2.8007,2.8049,2.8007,2.7911,2.7918,2.7942,2.8013,2.8126,2.7916,2.7223,2.7262,2.7422,2.7627,2.772,2.8086,2.8845,2.7328,2.6469,2.6469,2.4878,2.4142,2.4257,2.4506,2.5485,2.7107,2.7424,2.8418,2.3294,2.4226,2.4707,2.412,2.3826,2.3282,2.1803,2.0905,2.0196,1.9541,1.914,1.9149,1.9948,2.0274,2.0968,0.0,0.0,0.0,2.6401,2.8246,2.9515,0.0,3.0025,0.0,3.0405,3.0405,3.033,0.0,3.029,3.0256,2.9903,2.9957,2.9869,2.9596,2.8885,2.8333,2.7998,2.7781,2.7867,2.8242,2.7954,2.8036,2.8445,2.7893,2.7352,2.6857,0.0,2.5453,2.4872,2.4653,2.4584,2.4675,2.5013,2.5093,2.51,2.5339,2.5107,2.4597,2.4039,2.407,2.4205,2.3113,2.3568,2.4513,2.4149,2.4313,2.4613,2.4643,2.4139,2.3598,2.3626,2.3991,2.4358,2.4386,2.483,2.5241,2.531,2.56,2.5957,2.6318,2.6856,2.7257,2.7295,2.7747,2.8169,2.8362,2.8401,2.8414,2.8401,2.8317,2.8344,2.8549,2.8675,2.8579,2.8195,2.8228,2.8274,2.8319,2.8353,2.8566,2.9014,2.7492,2.6638,2.6638,2.5086,2.433,2.4428,2.4849,2.5824,2.7301,2.7732,2.8688,2.4381,2.555,2.6288,2.4841,2.4393,2.3773,2.1784,2.0648,1.9783,1.8981,1.8385,1.8364,1.9461,1.9746,2.0495,2.2675,0.0,2.5303,2.6495,2.8366,2.9609,2.9677,3.0283,3.0705,3.0705,3.0637,3.0433,3.0021,3.0201,3.0324,3.0242,2.9726,2.9444,2.9443,2.8505,2.8052,2.8126,2.7786,2.7817,2.8226,2.7996,2.8042,2.829,2.7728,2.7087,2.6377,2.5694,0.0,2.458,2.4666,2.4808,2.5022,2.5252,2.5129,2.4825,2.4979,2.4709,2.4222,2.3699,2.3514,2.3369,2.2686,2.349,2.4733,2.4836,2.5379,2.5956,2.6002,2.5557,2.5071,2.5125,2.5307,2.5491,2.5518,2.5688,2.5888,2.5941,2.6468,2.715,2.784,2.8124,2.8268,2.8282,2.8427,2.8582,2.8651,2.8718,2.8791,2.891,2.8773,2.87,2.8822,2.8905,2.8964,2.9028,2.9028,2.9062,2.913,2.913,2.9163,2.9222,2.7783,2.6942,2.684,2.5409,2.4665,2.4647,2.5501,2.644,2.7445,2.8267,2.9114,2.5909,2.6469,2.6638,2.6131,2.5149,2.3798,2.1897,2.0793,0.0,1.8589,1.8549,1.8882,1.9413,1.9943,2.0691,2.1922,2.3325,2.4694,2.5873,2.8283,3.0091,0.0,3.1619,3.2294,3.2294,3.1839,0.0,0.0,0.0,2.9843,2.9348,2.9224,2.8889,2.824,2.7769,2.7775,2.8272,2.7939,2.7981,2.8369,2.8442,2.8255,2.7821,2.7819,2.7136,2.5921,2.5895,0.0,2.4926,2.5119,2.4888,2.4475,2.4894,2.4745,2.4345,2.46,2.4281,2.3721,2.363,2.3254,2.2907,2.3266,2.4049,2.4976,2.5594,2.5943,2.615,2.6165,2.5713,2.5265,2.5343,2.5903,2.6492,2.6597,2.7188,2.7754,2.7821,2.8022,2.8234,2.8371,2.8502,2.8632,2.8694,2.8767,2.8863,2.8998,2.9021,2.9055,2.9134,2.9014,2.8957,2.9033,2.91,2.9145,2.9156,2.9156,2.9178,2.9251,2.9269,2.9304,2.9361,2.8461,2.7671,2.706,2.613,2.5396,2.4842,2.5716,2.6633,2.758,2.8446,2.8939,2.675,2.7542,2.7897,2.6858,2.5796,2.4379,2.2118,2.0924,2.0006,1.8975,1.8907,1.9249,2.0079,2.0466,2.1029,2.214,2.3181,2.4272,2.5462,2.7583,2.9343,3.0314,3.1502,3.2234,0.0,3.1972,0.0,0.0,0.0,2.9581,2.9208,2.8879,2.842,2.7866,2.7988,2.8159,2.8359,2.8265,2.8405,2.8763,2.8474,2.8275,2.8136,2.7406,2.6772,2.619,2.5843,0.0,2.5346,2.5146,2.4901,2.4701,2.4697,2.4371,2.39,2.4064,2.3733,2.3179,2.3179,2.3045,2.2976,2.3682,2.4445,2.5169,2.5533,2.628,2.6993,2.7023,2.6908,2.678,2.6836,2.7268,2.7704,2.7813,2.8204,2.8569,2.8607,2.87,2.8755,2.8755,2.8851,2.8929,2.8945,2.9044,2.913,2.9197,2.9232,2.9257,2.9289,2.9278,2.9235,2.9156,2.9218,2.9251,2.9251,2.9246,2.9299,2.939,2.944,2.9491,2.9608,2.8865,2.8284,2.7932,2.7172,2.6636,2.6312,2.7183,2.7623,2.7669,2.8542,2.8734,2.7509,2.8555,2.9146,2.7619,2.6448,2.5005,2.2505,2.1154,2.0218,1.9474,1.9336,1.9668,2.0702,2.1006,2.1365,0.0,2.3003,2.3875,2.4982,2.684,2.8608,0.0,3.1082,0.0,3.1805,3.1728,0.0,0.0,0.0,0.0,2.8982,2.854,2.8142,2.7809,2.8323,2.8535,2.8292,2.8443,2.8583,2.8754,2.8237,2.8083,2.8204,2.7038,2.6519,2.6496,2.5891,0.0,0.0,2.5121,2.4846,2.4679,2.4349,2.3884,2.3411,2.3481,2.3225,2.2838,2.2868,2.297,2.3182,2.3842,2.4642,2.5382,2.555,2.6637,2.7832,2.7886,2.8045,2.8214,2.8313,2.8495,2.8676,2.8767,2.8893,2.8975,2.8987,2.904,2.9062,2.9085,2.913,2.9163,2.9163,2.9251,2.9315,2.9315,2.939,2.9443,2.9443,2.9502,2.9492,2.932,2.9347,2.9357,2.9357,2.9382,2.9444,2.956,2.9626,2.9728,2.9859,2.9306,2.8939,2.8762,2.8196,2.7829,2.7644,2.8504,2.8511,2.7751,2.8606,2.8466,2.8502,2.9286,2.968,2.889,2.7275,2.5313,2.3195,2.1555,2.0281,1.9536,1.9775,2.0275,2.0808,2.1351,2.161,2.1301,2.2319,2.3421,2.4196,2.6562,2.8666,2.9948,0.0,0.0,3.189,3.1554,0.0,0.0,0.0,0.0,2.7846,2.8138,2.814,2.7821,2.8219,2.8285,2.7934,2.8077,2.7983,2.7666,2.7649,2.7446,2.7052,2.709,2.6827,2.6342,2.6312,0.0,0.0,2.5346,2.4605,2.3487,2.3612,2.3305,2.2789,2.2868,2.292,2.2995,2.3057,2.3205,2.3389,2.3524,2.4424,2.5641,2.6424,2.7366,2.8174,2.8237,2.8399,2.8576,2.8713,2.8815,2.8899,2.9033,2.9112,2.9178,2.924,2.928,2.9291,2.9355,2.9376,2.9376,2.9376,2.938,2.9392,2.9392,2.9501,2.9588,2.9588,2.9645,2.9662,2.9663,2.9617,2.9569,2.9569,2.9636,2.969,2.9773,2.9841,2.9932,3.0072,3.0015,2.9665,2.8995,2.8906,2.8504,2.7769,2.8599,2.8586,2.7813,2.8612,2.8133,2.7495,2.859,2.9264,2.8603,2.7228,2.5638,2.3856,2.2387,2.1305,2.0919,2.1019,2.1353,2.1973,2.2301,2.2409,2.2212,2.2292,0.0,2.3818,2.5232,2.6755,2.8411,3.0037,0.0,0.0,0.0,0.0,0.0,0.0,0.0,2.8177,2.8273,2.8311,2.8334,2.8732,2.8744,2.8331,2.8409,2.8254,2.7854,2.7509,2.7399,2.7434,2.7054,2.6859,2.6775,2.6808,0.0,0.0,2.5366,2.4589,2.3624,2.3288,2.3063,2.2893,2.2957,2.3095,2.3253,2.3319,2.3463,2.3653,2.3718,2.4804,2.6146,2.6363,2.7433,2.8576,2.8633,2.8761,2.8875,2.9003,2.9123,2.9218,2.9262,2.9294,2.9326,2.9355,2.9368,2.937,2.939,2.9431,2.9461,2.951,2.953,2.9522,2.957,2.9663,2.9735,2.978,2.9828,2.9875,2.9875,2.9823,2.9773,2.978,2.9849,2.9916,2.998,3.0042,3.0128,3.0225,3.0227,3.0094,2.985,2.9831,2.9684,2.935,2.9164,2.8645,2.7857,2.766,2.6924,2.6608,2.7839,2.8575,2.7869,2.6926,2.5777,2.4233,2.301,2.2168,2.2018,2.1975,2.2171,2.2899,2.3016,2.298,2.2812,0.0,2.244,2.358,2.4335,2.5477,0.0,0.0,2.9899,0.0,0.0,0.0,0.0,0.0,0.0,2.8732,2.8568,2.8528,2.8613,2.8948,2.8806,2.8121,2.8229,2.8096,2.7682,2.7313,2.7311,2.7607,2.713,2.7021,2.723,0.0,0.0,0.0,2.534,2.4569,2.3597,2.3166,2.3045,2.3132,2.3182,2.3336,2.3526,2.3627,2.3742,2.3945,2.4263,2.5379,2.6644,2.6761,2.7771,2.891,2.8998,2.9078,2.9138,2.9225,2.9339,2.9429,2.9429,2.9429,2.9429,2.945,2.9451,2.9463,2.9474,2.9541,2.9589,2.9645,2.9682,2.97,2.9779,2.9853,2.9907,2.995,3.0022,3.008,3.008,3.006,3.0019,2.9953,3.0026,3.0079,3.013,3.0187,3.026,3.0305,3.0317,3.0348,3.0404,3.0404,3.0404,3.0404,2.9525,2.8684,2.7876,2.7005,2.6269,2.6243,2.7254,2.7709,2.6922,2.6409,2.5697,2.4141,2.3242,2.2658,2.2527,2.2393,2.2507,2.3164,2.3297,2.3112,2.2583,2.2435,0.0,2.3498,2.4244,2.5461,0.0,0.0,2.9104,0.0,0.0,0.0,0.0,0.0,0.0,2.9266,2.9054,2.8731,2.8419,2.8598,2.8159,2.7024,2.7197,2.7102,2.6725,2.6908,2.707,2.7214,2.7341,2.7434,0.0,0.0,0.0,0.0,2.5265,2.4401,2.302,2.3156,2.3277,2.3407,2.3473,2.361,2.3816,2.3955,2.4037,2.4254,2.517,2.6125,2.7065,2.7922,2.8619,2.9112,2.9269,2.9339,2.9402,2.9402,2.9453,2.9492,2.9492,2.9492,2.9531,2.9588,2.9598,2.9608,2.9681,2.9708,2.9716,2.9784,2.9845,2.9924,2.9999,3.0049,3.0109,3.0109,3.0203,3.0304,3.0304,3.0367,3.0311,3.0116,3.0166,3.0207,3.0207,3.0267,3.0304,3.0304,3.0348,3.0404,3.0404,3.0404,3.0404,3.0404,2.9525,2.8684,2.7876,2.7005,2.6601,2.5348,2.6199,2.6819,2.6558,2.6118,2.5589,2.498,2.4304,2.3752,2.3627,2.357,2.3652,2.4042,2.413,2.4074,2.3963,2.3306,0.0,0.0,0.0,0.0,2.6428,2.7896,2.9027,0.0,0.0,0.0,0.0,0.0,0.0,2.9209,2.8808,2.8684,2.893,2.8704,2.8232,2.7559,2.7703,2.7539,2.7037,2.7198,2.734,2.7463,2.7526,0.0,0.0,0.0,0.0,0.0,2.5012,2.4259,2.3424,2.3457,2.3558,2.3685,2.3753,2.3899,2.4096,2.4163,2.4275,2.4521,2.542,2.6302,2.7196,2.8073,2.8818,2.9372,2.9431,2.9481,2.9531,2.9531,2.9598,2.9636,2.9636,2.9626,2.9645,2.9654,2.9745,2.9815,2.983,2.9913,2.9973,3.0007,3.0052,3.014,3.0182,3.0254,3.0317,3.0303,3.0369,3.0442,3.0442,3.0466,3.0425,3.031,3.0322,3.0365,3.0408,3.0411,3.0442,3.0442,3.0466,3.0472,3.0472,3.0472,3.0472,3.0472,2.9007,2.7562,2.6174,2.5904,2.6097,2.4837,2.536,2.5841,2.5841,2.5691,2.5496,2.5331,2.5003,2.4675,2.4538,2.445,2.444,2.4612,2.4735,2.4858,2.4902,2.4078,2.373,0.0,0.0,0.0,2.6702,0.0,0.0,0.0,0.0,0.0,0.0,0.0,0.0,2.9028,2.8592,2.8503,2.8883,2.8521,2.8059,2.7589,2.7723,2.7662,2.74,2.7215,2.7212,2.7341,2.701,0.0,0.0,0.0,0.0,0.0,2.4933,2.4361,2.3757,2.3777,2.387,2.4008,2.4068,2.4183,2.4321,2.4393,2.4684,2.5178,2.6027,2.6938,2.7794,2.8344,2.9007,2.9579,2.9579,2.9617,2.9673,2.971,2.9764,2.9808,2.9806,2.9813,2.9828,2.9842,2.9926,2.9988,3.0034,3.0126,3.0188,3.0203,3.0248,3.0304,3.0364,3.0436,3.0488,3.0476,3.0506,3.054,3.054,3.054,3.0516,3.0477,3.0455,3.0463,3.0504,3.0504,3.0504,3.0504,3.0504,3.0504,3.0504,3.0504,3.0504,3.0504,2.8748,2.705,2.541,2.541,2.57,0.0,2.4819,2.4962,2.4962,2.516,2.5351,2.5291,2.5297,0.0,2.5208,2.5086,2.4984,2.5,2.5253,2.5474,2.5458,2.485,2.4556,0.0,2.5499,0.0,0.0,2.8561,0.0,0.0,0.0,0.0,0.0,0.0,0.0,2.877,2.8391,2.8215,2.8344,2.8115,2.7756,2.7261,2.738,2.7497,2.7643,2.6947,2.6706,2.6788,2.6059,2.5786,0.0,0.0,0.0,0.0,2.4932,2.4587,2.4036,2.4097,2.421,2.4321,2.4391,2.4497,2.4622,2.4682,2.5281,2.6155,2.6996,2.7911,2.8669,2.8579,2.9028,2.955,2.9623,2.9686,2.9756,2.9878,2.9972,3.0026,3.0026,3.0022,3.0044,3.0115,3.0129,3.0163,3.0285,3.0322,3.0346,3.0398,3.0409,3.0449,3.0496,3.0564,3.0592,3.06,3.0593,3.0606,3.0606,3.0606,3.0606,3.0606,3.055,3.0514,3.0514,3.0514,3.0514,3.0514,3.0514,3.0514,3.0514,3.0514,3.0456,3.0321,2.87,2.7055,2.5415,2.5415,2.5415,2.5717,0.0,2.5661,2.5661,2.5384,2.5082,0.0,2.477,2.4641,2.4913,2.5416,2.5853,2.5947,2.6048,2.6117,2.6154,2.5927,2.5777,2.5949,0.0,0.0,2.7552,0.0,0.0,0.0,0.0,0.0,0.0,0.0,2.8408,2.8492,2.806,2.7859,2.7949,2.7982,2.7894,2.7672,2.7211,2.6982,2.6992,2.6286,2.598,2.6053,2.5915,2.5936,0.0,0.0,0.0,2.5179,2.4666,2.4403,2.4312,2.432,2.4382,2.4461,2.453,2.5024,2.5668,2.5728,2.6329,2.7149,2.7782,2.8163,2.8259,2.7528,2.7642,2.815,2.8818,2.9068,2.926,2.9892,3.0148,3.0235,3.0228,3.0266,3.0303,3.034,3.0375,3.0414,3.0455,3.0496,3.053,3.0544,3.0558,3.0567,3.058,3.0585,3.0593,3.0597,3.0602,3.0606,3.0606,3.0606,3.0606,3.0606,3.0585,3.0576,3.0576,3.0576,3.0576,3.0576,3.0576,3.0576,3.0576,3.0576,2.9956,2.8663,2.8259,2.7163,2.5476,2.5484,2.5476,2.6212,2.6139,2.6081,2.6081,2.5908,2.5714,2.5564,2.5229,2.486,2.4546,2.5628,2.662,2.6706,2.6792,2.686,2.691,2.674,0.0,0.0,0.0,2.7937,2.7901,0.0,0.0,0.0,0.0,0.0,0.0,0.0,2.7871,2.807,2.7529,2.7203,2.7254,2.7144,2.7366,2.7936,2.7571,2.7427,2.7522,2.6415,2.5942,2.6051,2.5384,2.515,0.0,0.0,0.0,2.4903,2.4542,2.4454,2.4549,2.4545,2.461,2.4681,2.4723,2.5337,2.6136,2.6183,2.6918,2.787,2.7904,2.7943,2.7856,2.7182,2.6806,2.6912,2.8485,2.8964,2.9193,3.0054,3.0333,3.0392,3.0389,3.0416,3.0456,3.0491,3.0516,3.0559,3.0544,3.0572,3.0593,3.0593,3.0597,3.061,3.0641,3.0641,3.0645,3.0657,3.0657,3.0657,3.0657,3.0657,3.0657,3.0657,3.0288,3.0219,3.0586,3.0257,3.0218,3.0586,3.0606,3.0606,3.0606,3.0238,2.9408,2.8097,2.7691,2.6811,2.5494,2.5506,2.5495,2.6522,2.6489,2.6487,2.6368,2.6522,2.6621,2.651,2.6048,2.5419,2.4586,0.0,2.7352,2.7337,2.745,0.0,0.0,0.0,0.0,2.7977,2.8047,2.8167,0.0,0.0,0.0,0.0,0.0,0.0,0.0,0.0,2.7085,2.7352,2.6811,2.646,2.6433,2.6099,2.6546,2.7844,2.771,2.7723,2.7875,2.6471,2.5898,2.6022,2.475,2.4257,2.4438,0.0,0.0,2.4545,2.4561,2.4626,2.4719,2.4746,2.482,2.4919,2.4933,2.5518,2.6345,2.6562,2.7554,2.8628,2.8157,2.7661,2.719,2.6942,2.6238,2.5932,2.7986,2.8737,2.9177,3.0245,3.0516,3.0525,3.053,3.0539,3.0548,3.0589,3.0617,3.0621,3.0614,3.0618,3.0618,3.0618,3.0618,3.0622,3.068,3.0704,3.0692,3.069,3.0694,3.0694,3.0694,3.0694,3.0694,3.0697,2.9897,2.9747,3.0568,2.9846,2.9765,3.0579,3.0618,3.0556,3.042,2.9745,2.8915,2.793,2.7166,2.6352,2.5518,2.5495,2.5505,2.6833,2.7109,2.7286,2.6772,2.6786,2.7002,2.7274,2.6342,2.5608,0.0,0.0,0.0,0.0,2.7858,2.7861,0.0,0.0,2.7789,0.0,0.0,0.0,0.0,0.0,0.0,0.0,0.0,0.0,0.0,0.0,0.0,2.5925,2.5931,2.5841,2.5666,2.5605,2.595,2.6731,2.5953,2.5581,2.5585,2.479,2.4444,2.455,2.4476,2.4497,2.4582,0.0,2.4734,2.4749,2.4813,2.4851,2.4874,2.4921,2.498,2.4987,2.505,2.5626,2.6553,2.7813,2.9056,3.0061,2.9849,2.7924,2.5673,2.5785,2.5728,2.5661,2.6028,2.7125,2.8541,3.0156,3.0632,3.0661,3.0665,3.0661,3.0676,3.068,3.068,3.068,3.0683,3.0683,3.0683,3.0683,3.0683,3.0683,3.0706,3.0706,3.071,3.0694,3.0694,3.0694,3.0694,3.0694,3.0697,3.0711,2.9898,2.9765,3.0626,2.9881,2.979,3.0644,3.0683,3.0334,2.9592,2.9456,2.8644,2.7071,2.6883,2.6372,2.5573,2.5522,2.5492,2.6658,2.7225,2.7972,2.7996,2.7771,2.7624,2.792,2.7137,2.6512,0.0,0.0,0.0,0.0,0.0,2.8373,2.8378,0.0,2.8295,0.0,0.0,0.0,0.0,0.0,0.0,0.0,0.0,0.0,0.0,0.0,0.0,2.4846,2.4899,2.4879,2.4795,2.4866,2.5046,2.5356,2.5051,2.5281,2.6011,2.5309,2.5022,2.5111,2.4797,2.4696,2.4761,0.0,2.491,2.4917,2.4973,2.5006,2.5006,2.5074,2.5134,2.5223,2.5763,2.6304,2.693,2.7928,2.9257,3.0211,2.833,2.6683,2.5476,2.5573,2.5605,2.5609,2.5602,2.6773,2.8454,3.0203,3.0684,3.0699,3.0699,3.0706,3.0694,3.0694,3.0694,3.0694,3.0694,3.0694,3.0694,3.0704,3.0704,3.0707,3.0698,3.0701,3.0704,3.0752,3.0755,3.0758,3.0745,3.0745,3.0748,3.0751,2.9958,2.9602,2.9971,3.0053,3.0273,3.0674,3.0694,3.0519,3.0108,2.9641,2.902,2.8243,2.7751,2.7317,2.6948,2.6922,2.6667,2.6238,2.7046,2.8233,2.87,2.8542,2.8357,2.856,2.8155,2.7719,0.0,0.0,0.0,0.0,2.8476,0.0,2.8809,2.8797,0.0,0.0,0.0,0.0,0.0,0.0,0.0,0.0,0.0,0.0,0.0,0.0,0.0,2.4265,2.4303,2.4321,2.4319,2.4462,2.453,2.4513,2.467,2.5279,2.6303,2.5775,2.5576,2.5656,2.512,2.49,2.4941,2.5025,2.5057,2.505,2.5118,2.5151,2.5176,2.5224,2.5288,2.5437,2.6155,2.6559,2.6792,2.7269,2.8318,2.9016,2.6434,2.5602,2.5598,2.561,2.5593,2.559,2.5601,2.6514,2.8013,3.015,3.0694,3.0694,3.0694,3.0694,3.0694,3.0694,3.0697,3.0697,3.0697,3.0704,3.0714,3.0724,3.073,3.0716,3.0714,3.0717,3.0742,3.0796,3.0799,3.0801,3.0808,3.0791,3.0791,3.0795,3.0,2.9485,2.9432,3.0058,3.0416,3.0426,3.0426,3.0426,3.0426,2.9758,2.9327,2.9114,2.8443,2.8113,2.8116,2.8113,2.7786,2.5721,2.6536,2.7677,2.7848,2.8552,2.9205,2.9226,2.9237,0.0,2.9103,0.0,0.0,0.0,2.9256,2.923,2.9093,2.9115,0.0,0.0,0.0,0.0,0.0,0.0,0.0,0.0,0.0,0.0,0.0,0.0,0.0,2.4491,2.4593,2.4655,2.4658,2.4851,2.4933,2.4855,2.4884,2.4868,2.4853,2.4917,2.4957,2.4964,2.505,2.5072,2.5097,2.5154,2.5192,2.5194,2.5264,2.5327,2.5378,2.538,2.5433,2.5491,2.5556,2.5596,2.5632,2.5744,2.5857,2.5929,2.5674,2.5609,2.5605,2.5605,2.5605,2.5603,2.5593,2.5685,2.6537,2.983,3.0704,3.0701,3.0694,3.0694,3.0694,3.0694,3.0704,3.0691,3.0691,3.0758,3.0781,3.0781,3.0789,3.0782,3.0795,3.0798,3.0782,3.0794,3.0796,3.0796,3.0796,3.0796,3.0799,3.0809,2.9994,2.9506,2.9499,2.955,2.9589,2.9589,2.9589,2.9591,2.9593,2.9523,2.9087,2.8289,2.8224,2.8199,2.8196,2.8199,2.8165,2.5745,2.6789,2.7894,2.7566,2.8585,0.0,0.0,2.954,2.9579,2.957,2.9589,0.0,0.0,0.0,2.8129,2.8537,0.0,0.0,0.0,0.0,0.0,0.0,0.0,0.0,0.0,0.0,0.0,0.0,0.0,0.0,0.0,2.4885,2.4887,2.4879,2.5002,2.5049,2.5013,2.5081,2.5074,2.5063,2.5081,2.5093,2.5091,2.5176,2.5224,2.523,2.5298,2.5321,2.533,2.5404,2.5448,2.5468,2.5506,2.5538,2.5567,2.5556,2.5571,2.5565,2.559,2.5595,2.562,2.5647,2.5654,2.5661,2.5654,2.5658,2.5658,2.5664,2.5666,2.5948,2.7201,2.9132,3.0748,3.0703,3.0725,3.0751,3.0751,3.0756,3.0762,3.075,3.0782,3.0795,3.0796,3.0798,3.0803,3.0801,3.0799,3.08,3.0809,3.079,3.0792,3.0795,3.0795,3.0795,3.0797,3.0035,2.9332,2.8785,2.8706,2.8936,2.9478,2.9496,2.9751,3.0301,3.0316,3.0154,2.9814,2.9825,2.982,2.9815,2.982,2.9539,2.5911,2.6879,2.7929,2.7809,0.0,0.0,2.9859,2.9817,2.9839,2.9891,2.9907,2.9653,2.8753,0.0,0.0,0.0,0.0,0.0,0.0,0.0,0.0,0.0,0.0,0.0,0.0,0.0,0.0,0.0,0.0,0.0,0.0,2.5075,2.5051,2.5125,2.5162,2.5191,2.5187,2.5228,2.5269,2.5332,2.5038,2.5014,2.5279,2.5327,2.5359,2.5361,2.5406,2.5445,2.5472,2.5501,2.5538,2.5548,2.5573,2.5593,2.559,2.5595,2.5605,2.5639,2.5624,2.563,2.5636,2.5683,2.5708,2.5696,2.5705,2.5692,2.5696,2.5701,2.5703,2.5697,2.5644,2.8193,3.0791,3.0733,3.0776,3.08,3.0804,3.0806,3.0792,3.0803,3.0809,3.0798,3.0792,3.0793,3.0795,3.08,3.08,3.08,3.0801,3.08,3.08,3.0799,3.0799,3.0682,3.0408,2.9647,2.8826,2.7948,2.7596,2.7939,2.9062,2.9121,2.9647,3.0781,3.0799,3.0795,3.0809,3.0799,3.0794,3.081,3.0794,3.0471,2.6175,2.6681,2.7633,2.8576,0.0,0.0,3.0279,3.0202,3.0109,3.0109,3.0138,2.9884,2.8951,0.0,0.0,0.0,0.0,0.0,0.0,0.0,0.0,0.0,0.0,0.0,0.0,0.0,0.0,0.0,0.0,0.0,0.0,2.5135,2.5185,2.5395,2.5395,2.5405,2.5393,2.5332,2.533,2.5372,2.4582,2.4628,2.5382,2.5441,2.5479,2.5479,2.5483,2.5528,2.5601,2.5596,2.5593,2.561,2.561,2.561,2.5591,2.5602,2.5632,2.5701,2.571,2.5705,2.5699,2.5699,2.5707,2.5694,2.5694,2.5697,2.57,2.57,2.57,2.57,2.5701,2.8228,3.0767,3.0773,3.0774,3.0795,3.0781,3.0786,3.0792,3.0796,3.08,3.0801,3.08,3.0798,3.0795,3.0791,3.079,3.0808,3.0801,3.08,3.08,3.08,3.08,3.045,2.9592,2.8771,2.7932,2.7074,2.6195,2.6477,2.8223,2.8301,2.9082,3.0742,3.08,3.0799,3.0799,3.081,3.0805,3.079,3.0804,3.0808,2.6794,2.7186,2.7899,2.8845,0.0,0.0,0.0,3.0379,0.0,0.0,2.9345,2.8424,2.8139,0.0,0.0,0.0,0.0,0.0,0.0,0.0,0.0,0.0,0.0,0.0,0.0,0.0,0.0,0.0,0.0,0.0,0.0,2.525,2.5292,2.5391,2.5485,2.5545,2.553,2.5479,2.5168,2.462,2.438,2.4396,2.4613,2.4002,2.4078,2.4655,2.4663,2.5024,2.5598,2.5608,2.5604,2.5601,2.5601,2.5632,2.5665,2.5612,2.5638,2.5703,2.571,2.5694,2.5696,2.57,2.5702,2.5703,2.5702,2.5701,2.57,2.5699,2.5698,2.5698,2.5698,2.7048,2.8418,2.8417,2.9159,2.9883,2.9883,3.0371,3.08,3.0798,3.0797,3.0793,3.0806,3.0805,3.0804,3.0792,3.0795,3.0796,3.0807,3.0806,3.0806,3.0806,3.0806,3.0708,3.0435,2.9128,2.819,2.7938,2.6514,2.621,2.7336,2.7961,2.88,2.9855,3.048,3.0795,3.0797,3.0799,3.08,3.0801,3.0801,3.082,2.7166,2.767,2.8582,2.9499,3.0094,3.0495,3.0525,0.0,0.0,0.0,2.9324,2.8264,2.7937,2.6771,0.0,0.0,0.0,0.0,0.0,0.0,0.0,0.0,0.0,0.0,0.0,0.0,0.0,0.0,0.0,0.0,0.0,2.5379,2.5395,2.5439,2.5534,2.5609,2.5602,2.5551,2.5121,2.4307,2.398,2.3632,2.3305,2.3125,2.3322,2.3815,2.383,2.4113,2.4631,2.4973,2.5117,2.5165,2.5502,2.545,2.5223,2.552,2.5446,2.5233,2.5586,2.5703,2.5703,2.57,2.5679,2.5657,2.5666,2.566,2.5658,2.5654,2.5675,2.5696,2.5673,2.6182,2.6834,2.7297,2.8235,2.9112,2.9422,2.9909,3.0395,3.0738,3.0795,3.0792,3.0798,3.0799,3.0798,3.0806,3.079,3.0792,3.0806,3.0804,3.0804,3.0804,3.0804,3.0667,3.0318,2.9049,2.8113,2.7762,2.6458,2.5938,2.6454,2.7318,2.8179,2.9,2.9546,2.9957,3.0273,3.0276,3.0455,3.0793,3.0791,3.0811,2.747,2.8165,2.9414,3.0284,3.0545,0.0,3.0595,3.0492,3.0409,3.0404,0.0,2.8854,2.803,0.0,0.0,0.0,0.0,0.0,0.0,0.0,0.0,0.0,0.0,0.0,0.0,0.0,0.0,0.0,0.0,0.0,0.0,2.5509,2.5505,2.5515,2.5565,2.5612,2.5617,2.5613,2.5138,2.4181,2.3447,2.2598,2.1716,2.2507,2.2919,2.2999,2.3064,2.31,2.3169,2.3954,2.4328,2.4486,2.527,2.5096,2.4491,2.5293,2.5038,2.4409,2.5283,2.5571,2.5586,2.5677,2.5653,2.5606,2.5595,2.5605,2.5598,2.5598,2.5644,2.5687,2.5621,2.5644,2.5948,2.6997,2.7725,2.8369,2.9102,2.9393,2.9721,3.0529,3.0741,3.0795,3.0804,3.0801,3.0801,3.0801,3.0801,3.0801,3.0801,3.0801,3.0801,3.0801,3.0801,3.049,2.9691,2.8756,2.7898,2.7178,2.6303,2.5835,2.5913,2.6614,2.7365,2.8166,2.8244,2.8654,2.9374,2.938,2.9832,3.0674,3.0674,3.0713,2.8514,2.8849,2.9487,3.036,3.0595,3.0593,3.0597,3.0105,2.9636,2.9636,2.8942,2.8074,2.7222,0.0,0.0,0.0,0.0,0.0,0.0,0.0,0.0,0.0,0.0,0.0,0.0,0.0,0.0,0.0,0.0,0.0,2.5586,2.5576,2.5572,2.5574,2.5636,2.5684,2.568,2.5684,2.4907,0.0,2.3176,2.2298,2.0794,2.1038,2.1483,2.2112,2.2801,2.3099,2.3104,2.33,2.3789,2.4412,2.4606,2.4566,2.4427,2.4614,2.4122,2.3494,2.4376,2.468,2.4774,2.5428,2.5619,2.5595,2.5604,2.5598,2.5595,2.5595,2.5617,2.5619,2.5598,2.5617,2.568,2.5938,2.6615,2.7248,2.7422,2.853,2.9561,2.9734,3.0338,3.0804,3.0801,3.0801,3.0801,3.0801,3.0801,3.0801,3.0801,3.0801,3.0801,3.0801,3.0801,3.0723,3.0548,2.9087,2.8405,2.8911,2.7489,2.6944,2.7626,2.7184,2.701,2.7207,2.7868,2.8316,2.8472,2.8474,2.8928,2.9776,2.9776,3.015,2.9643,2.9786,3.0031,3.0488,0.0,3.0645,3.0645,3.0,2.9292,2.89,2.81,2.7346,0.0,0.0,0.0,0.0,0.0,0.0,0.0,0.0,0.0,0.0,0.0,0.0,0.0,0.0,0.0,0.0,0.0,2.5619,2.5647,2.565,2.5658,2.5649,2.5672,2.5696,2.57,2.5703,2.5039,2.3711,2.33,2.2206,2.0547,2.0546,2.078,2.1191,2.166,2.1855,2.1891,2.2318,2.2742,2.3243,2.4077,2.3897,2.3305,2.4524,2.4188,2.3286,2.454,2.4964,2.504,2.5454,2.56,2.5595,2.5601,2.5574,2.5568,2.5596,2.5601,2.5607,2.5595,2.5603,2.5608,2.5608,2.5948,2.6385,2.6814,2.7617,2.8496,2.9333,2.9861,3.0314,3.0723,3.0801,3.0801,3.0801,3.0801,3.0801,3.0801,3.0801,3.0801,3.0801,3.0801,3.0801,3.0801,2.9574,2.9028,2.9476,2.8269,2.7723,2.8171,2.7762,2.7333,2.6905,2.7353,2.7587,2.7587,2.7587,2.8234,2.9507,2.9507,2.9977,3.0239,3.0457,3.0625,3.0622,3.0668,0.0,3.0529,2.9827,2.8951,2.8156,2.7364,0.0,0.0,0.0,0.0,0.0,0.0,0.0,0.0,0.0,0.0,0.0,0.0,0.0,0.0,0.0,0.0,0.0,0.0,2.5633,2.5698,2.5698,2.57,2.5702,2.5703,2.5703,2.5702,2.5696,2.5262,2.4381,2.3363,2.2151,2.0804,2.0581,2.0504,2.0499,2.0494,2.0508,2.056,2.1272,2.1656,2.1966,2.3554,2.3293,2.2292,2.4546,2.4401,2.3303,2.4834,2.5357,2.5374,2.5529,2.5576,2.5586,2.5573,2.5541,2.5518,2.557,2.5583,2.5576,2.5587,2.5582,2.5576,2.5571,2.5571,2.5787,2.6522,2.6899,2.7549,2.8987,2.9499,2.9932,3.065,3.0786,3.0786,3.0786,3.0786,3.0786,3.0786,3.0786,3.073,3.0577,3.0558,3.056,3.0563,2.9786,2.9396,2.971,2.8911,2.8483,2.8639,2.8658,2.8249,2.7372,2.7197,2.7119,2.7119,2.7119,2.7937,2.9496,2.9496,2.9964,2.9077,0.0,3.0685,0.0,3.0739,3.0592,0.0,0.0,2.8138,0.0,2.7,0.0,0.0,0.0,0.0,0.0,0.0,0.0,0.0,0.0,0.0,0.0,0.0,0.0,0.0,0.0,0.0,0.0,2.5683,2.5683,2.5702,2.5702,2.5701,2.5697,2.5696,2.5693,2.5705,2.5703,2.5269,2.4383,2.2741,2.1857,2.1615,2.0852,2.0509,2.0501,2.0494,2.0504,2.0511,2.0625,2.1126,2.1897,2.2888,2.3141,2.3056,2.4083,2.3856,2.3148,2.4061,2.4397,2.4509,2.5263,2.5518,2.551,2.5506,2.552,2.5495,2.5518,2.5502,2.5502,2.5506,2.5509,2.5506,2.5505,2.5517,2.556,2.5731,2.697,2.8074,2.8257,2.9509,3.0571,3.0688,3.0707,3.0707,3.0707,3.0707,3.0707,3.0707,3.0707,3.0422,2.9677,2.9582,2.9613,2.9676,2.8878,2.9019,3.0526,2.9808,2.9671,3.0412,3.0451,3.0041,2.9165,2.8405,2.8035,2.8035,2.8035,2.8522,2.9496,2.9496,2.9964,2.8415,2.9104,2.9724,0.0,2.9318,2.9242,2.8855,2.8124,2.743,2.7063,0.0,0.0,0.0,0.0,0.0,0.0,0.0,0.0,0.0,0.0,0.0,0.0,0.0,0.0,0.0,0.0,0.0,0.0,2.5692,2.571,2.5707,2.5707,2.5705,2.5702,2.5697,2.571,2.5699,2.5655,2.5217,2.4327,2.3564,2.2933,2.2455,2.2073,2.1383,2.0492,2.0501,2.0508,2.0493,2.0463,2.0954,2.1834,2.2663,2.2987,2.3156,2.4477,2.4406,2.3749,2.4583,2.488,2.495,2.5317,2.5441,2.5449,2.5499,2.5464,2.5449,2.5495,2.5472,2.5449,2.5495,2.5472,2.5441,2.5449,2.5437,2.5576,2.6064,2.6798,2.763,2.8593,2.9753,3.0583,3.0583,3.0583,3.0607,3.0634,3.0638,3.0638,3.0638,3.0638,3.0506,3.0106,3.0078,3.0072,3.0105,2.9807,2.9932,3.0697,3.0372,3.0336,3.0725,3.0784,3.0616,3.0246,2.9377,2.8697,2.8191,2.8191,2.8658,2.9496,2.9496,2.9964,2.8032,0.0,2.8727,2.8138,2.8101,2.8172,0.0,0.0,2.6934,0.0,0.0,0.0,0.0,0.0,0.0,0.0,0.0,0.0,0.0,0.0,0.0,0.0,0.0,0.0,0.0,0.0,0.0,0.0,2.569,2.5687,2.5681,2.566,2.568,2.5676,2.5666,2.5673,2.5667,2.5612,2.5248,2.4593,2.4372,2.3933,2.3295,2.3084,2.2175,2.0779,2.0779,2.0655,2.0465,2.0408,2.0891,2.1743,2.2564,2.3017,2.3392,2.4895,2.5018,2.4491,2.5123,2.536,2.5346,2.5345,2.5359,2.5391,2.5432,2.5436,2.5417,2.5464,2.5436,2.5404,2.5447,2.5415,2.5363,2.5354,2.5355,2.564,2.6675,2.7117,2.7748,2.926,3.0047,3.0453,3.0453,3.0453,3.0463,3.052,3.0525,3.0525,3.0549,3.0554,3.0457,3.0248,3.0236,3.0233,3.0246,3.0308,3.0439,3.0656,3.0667,3.0674,3.0662,3.073,3.0764,3.077,3.0133,2.9484,2.8853,2.8853,2.9184,2.9827,2.9827,3.0178,0.0,2.8221,0.0,2.7581,2.7867,2.8086,0.0,0.0,0.0,0.0,0.0,0.0,0.0,0.0,0.0,0.0,0.0,0.0,0.0,0.0,0.0,0.0,0.0,0.0,0.0,0.0,0.0,0.0,2.5701,2.5677,2.5609,2.5609,2.5604,2.5612,2.5615,2.5604,2.5604,2.554,2.5486,2.5425,2.4597,2.4182,2.4106,2.3284,2.2416,2.1532,2.1546,2.1117,2.0405,2.0334,2.0827,2.1685,2.2481,2.3303,2.4139,2.5005,2.5274,2.5226,2.5212,2.5204,2.5204,2.5204,2.5261,2.5302,2.5308,2.5351,2.5406,2.5407,2.5403,2.5389,2.5336,2.5321,2.5287,2.5239,2.5204,2.5672,2.7367,2.8387,2.9231,3.0073,3.0273,3.0311,3.0311,3.0311,3.0305,3.0316,3.0322,3.0334,3.0396,3.0416,3.01,2.927,2.9224,2.9265,2.9273,2.9319,2.9732,3.0548,3.061,3.0603,3.0603,3.0607,3.0637,3.0697,3.0658,3.0652,3.0665,3.0665,3.0684,3.0723,3.0723,3.0762,0.0,0.0,0.0,2.6354,2.6463,2.6542,2.6246,2.6161,2.6054,0.0,0.0,0.0,0.0,0.0,0.0,0.0,0.0,0.0,0.0,0.0,0.0,0.0,0.0,0.0,0.0,0.0,0.0,0.0,0.0,2.5629,2.5607,2.5607,2.5579,2.5546,2.554,2.5538,2.5543,2.543,2.5391,2.543,2.5069,2.4904,2.4878,2.3995,2.3136,2.2302,2.2253,2.1803,2.1109,2.107,2.1853,2.3093,2.34,2.4004,2.4771,2.5061,2.5174,2.5164,2.5136,2.5131,2.5138,2.5137,2.5189,2.5245,2.5233,2.5253,2.5269,2.5264,2.5238,2.5206,2.5179,2.5176,2.5166,2.5144,2.5952,2.6893,2.7472,2.8766,2.9883,3.0117,3.0173,3.0166,3.0166,3.0166,3.018,3.0221,3.0246,3.0234,3.026,3.026,3.0151,2.9832,2.9863,2.9906,2.9904,2.9974,3.0141,3.046,3.0481,3.0482,3.053,3.0543,3.057,3.0633,3.0645,3.068,3.0746,3.0736,3.0739,3.0739,3.0781,3.0791,2.5591,0.0,0.0,0.0,2.5702,2.5701,2.5694,0.0,2.5687,0.0,0.0,0.0,0.0,0.0,0.0,0.0,0.0,0.0,0.0,0.0,0.0,0.0,0.0,0.0,0.0,0.0,0.0,0.0,0.0,0.0,2.5528,2.5528,2.5492,2.5433,2.5433,2.5426,2.5406,2.5288,2.5269,2.5327,2.5264,2.5234,2.5217,2.4629,2.3894,2.3078,2.3018,2.2425,2.1497,2.1756,2.267,2.3867,2.3877,2.4368,2.5093,2.5062,2.5063,2.5076,2.5063,2.5063,2.5076,2.5063,2.5113,2.5166,2.5176,2.5174,2.5165,2.5168,2.514,2.5086,2.5068,2.5069,2.5133,2.5412,2.6552,2.7628,2.7846,2.9071,3.0113,3.0049,3.0023,3.0023,3.0023,3.0023,3.0057,3.0121,3.0128,3.0135,3.015,3.0169,3.0169,3.0169,3.0206,3.0348,3.0635,3.0458,3.0452,3.0721,3.0477,3.0359,3.0419,3.0414,3.0427,3.0501,3.0506,3.0516,3.058,3.0638,3.0671,3.0678,3.0704,3.0739,0.0,0.0,0.0,0.0,0.0,0.0,2.5691,0.0,2.5707,0.0,0.0,0.0,0.0,0.0,0.0,0.0,0.0,0.0,0.0,0.0,0.0,0.0,0.0,0.0,0.0,0.0,0.0,0.0,2.5489,2.5452,2.5406,2.5383,2.5365,2.5308,2.5303,2.5259,2.5206,2.5122,2.513,2.5187,2.514,2.5105,2.5101,2.5063,2.4593,2.3801,2.3801,2.2917,2.153,2.2299,2.3113,2.3843,2.3832,2.4353,2.5095,2.5025,2.4993,2.5005,2.4998,2.5003,2.501,2.4999,2.5031,2.5101,2.5095,2.5093,2.5097,2.5094,2.5101,2.5088,2.5025,2.5011,2.5193,2.6008,2.6861,2.7714,2.8532,2.9387,2.9972,2.9905,2.9897,2.9897,2.9897,2.9897,2.9913,2.9999,3.0007,3.0022,3.0087,3.0114,3.0133,3.0133,3.0156,3.0521,3.1352,3.071,3.0605,3.14,3.0694,3.0289,3.0375,3.0279,3.0273,3.0336,3.0305,3.0305,3.0323,3.0521,3.061,3.0634,3.0657,3.0707,2.5593,0.0,0.0,0.0,0.0,0.0,0.0,0.0,0.0,0.0,0.0,0.0,0.0,0.0,0.0,0.0,0.0,0.0,0.0,0.0,0.0,0.0,0.0,0.0,0.0,0.0,0.0,0.0,2.5313,2.5274,2.5259,2.5264,2.5257,2.5225,2.5176,2.5147,2.513,2.5119,2.5082,2.5063,2.5032,2.5032,2.5019,2.4366,2.3955,2.374,2.374,2.348,2.3075,2.3359,2.3942,2.4664,2.4676,2.4821,2.503,2.5004,2.4998,2.4998,2.501,2.5003,2.5003,2.4998,2.4999,2.5025,2.5038,2.5032,2.5038,2.5025,2.5025,2.5018,2.5004,2.4991,2.5193,2.6008,2.6861,2.7714,2.8532,2.9355,2.9913,2.9897,2.9897,2.9897,2.9897,2.9897,2.9916,2.9913,2.9932,2.994,2.9956,3.0506,3.0905,3.0905,3.1458,3.1939,3.2186,3.2029,3.2034,3.2262,3.2053,3.1943,3.1951,3.1397,3.1076,3.1106,3.0526,3.0506,3.1087,3.0654,3.0774,3.1405,3.2092,3.2414,0.0,0.0,0.0,0.0,0.0,0.0,2.5702,2.5669,0.0,0.0,0.0,0.0,0.0,0.0,0.0,0.0,0.0,0.0,0.0,0.0,0.0,0.0,0.0,0.0,0.0,2.5212,2.522,2.522,2.5185,2.5154,2.5157,2.5166,2.5143,2.5112,2.5069,2.5063,2.507,2.505,2.5044,2.4999,2.4999,2.4992,2.4973,2.4479,2.4245,2.4245,2.4206,2.42,2.42,2.42,2.4535,2.5003,2.5003,2.5003,2.5003,2.5003,2.5003,2.5003,2.5003,2.5003,2.5003,2.5003,2.4998,2.4992,2.4992,2.4992,2.4992,2.4992,2.4998,2.5003,2.5003,2.5003,2.5288,2.6463,2.7134,2.7809,2.8949,2.9575,2.9897,2.9897,2.9897,2.9897,2.9897,2.9897,2.9897,2.9897,2.9897,2.9897,2.9897,3.0654,3.1204,3.1204,3.195,3.2621,3.2981,3.2695,3.2665,3.3045,3.2722,3.253,3.2561,3.2088,3.1838,3.1859,3.1367,3.1367,3.1859,3.1158,3.1271,3.2128,3.2709,3.2981,0.0,0.0,0.0,0.0,0.0,0.0,2.5694,2.56,2.549,0.0,0.0,0.0,0.0,0.0,0.0,0.0,0.0,0.0,0.0,0.0,0.0,0.0,0.0,0.0,2.5097,2.5097,2.5091,2.5091,2.5091,2.5093,2.5095,2.5082,2.5057,2.5005,2.5005,2.4992,2.5003,2.5003,2.5003,2.5003,2.5003,2.5003,2.5003,2.5003,2.5003,2.5003,2.4931,2.4891,2.4891,2.4834,2.4863,2.4971,2.4971,2.4971,2.4971,2.4971,2.4971,2.4971,2.4971,2.4971,2.4971,2.4971,2.4971,2.4971,2.4971,2.4971,2.4971,2.4971,2.4977,2.4996,2.4996,2.506,2.5534,2.7115,2.757,2.8055,2.9575,2.9897,2.9897,2.9897,2.9897,2.9897,2.9897,2.9897,2.9897,2.9897,2.9897,2.9897,2.9897,3.0654,3.1223,3.1318,3.2056,3.2899,3.3752,3.3126,3.3013,3.3771,3.3107,3.2708,3.2752,3.2613,3.2576,3.2638,3.2576,3.2576,3.2638,3.1989,3.2076,3.2844,3.2996,3.3075,0.0,0.0,0.0,0.0,0.0,0.0,2.5704,2.5637,2.5556,0.0,0.0,0.0,0.0,0.0,0.0,0.0,0.0,0.0,0.0,0.0,0.0,0.0,0.0,0.0,2.5025,2.5019,2.5025,2.5025,2.5025,2.5024,2.5011,2.5023,2.5004,2.4998,2.4991,2.4991,2.5003,2.5003,2.5003,2.5003,2.5003,2.5003,2.5003,2.5003,2.5003,2.5003,2.4931,2.4891,2.4891,2.4834,2.4827,2.4842,2.4842,2.4842,2.4842,2.4842,2.4842,2.4842,2.4842,2.4842,2.4842,2.4842,2.4842,2.4842,2.4842,2.4842,2.4842,2.4842,2.487,2.4924,2.4924,2.5437,2.6235,2.7266,2.7991,2.8722,2.9688,2.9897,2.9897,2.9897,2.9897,2.9897,2.9897,2.9897,2.9897,2.9897,2.9897,2.9897,2.9897,3.0654,3.145,3.2094,3.2937,3.3771,3.4605,3.451,3.4472,3.4661,3.451,3.4415,3.4424,3.3799,3.3449,3.3467,3.3449,3.3449,3.3467,3.3435,3.35,3.368,3.4407,3.4729,0.0,0.0,0.0,2.57,0.0,0.0,0.0,2.5645,2.5582,2.5554,2.5494,2.5441,0.0,0.0,0.0,0.0,0.0,0.0,0.0,0.0,0.0,0.0,0.0,0.0,2.4952,2.4943,2.4955,2.494,2.4984,2.5003,2.5003,2.5003,2.5003,2.5003,2.5003,2.5003,2.5003,2.5003,2.5003,2.5003,2.5003,2.5003,2.5003,2.4926,2.4919,2.4957,2.4875,2.4846,2.4846,2.478,2.4749,2.4757,2.4791,2.4794,2.4794,2.4794,2.4794,2.4794,2.4794,2.4794,2.4794,2.4794,2.4794,2.4794,2.4794,2.4794,2.4794,2.4794,2.4816,2.4856,2.4856,2.5508,2.637,2.7248,2.8055,2.888,2.972,2.9857,2.9805,2.9805,2.9805,2.9822,2.988,2.9897,2.9897,2.9897,2.9897,2.9897,2.9897,3.1014,3.1943,3.236,3.3543,3.4453,3.487,3.4908,3.4908,3.4908,3.4908,3.4908,3.4908,3.451,3.4301,3.4301,3.4301,3.4301,3.4301,3.4375,3.4391,3.441,3.4855,3.5054,0.0,0.0,0.0,0.0,0.0,2.5707,0.0,0.0,0.0,2.5593,2.555,0.0,0.0,0.0,0.0,0.0,0.0,0.0,0.0,0.0,0.0,0.0,0.0,0.0,0.0,2.4877,2.4873,2.487,2.4931,2.4996,2.5003,2.5003,2.5003,2.5003,2.5003,2.5003,2.5003,2.5003,2.5003,2.5003,2.5003,2.5003,2.5003,2.4867,2.4854,2.491,2.4824,2.4798,2.4783,2.4714,2.4682,2.4682,2.4738,2.4749,2.4749,2.4749,2.4749,2.4749,2.4749,2.4749,2.4749,2.4749,2.4749,2.4749,2.4749,2.4749,2.4757,2.4783,2.4791,2.4772,2.4805,2.5544,2.6492,2.7198,2.8105,2.9003,2.9702,2.9754,2.9672,2.9663,2.9663,2.9708,2.9839,2.9864,2.9891,2.9864,2.9864,2.9855,2.9866,3.1171,3.2182,3.2343,3.3705,3.468,3.487,3.4898,3.4898,3.4908,3.4908,3.4908,3.4908,3.4908,3.4908,3.4908,3.4908,3.4908,3.4908,3.4908,3.4908,3.4908,3.4908,3.4908,0.0,0.0,0.0,0.0,2.5698,0.0,0.0,0.0,2.5598,2.5607,0.0,0.0,0.0,0.0,0.0,0.0,0.0,0.0,0.0,0.0,0.0,0.0,0.0,0.0,0.0,2.478,2.4821,2.4801,2.487,2.4931,2.5003,2.5003,2.5003,2.5003,2.5003,2.5003,2.5003,2.5003,2.5003,2.5003,2.5003,2.5003,2.5003,2.4931,2.4891,2.491,2.4824,2.4764,2.4707,2.4706,2.4666,2.4615,2.4623,2.4613,2.4613,2.4613,2.4613,2.4613,2.4613,2.4613,2.4613,2.4613,2.4613,2.4613,2.4613,2.4613,2.4639,2.4698,2.4711,2.4723,2.478,2.5935,2.7102,2.7196,2.8431,2.9588,2.9626,2.9626,2.9589,2.9531,2.9522,2.9579,2.9708,2.978,2.9789,2.9735,2.9716,2.9717,2.9729,3.05,3.1365,3.2137,3.3042,3.3919,3.4821,3.4897,3.4898,3.4908,3.4908,3.4908,3.4908,3.4908,3.4908,3.4908,3.4908,3.4908,3.4908,3.4908,3.4908,3.4908,3.4908,3.4908,0.0,0.0,0.0,0.0,0.0,0.0,2.5708,0.0,2.5668,0.0,0.0,0.0,0.0,0.0,0.0,0.0,2.5321,0.0,0.0,0.0,0.0,0.0,0.0,0.0,0.0,0.0,0.0,0.0,2.4875,2.4969,2.5003,2.5003,2.5003,2.5003,2.5003,2.5003,2.5003,2.5003,2.4996,2.4995,2.4874,2.4861,2.4889,2.4816,2.482,2.4832,2.4768,2.4729,2.4687,2.4623,2.4564,2.4547,2.4541,2.4566,2.4607,2.4607,2.4607,2.4607,2.4607,2.4607,2.4607,2.4607,2.4572,2.4547,2.4547,2.4512,2.4495,2.4512,2.4528,2.4657,2.5188,2.6204,2.7202,2.7661,2.8643,2.9463,2.9443,2.9361,2.9296,2.9257,2.9275,2.9278,2.9332,2.9493,2.9617,2.9598,2.958,2.9748,3.0214,3.0982,3.1796,3.2633,3.3508,3.4218,3.4628,3.4697,3.4728,3.473,3.4761,3.482,3.4898,3.4907,3.4898,3.4908,3.4908,3.4908,3.4908,3.4908,3.4908,3.4908,3.4908,3.4908,2.5703,0.0,0.0,0.0,0.0,0.0,0.0,0.0,0.0,0.0,0.0,0.0,0.0,0.0,0.0,0.0,0.0,2.5307,0.0,0.0,0.0,0.0,0.0,0.0,0.0,0.0,0.0,2.4685,2.482,2.4948,2.5009,2.4996,2.5003,2.5003,2.5003,2.5003,2.5003,2.4996,2.5002,2.4993,2.4802,2.4728,2.4775,2.4738,2.4734,2.4764,2.4714,2.4685,2.4634,2.453,2.4488,2.4454,2.4446,2.4464,2.4497,2.4541,2.4541,2.4524,2.4524,2.4524,2.4524,2.4524,2.4479,2.4426,2.4426,2.4513,2.4644,2.468,2.4828,2.5162,2.5773,2.657,2.7341,2.7896,2.8606,2.9155,2.9134,2.9071,2.8987,2.8964,2.8975,2.8987,2.8987,2.9206,2.9384,2.9392,2.9587,2.993,3.0493,3.1459,3.2325,3.2932,3.3801,3.4393,3.4397,3.4484,3.4528,3.4539,3.4612,3.4687,3.4788,3.4838,3.4849,3.485,3.4879,3.4908,3.4908,3.4898,3.4908,3.4908,3.4908,3.4908,0.0,0.0,0.0,2.5694,0.0,0.0,0.0,0.0,2.5689,0.0,0.0,0.0,0.0,0.0,0.0,0.0,0.0,0.0,0.0,0.0,0.0,0.0,0.0,0.0,0.0,0.0,0.0,2.4682,2.467,2.4797,2.4993,2.5009,2.5003,2.5003,2.5003,2.5003,2.5003,2.4995,2.4993,2.4993,2.4804,2.4692,2.4711,2.4776,2.4757,2.47,2.4706,2.4636,2.4508,2.45,2.442,2.4321,2.4321,2.4275,2.4229,2.4358,2.4358,2.4303,2.4303,2.4303,2.4303,2.4303,2.4266,2.421,2.421,2.4714,2.5281,2.5349,2.5939,2.6546,2.6562,2.7119,2.768,2.7624,2.823,2.8803,2.8731,2.8706,2.8682,2.8625,2.8675,2.8706,2.8706,2.8943,2.9104,2.9112,2.977,3.0262,3.0215,3.1599,3.2616,3.2698,3.3493,3.4074,3.4197,3.4269,3.4328,3.4397,3.4473,3.4506,3.4517,3.4645,3.4716,3.4697,3.4829,3.4897,3.4897,3.4908,3.4908,3.4908,3.4908,3.4908,0.0,0.0,2.5637,2.5627,0.0,0.0,0.0,0.0,0.0,0.0,0.0,0.0,0.0,0.0,0.0,0.0,0.0,0.0,0.0,0.0,0.0,0.0,0.0,0.0,0.0,0.0,0.0,2.4688,2.466,2.4795,2.5,2.4995,2.4998,2.4988,2.4995,2.5004,2.5004,2.4994,2.4938,2.4794,2.4696,2.4593,2.45,2.4575,2.4561,2.4501,2.4507,2.4456,2.4367,2.4321,2.4247,2.4171,2.4171,2.4105,2.4027,2.4192,2.4257,2.4237,2.4237,2.4237,2.4237,2.4181,2.4114,2.4047,2.4018,2.415,2.4408,2.4972,2.5328,2.5783,2.6857,2.7318,2.7634,2.8137,2.8432,2.8594,2.8569,2.8536,2.8497,2.8471,2.8484,2.8497,2.8497,2.8601,2.8931,2.9606,2.993,3.0484,3.1524,3.2127,3.2688,3.3227,3.3601,3.3815,3.3855,3.3934,3.3998,3.4061,3.4136,3.4209,3.4293,3.4393,3.4484,3.458,3.4655,3.4747,3.4819,3.4878,3.4898,3.4908,3.4908,3.4908,2.5609,2.5563,0.0,2.5538,2.5523,0.0,2.5535,0.0,0.0,0.0,0.0,0.0,0.0,0.0,0.0,0.0,0.0,0.0,0.0,2.7022,0.0,0.0,0.0,0.0,0.0,0.0,2.6186,2.4631,2.4582,2.4706,0.0,0.0,2.4968,2.4907,2.4892,2.4873,2.482,2.4826,2.4749,2.4623,2.4588,2.4491,2.4376,2.4378,2.4381,2.4355,2.4302,2.4247,2.4191,2.4115,2.4047,2.3996,2.3996,2.3945,2.3884,2.4037,2.4085,2.4064,2.4064,2.4064,2.4054,2.4006,2.3955,2.3915,2.3873,2.4031,2.4357,2.5136,2.5569,2.6074,2.7379,2.7722,2.7835,2.835,2.8419,2.8393,2.8393,2.8353,2.8331,2.8331,2.8358,2.8461,2.873,2.8851,2.9119,2.9795,3.0161,3.0828,3.216,3.2579,3.2942,3.3465,3.3591,3.3629,3.3657,3.3698,3.3753,3.3793,3.3873,3.3934,3.4023,3.4111,3.4209,3.4316,3.442,3.455,3.4687,3.4798,3.4868,3.4898,3.4898,3.4908]}]]